<?xml version="1.0" encoding="utf-8"?>
<gpx xmlns:xsi="http://www.w3.org/2001/XMLSchema-instance" xmlns:xsd="http://www.w3.org/2001/XMLSchema" version="1.1" creator="Shapelink.com" xmlns="http://www.topografix.com/GPX/1/1" xmlns:gpxtpx="http://www.garmin.com/xmlschemas/TrackPointExtension/v1">
  <metadata>
    <name>Sykling 15.27 km, 2013-04-25</name>
    <desc></desc>
    <author><name>Stefan Östlund</name></author> 
    <time>2013-04-25T21:22:54Z</time>
  </metadata>
  <trk>
    <name>Sykling 15.27 km, 2013-04-25</name>
    <trkseg>
      <trkpt lat="59.9846109375" lon="15.8278193325">
        <ele>100</ele>
        <time>2013-04-25T21:22:54Z</time>
      </trkpt>
      <trkpt lat="59.9846104346" lon="15.827821428">
        <ele>100</ele>
        <time>2013-04-25T21:22:55Z</time>
      </trkpt>
      <trkpt lat="59.9846100155" lon="15.8278212603">
        <ele>100</ele>
        <time>2013-04-25T21:22:56Z</time>
      </trkpt>
      <trkpt lat="59.9846108537" lon="15.8277949411">
        <ele>100</ele>
        <time>2013-04-25T21:23:00Z</time>
      </trkpt>
      <trkpt lat="59.9846097641" lon="15.8277954441">
        <ele>100</ele>
        <time>2013-04-25T21:23:01Z</time>
      </trkpt>
      <trkpt lat="59.9846090935" lon="15.827802904">
        <ele>100</ele>
        <time>2013-04-25T21:23:02Z</time>
      </trkpt>
      <trkpt lat="59.9846087582" lon="15.8278043289">
        <ele>100</ele>
        <time>2013-04-25T21:23:04Z</time>
      </trkpt>
      <trkpt lat="59.9846085906" lon="15.8278040774">
        <ele>100</ele>
        <time>2013-04-25T21:23:05Z</time>
      </trkpt>
      <trkpt lat="59.9846085068" lon="15.8278044965">
        <ele>100</ele>
        <time>2013-04-25T21:23:08Z</time>
      </trkpt>
      <trkpt lat="59.9846069142" lon="15.8278041612">
        <ele>100</ele>
        <time>2013-04-25T21:23:10Z</time>
      </trkpt>
      <trkpt lat="59.9846076686" lon="15.8278081845">
        <ele>100</ele>
        <time>2013-04-25T21:23:11Z</time>
      </trkpt>
      <trkpt lat="59.9846077524" lon="15.8278100286">
        <ele>100</ele>
        <time>2013-04-25T21:23:12Z</time>
      </trkpt>
      <trkpt lat="59.9846080039" lon="15.8278125431">
        <ele>100</ele>
        <time>2013-04-25T21:23:13Z</time>
      </trkpt>
      <trkpt lat="59.9846053217" lon="15.8278152253">
        <ele>100</ele>
        <time>2013-04-25T21:23:14Z</time>
      </trkpt>
      <trkpt lat="59.9845997896" lon="15.8278174046">
        <ele>100</ele>
        <time>2013-04-25T21:23:15Z</time>
      </trkpt>
      <trkpt lat="59.9845955987" lon="15.8278256189">
        <ele>100</ele>
        <time>2013-04-25T21:23:16Z</time>
      </trkpt>
      <trkpt lat="59.9845953472" lon="15.8278227691">
        <ele>100</ele>
        <time>2013-04-25T21:23:17Z</time>
      </trkpt>
      <trkpt lat="59.9845984485" lon="15.8278179914">
        <ele>100</ele>
        <time>2013-04-25T21:23:25Z</time>
      </trkpt>
      <trkpt lat="59.984597275" lon="15.827824194">
        <ele>100</ele>
        <time>2013-04-25T21:23:31Z</time>
      </trkpt>
      <trkpt lat="59.9845976941" lon="15.8278239425">
        <ele>100</ele>
        <time>2013-04-25T21:23:32Z</time>
      </trkpt>
      <trkpt lat="59.9845983647" lon="15.8278235234">
        <ele>100</ele>
        <time>2013-04-25T21:23:33Z</time>
      </trkpt>
      <trkpt lat="59.9845976941" lon="15.8278244454">
        <ele>100</ele>
        <time>2013-04-25T21:23:34Z</time>
      </trkpt>
      <trkpt lat="59.9845971074" lon="15.8278277144">
        <ele>100</ele>
        <time>2013-04-25T21:23:35Z</time>
      </trkpt>
      <trkpt lat="59.9845970236" lon="15.8278313186">
        <ele>100</ele>
        <time>2013-04-25T21:23:36Z</time>
      </trkpt>
      <trkpt lat="59.9845980294" lon="15.8278303128">
        <ele>100</ele>
        <time>2013-04-25T21:23:37Z</time>
      </trkpt>
      <trkpt lat="59.9845986161" lon="15.8278293069">
        <ele>100</ele>
        <time>2013-04-25T21:23:38Z</time>
      </trkpt>
      <trkpt lat="59.9845987838" lon="15.8278273791">
        <ele>100</ele>
        <time>2013-04-25T21:23:39Z</time>
      </trkpt>
      <trkpt lat="59.9845999572" lon="15.8278263733">
        <ele>100</ele>
        <time>2013-04-25T21:23:40Z</time>
      </trkpt>
      <trkpt lat="59.9845993705" lon="15.8278308157">
        <ele>100</ele>
        <time>2013-04-25T21:23:42Z</time>
      </trkpt>
      <trkpt lat="59.9845984485" lon="15.827835761">
        <ele>100</ele>
        <time>2013-04-25T21:23:43Z</time>
      </trkpt>
      <trkpt lat="59.9845977779" lon="15.8278401196">
        <ele>100</ele>
        <time>2013-04-25T21:23:44Z</time>
      </trkpt>
      <trkpt lat="59.9845944252" lon="15.8278535306">
        <ele>100</ele>
        <time>2013-04-25T21:23:47Z</time>
      </trkpt>
      <trkpt lat="59.9845916592" lon="15.8278651815">
        <ele>100</ele>
        <time>2013-04-25T21:23:48Z</time>
      </trkpt>
      <trkpt lat="59.9845883064" lon="15.8278883994">
        <ele>100</ele>
        <time>2013-04-25T21:23:50Z</time>
      </trkpt>
      <trkpt lat="59.9845882226" lon="15.8279352542">
        <ele>100</ele>
        <time>2013-04-25T21:23:55Z</time>
      </trkpt>
      <trkpt lat="59.9845880549" lon="15.8279469889">
        <ele>100</ele>
        <time>2013-04-25T21:23:56Z</time>
      </trkpt>
      <trkpt lat="59.9845889769" lon="15.8279515989">
        <ele>100</ele>
        <time>2013-04-25T21:23:57Z</time>
      </trkpt>
      <trkpt lat="59.9845912401" lon="15.8279481623">
        <ele>100</ele>
        <time>2013-04-25T21:23:58Z</time>
      </trkpt>
      <trkpt lat="59.984592665" lon="15.8279435523">
        <ele>100</ele>
        <time>2013-04-25T21:23:59Z</time>
      </trkpt>
      <trkpt lat="59.9845950957" lon="15.8279388584">
        <ele>100</ele>
        <time>2013-04-25T21:24:00Z</time>
      </trkpt>
      <trkpt lat="59.9845987" lon="15.8279348351">
        <ele>100</ele>
        <time>2013-04-25T21:24:01Z</time>
      </trkpt>
      <trkpt lat="59.984600544" lon="15.8279311471">
        <ele>100</ele>
        <time>2013-04-25T21:24:02Z</time>
      </trkpt>
      <trkpt lat="59.9846001249" lon="15.8279213402">
        <ele>100</ele>
        <time>2013-04-25T21:24:03Z</time>
      </trkpt>
      <trkpt lat="59.984593587" lon="15.8279083483">
        <ele>100</ele>
        <time>2013-04-25T21:24:06Z</time>
      </trkpt>
      <trkpt lat="59.9845945928" lon="15.8278992958">
        <ele>100</ele>
        <time>2013-04-25T21:24:07Z</time>
      </trkpt>
      <trkpt lat="59.9845964368" lon="15.8278896566">
        <ele>100</ele>
        <time>2013-04-25T21:24:08Z</time>
      </trkpt>
      <trkpt lat="59.9845997058" lon="15.8278643433">
        <ele>100</ele>
        <time>2013-04-25T21:24:10Z</time>
      </trkpt>
      <trkpt lat="59.9846006278" lon="15.827855207">
        <ele>100</ele>
        <time>2013-04-25T21:24:11Z</time>
      </trkpt>
      <trkpt lat="59.98460331" lon="15.8278479148">
        <ele>100</ele>
        <time>2013-04-25T21:24:12Z</time>
      </trkpt>
      <trkpt lat="59.9846085906" lon="15.8278374374">
        <ele>100</ele>
        <time>2013-04-25T21:24:16Z</time>
      </trkpt>
      <trkpt lat="59.9846119434" lon="15.8278406225">
        <ele>100</ele>
        <time>2013-04-25T21:24:18Z</time>
      </trkpt>
      <trkpt lat="59.9846129492" lon="15.8278388623">
        <ele>100</ele>
        <time>2013-04-25T21:24:19Z</time>
      </trkpt>
      <trkpt lat="59.9846118595" lon="15.8278623316">
        <ele>100</ele>
        <time>2013-04-25T21:24:22Z</time>
      </trkpt>
      <trkpt lat="59.9846114404" lon="15.8278562967">
        <ele>100</ele>
        <time>2013-04-25T21:24:23Z</time>
      </trkpt>
      <trkpt lat="59.9846110214" lon="15.8278522734">
        <ele>100</ele>
        <time>2013-04-25T21:24:24Z</time>
      </trkpt>
      <trkpt lat="59.9846109375" lon="15.8278554585">
        <ele>100</ele>
        <time>2013-04-25T21:24:25Z</time>
      </trkpt>
      <trkpt lat="59.9846067466" lon="15.8278537821">
        <ele>100</ele>
        <time>2013-04-25T21:24:27Z</time>
      </trkpt>
      <trkpt lat="59.9846078362" lon="15.8278463222">
        <ele>100</ele>
        <time>2013-04-25T21:24:28Z</time>
      </trkpt>
      <trkpt lat="59.9846075848" lon="15.8278452326">
        <ele>100</ele>
        <time>2013-04-25T21:24:29Z</time>
      </trkpt>
      <trkpt lat="59.9846065789" lon="15.8278418798">
        <ele>100</ele>
        <time>2013-04-25T21:24:30Z</time>
      </trkpt>
      <trkpt lat="59.9845342431" lon="15.8278806042">
        <ele>100</ele>
        <time>2013-04-25T21:24:31Z</time>
      </trkpt>
      <trkpt lat="59.984534746" lon="15.8278745692">
        <ele>100</ele>
        <time>2013-04-25T21:24:32Z</time>
      </trkpt>
      <trkpt lat="59.9845384341" lon="15.8278611582">
        <ele>100</ele>
        <time>2013-04-25T21:24:36Z</time>
      </trkpt>
      <trkpt lat="59.9845305551" lon="15.8278659359">
        <ele>100</ele>
        <time>2013-04-25T21:24:37Z</time>
      </trkpt>
      <trkpt lat="59.984526867" lon="15.8278801851">
        <ele>100</ele>
        <time>2013-04-25T21:24:38Z</time>
      </trkpt>
      <trkpt lat="59.9845261965" lon="15.8278898243">
        <ele>100</ele>
        <time>2013-04-25T21:24:39Z</time>
      </trkpt>
      <trkpt lat="59.9845282082" lon="15.827889489">
        <ele>100</ele>
        <time>2013-04-25T21:24:40Z</time>
      </trkpt>
      <trkpt lat="59.9845287949" lon="15.827885801">
        <ele>100</ele>
        <time>2013-04-25T21:24:41Z</time>
      </trkpt>
      <trkpt lat="59.9845237657" lon="15.8278915845">
        <ele>100</ele>
        <time>2013-04-25T21:24:42Z</time>
      </trkpt>
      <trkpt lat="59.9845240172" lon="15.8278837893">
        <ele>100</ele>
        <time>2013-04-25T21:24:43Z</time>
      </trkpt>
      <trkpt lat="59.9845216703" lon="15.8278900757">
        <ele>100</ele>
        <time>2013-04-25T21:24:44Z</time>
      </trkpt>
      <trkpt lat="59.9845276214" lon="15.8278777543">
        <ele>100</ele>
        <time>2013-04-25T21:24:45Z</time>
      </trkpt>
      <trkpt lat="59.9845295493" lon="15.8278671931">
        <ele>100</ele>
        <time>2013-04-25T21:24:46Z</time>
      </trkpt>
      <trkpt lat="59.9845294654" lon="15.8278592303">
        <ele>100</ele>
        <time>2013-04-25T21:24:47Z</time>
      </trkpt>
      <trkpt lat="59.9845313933" lon="15.8278508484">
        <ele>100</ele>
        <time>2013-04-25T21:24:48Z</time>
      </trkpt>
      <trkpt lat="59.9845318124" lon="15.8278463222">
        <ele>100</ele>
        <time>2013-04-25T21:24:49Z</time>
      </trkpt>
      <trkpt lat="59.9845358357" lon="15.8278365992">
        <ele>100</ele>
        <time>2013-04-25T21:24:50Z</time>
      </trkpt>
      <trkpt lat="59.984528292" lon="15.8278469089">
        <ele>100</ele>
        <time>2013-04-25T21:24:53Z</time>
      </trkpt>
      <trkpt lat="59.984525945" lon="15.8278522734">
        <ele>100</ele>
        <time>2013-04-25T21:24:54Z</time>
      </trkpt>
      <trkpt lat="59.9845235981" lon="15.8278655168">
        <ele>100</ele>
        <time>2013-04-25T21:24:55Z</time>
      </trkpt>
      <trkpt lat="59.9845209997" lon="15.8278743178">
        <ele>100</ele>
        <time>2013-04-25T21:24:56Z</time>
      </trkpt>
      <trkpt lat="59.9845195748" lon="15.8278698754">
        <ele>100</ele>
        <time>2013-04-25T21:24:57Z</time>
      </trkpt>
      <trkpt lat="59.9845249392" lon="15.8278597333">
        <ele>100</ele>
        <time>2013-04-25T21:24:59Z</time>
      </trkpt>
      <trkpt lat="59.9845256098" lon="15.8278635889">
        <ele>100</ele>
        <time>2013-04-25T21:25:00Z</time>
      </trkpt>
      <trkpt lat="59.98452737" lon="15.8278600685">
        <ele>100</ele>
        <time>2013-04-25T21:25:01Z</time>
      </trkpt>
      <trkpt lat="59.9845303874" lon="15.8278490882">
        <ele>100</ele>
        <time>2013-04-25T21:25:02Z</time>
      </trkpt>
      <trkpt lat="59.9845299684" lon="15.8278469089">
        <ele>100</ele>
        <time>2013-04-25T21:25:03Z</time>
      </trkpt>
      <trkpt lat="59.9845284596" lon="15.8278500102">
        <ele>100</ele>
        <time>2013-04-25T21:25:04Z</time>
      </trkpt>
      <trkpt lat="59.9845198262" lon="15.8278814424">
        <ele>100</ele>
        <time>2013-04-25T21:25:09Z</time>
      </trkpt>
      <trkpt lat="59.9845200777" lon="15.8278628346">
        <ele>100</ele>
        <time>2013-04-25T21:25:13Z</time>
      </trkpt>
      <trkpt lat="59.9845194072" lon="15.827859398">
        <ele>100</ele>
        <time>2013-04-25T21:25:14Z</time>
      </trkpt>
      <trkpt lat="59.9845211674" lon="15.8278594818">
        <ele>100</ele>
        <time>2013-04-25T21:25:15Z</time>
      </trkpt>
      <trkpt lat="59.9845197424" lon="15.8278582245">
        <ele>100</ele>
        <time>2013-04-25T21:25:16Z</time>
      </trkpt>
      <trkpt lat="59.9845165573" lon="15.8278535306">
        <ele>100</ele>
        <time>2013-04-25T21:25:17Z</time>
      </trkpt>
      <trkpt lat="59.9845153838" lon="15.8278540336">
        <ele>100</ele>
        <time>2013-04-25T21:25:18Z</time>
      </trkpt>
      <trkpt lat="59.9845138751" lon="15.8278525248">
        <ele>100</ele>
        <time>2013-04-25T21:25:19Z</time>
      </trkpt>
      <trkpt lat="59.9845124502" lon="15.8278542012">
        <ele>100</ele>
        <time>2013-04-25T21:25:20Z</time>
      </trkpt>
      <trkpt lat="59.9845081754" lon="15.8278502617">
        <ele>100</ele>
        <time>2013-04-25T21:25:21Z</time>
      </trkpt>
      <trkpt lat="59.9845047388" lon="15.8278463222">
        <ele>100</ele>
        <time>2013-04-25T21:25:22Z</time>
      </trkpt>
      <trkpt lat="59.9845028948" lon="15.8278454002">
        <ele>100</ele>
        <time>2013-04-25T21:25:23Z</time>
      </trkpt>
      <trkpt lat="59.9845038168" lon="15.8278387785">
        <ele>100</ele>
        <time>2013-04-25T21:25:24Z</time>
      </trkpt>
      <trkpt lat="59.9845060799" lon="15.8278346714">
        <ele>100</ele>
        <time>2013-04-25T21:25:26Z</time>
      </trkpt>
      <trkpt lat="59.9845036492" lon="15.8278305642">
        <ele>100</ele>
        <time>2013-04-25T21:25:27Z</time>
      </trkpt>
      <trkpt lat="59.9845014699" lon="15.8278281335">
        <ele>100</ele>
        <time>2013-04-25T21:25:28Z</time>
      </trkpt>
      <trkpt lat="59.9845014699" lon="15.8278228529">
        <ele>100</ele>
        <time>2013-04-25T21:25:32Z</time>
      </trkpt>
      <trkpt lat="59.9845044035" lon="15.8278261218">
        <ele>100</ele>
        <time>2013-04-25T21:25:33Z</time>
      </trkpt>
      <trkpt lat="59.9845043197" lon="15.827830229">
        <ele>100</ele>
        <time>2013-04-25T21:25:34Z</time>
      </trkpt>
      <trkpt lat="59.9845044035" lon="15.8278337494">
        <ele>100</ele>
        <time>2013-04-25T21:25:35Z</time>
      </trkpt>
      <trkpt lat="59.9845029786" lon="15.8278333303">
        <ele>100</ele>
        <time>2013-04-25T21:25:37Z</time>
      </trkpt>
      <trkpt lat="59.984500967" lon="15.8278246969">
        <ele>100</ele>
        <time>2013-04-25T21:25:38Z</time>
      </trkpt>
      <trkpt lat="59.9845008831" lon="15.8278169017">
        <ele>100</ele>
        <time>2013-04-25T21:25:39Z</time>
      </trkpt>
      <trkpt lat="59.9845011346" lon="15.8278176561">
        <ele>100</ele>
        <time>2013-04-25T21:25:40Z</time>
      </trkpt>
      <trkpt lat="59.9845025595" lon="15.82782235">
        <ele>100</ele>
        <time>2013-04-25T21:25:41Z</time>
      </trkpt>
      <trkpt lat="59.9845027272" lon="15.8278184105">
        <ele>100</ele>
        <time>2013-04-25T21:25:42Z</time>
      </trkpt>
      <trkpt lat="59.9845031463" lon="15.8278122917">
        <ele>100</ele>
        <time>2013-04-25T21:25:43Z</time>
      </trkpt>
      <trkpt lat="59.9845039845" lon="15.8278096095">
        <ele>100</ele>
        <time>2013-04-25T21:25:44Z</time>
      </trkpt>
      <trkpt lat="59.9845050741" lon="15.8278072625">
        <ele>100</ele>
        <time>2013-04-25T21:25:45Z</time>
      </trkpt>
      <trkpt lat="59.9845062476" lon="15.8278055862">
        <ele>100</ele>
        <time>2013-04-25T21:25:46Z</time>
      </trkpt>
      <trkpt lat="59.984506499" lon="15.8278064243">
        <ele>100</ele>
        <time>2013-04-25T21:25:47Z</time>
      </trkpt>
      <trkpt lat="59.9845065828" lon="15.8278086875">
        <ele>100</ele>
        <time>2013-04-25T21:25:48Z</time>
      </trkpt>
      <trkpt lat="59.9845075049" lon="15.8278148063">
        <ele>100</ele>
        <time>2013-04-25T21:25:51Z</time>
      </trkpt>
      <trkpt lat="59.9845100194" lon="15.8278150577">
        <ele>100</ele>
        <time>2013-04-25T21:25:52Z</time>
      </trkpt>
      <trkpt lat="59.9845101871" lon="15.8278151415">
        <ele>100</ele>
        <time>2013-04-25T21:25:53Z</time>
      </trkpt>
      <trkpt lat="59.9845110252" lon="15.8278159797">
        <ele>100</ele>
        <time>2013-04-25T21:25:54Z</time>
      </trkpt>
      <trkpt lat="59.9845112767" lon="15.8278174046">
        <ele>100</ele>
        <time>2013-04-25T21:25:55Z</time>
      </trkpt>
      <trkpt lat="59.9845115282" lon="15.8278173208">
        <ele>100</ele>
        <time>2013-04-25T21:25:56Z</time>
      </trkpt>
      <trkpt lat="59.9845140427" lon="15.8277905826">
        <ele>100</ele>
        <time>2013-04-25T21:26:02Z</time>
      </trkpt>
      <trkpt lat="59.9845137075" lon="15.8277932648">
        <ele>100</ele>
        <time>2013-04-25T21:26:03Z</time>
      </trkpt>
      <trkpt lat="59.9845140427" lon="15.8277928457">
        <ele>100</ele>
        <time>2013-04-25T21:26:04Z</time>
      </trkpt>
      <trkpt lat="59.9845151324" lon="15.8277903311">
        <ele>100</ele>
        <time>2013-04-25T21:26:05Z</time>
      </trkpt>
      <trkpt lat="59.9845153" lon="15.8277936">
        <ele>100</ele>
        <time>2013-04-25T21:26:06Z</time>
      </trkpt>
      <trkpt lat="59.9845154677" lon="15.8277970366">
        <ele>100</ele>
        <time>2013-04-25T21:26:07Z</time>
      </trkpt>
      <trkpt lat="59.9845148809" lon="15.8278018981">
        <ele>100</ele>
        <time>2013-04-25T21:26:08Z</time>
      </trkpt>
      <trkpt lat="59.9845145456" lon="15.8278051671">
        <ele>100</ele>
        <time>2013-04-25T21:26:09Z</time>
      </trkpt>
      <trkpt lat="59.9845158029" lon="15.8277988806">
        <ele>100</ele>
        <time>2013-04-25T21:26:11Z</time>
      </trkpt>
      <trkpt lat="59.9845173955" lon="15.8277965337">
        <ele>100</ele>
        <time>2013-04-25T21:26:12Z</time>
      </trkpt>
      <trkpt lat="59.9845182337" lon="15.8277956117">
        <ele>100</ele>
        <time>2013-04-25T21:26:13Z</time>
      </trkpt>
      <trkpt lat="59.9845168926" lon="15.8278073464">
        <ele>100</ele>
        <time>2013-04-25T21:26:15Z</time>
      </trkpt>
      <trkpt lat="59.9845163058" lon="15.8278158959">
        <ele>100</ele>
        <time>2013-04-25T21:26:16Z</time>
      </trkpt>
      <trkpt lat="59.9845127016" lon="15.8278336655">
        <ele>100</ele>
        <time>2013-04-25T21:26:18Z</time>
      </trkpt>
      <trkpt lat="59.984512534" lon="15.8278345875">
        <ele>100</ele>
        <time>2013-04-25T21:26:19Z</time>
      </trkpt>
      <trkpt lat="59.9845120311" lon="15.8278317377">
        <ele>100</ele>
        <time>2013-04-25T21:26:20Z</time>
      </trkpt>
      <trkpt lat="59.9845063314" lon="15.8278558776">
        <ele>100</ele>
        <time>2013-04-25T21:26:24Z</time>
      </trkpt>
      <trkpt lat="59.9845064152" lon="15.827859398">
        <ele>100</ele>
        <time>2013-04-25T21:26:29Z</time>
      </trkpt>
      <trkpt lat="59.9845079239" lon="15.8278498426">
        <ele>100</ele>
        <time>2013-04-25T21:26:30Z</time>
      </trkpt>
      <trkpt lat="59.9845085107" lon="15.8278433885">
        <ele>100</ele>
        <time>2013-04-25T21:26:31Z</time>
      </trkpt>
      <trkpt lat="59.9845085945" lon="15.8278372698">
        <ele>100</ele>
        <time>2013-04-25T21:26:32Z</time>
      </trkpt>
      <trkpt lat="59.9845100194" lon="15.8278312348">
        <ele>100</ele>
        <time>2013-04-25T21:26:33Z</time>
      </trkpt>
      <trkpt lat="59.9845111929" lon="15.8278279658">
        <ele>100</ele>
        <time>2013-04-25T21:26:34Z</time>
      </trkpt>
      <trkpt lat="59.9845105223" lon="15.8278316539">
        <ele>100</ele>
        <time>2013-04-25T21:26:36Z</time>
      </trkpt>
      <trkpt lat="59.9845101032" lon="15.8278363477">
        <ele>100</ele>
        <time>2013-04-25T21:26:37Z</time>
      </trkpt>
      <trkpt lat="59.9845075887" lon="15.827848753">
        <ele>100</ele>
        <time>2013-04-25T21:26:38Z</time>
      </trkpt>
      <trkpt lat="59.9845049065" lon="15.8278562967">
        <ele>100</ele>
        <time>2013-04-25T21:26:39Z</time>
      </trkpt>
      <trkpt lat="59.984505577" lon="15.827855207">
        <ele>100</ele>
        <time>2013-04-25T21:26:42Z</time>
      </trkpt>
      <trkpt lat="59.9845054094" lon="15.8278550394">
        <ele>100</ele>
        <time>2013-04-25T21:26:43Z</time>
      </trkpt>
      <trkpt lat="59.9845054094" lon="15.8278546203">
        <ele>100</ele>
        <time>2013-04-25T21:26:44Z</time>
      </trkpt>
      <trkpt lat="59.9845043197" lon="15.8278563805">
        <ele>100</ele>
        <time>2013-04-25T21:26:45Z</time>
      </trkpt>
      <trkpt lat="59.984506499" lon="15.8278704621">
        <ele>100</ele>
        <time>2013-04-25T21:26:49Z</time>
      </trkpt>
      <trkpt lat="59.9845047388" lon="15.8278786764">
        <ele>100</ele>
        <time>2013-04-25T21:26:50Z</time>
      </trkpt>
      <trkpt lat="59.9845023919" lon="15.8278873097">
        <ele>100</ele>
        <time>2013-04-25T21:26:51Z</time>
      </trkpt>
      <trkpt lat="59.9845002964" lon="15.8278934285">
        <ele>100</ele>
        <time>2013-04-25T21:26:52Z</time>
      </trkpt>
      <trkpt lat="59.9844977818" lon="15.8278981224">
        <ele>100</ele>
        <time>2013-04-25T21:26:53Z</time>
      </trkpt>
      <trkpt lat="59.9844973627" lon="15.8279074263">
        <ele>100</ele>
        <time>2013-04-25T21:26:54Z</time>
      </trkpt>
      <trkpt lat="59.984499542" lon="15.8279104438">
        <ele>100</ele>
        <time>2013-04-25T21:26:55Z</time>
      </trkpt>
      <trkpt lat="59.9845007155" lon="15.82789829">
        <ele>100</ele>
        <time>2013-04-25T21:26:57Z</time>
      </trkpt>
      <trkpt lat="59.9845002964" lon="15.8278879803">
        <ele>100</ele>
        <time>2013-04-25T21:26:59Z</time>
      </trkpt>
      <trkpt lat="59.9845002126" lon="15.827889489">
        <ele>100</ele>
        <time>2013-04-25T21:27:00Z</time>
      </trkpt>
      <trkpt lat="59.9845007155" lon="15.8278870583">
        <ele>100</ele>
        <time>2013-04-25T21:27:01Z</time>
      </trkpt>
      <trkpt lat="59.9845004641" lon="15.8278815262">
        <ele>100</ele>
        <time>2013-04-25T21:27:02Z</time>
      </trkpt>
      <trkpt lat="59.9845006317" lon="15.8278759103">
        <ele>100</ele>
        <time>2013-04-25T21:27:03Z</time>
      </trkpt>
      <trkpt lat="59.9844998773" lon="15.8278776705">
        <ele>100</ele>
        <time>2013-04-25T21:27:04Z</time>
      </trkpt>
      <trkpt lat="59.9845007993" lon="15.8278730605">
        <ele>100</ele>
        <time>2013-04-25T21:27:05Z</time>
      </trkpt>
      <trkpt lat="59.9845021404" lon="15.8278646786">
        <ele>100</ele>
        <time>2013-04-25T21:27:07Z</time>
      </trkpt>
      <trkpt lat="59.9845023919" lon="15.8278646786">
        <ele>100</ele>
        <time>2013-04-25T21:27:08Z</time>
      </trkpt>
      <trkpt lat="59.9845029786" lon="15.8278578054">
        <ele>100</ele>
        <time>2013-04-25T21:27:10Z</time>
      </trkpt>
      <trkpt lat="59.9845028948" lon="15.8278567158">
        <ele>100</ele>
        <time>2013-04-25T21:27:11Z</time>
      </trkpt>
      <trkpt lat="59.9845033977" lon="15.8278536983">
        <ele>100</ele>
        <time>2013-04-25T21:27:12Z</time>
      </trkpt>
      <trkpt lat="59.9845044035" lon="15.8278481662">
        <ele>100</ele>
        <time>2013-04-25T21:27:13Z</time>
      </trkpt>
      <trkpt lat="59.9845071696" lon="15.8278371021">
        <ele>100</ele>
        <time>2013-04-25T21:27:14Z</time>
      </trkpt>
      <trkpt lat="59.9845067505" lon="15.8278368507">
        <ele>100</ele>
        <time>2013-04-25T21:27:15Z</time>
      </trkpt>
      <trkpt lat="59.9845071696" lon="15.8278360963">
        <ele>100</ele>
        <time>2013-04-25T21:27:16Z</time>
      </trkpt>
      <trkpt lat="59.9845076725" lon="15.8278364316">
        <ele>100</ele>
        <time>2013-04-25T21:27:17Z</time>
      </trkpt>
      <trkpt lat="59.9845064152" lon="15.8278381918">
        <ele>100</ele>
        <time>2013-04-25T21:27:18Z</time>
      </trkpt>
      <trkpt lat="59.9845044035" lon="15.8278376888">
        <ele>100</ele>
        <time>2013-04-25T21:27:19Z</time>
      </trkpt>
      <trkpt lat="59.984502811" lon="15.8278336655">
        <ele>100</ele>
        <time>2013-04-25T21:27:20Z</time>
      </trkpt>
      <trkpt lat="59.9845041521" lon="15.8278321568">
        <ele>100</ele>
        <time>2013-04-25T21:27:21Z</time>
      </trkpt>
      <trkpt lat="59.9845047388" lon="15.8278274629">
        <ele>100</ele>
        <time>2013-04-25T21:27:22Z</time>
      </trkpt>
      <trkpt lat="59.9845048226" lon="15.82782696">
        <ele>100</ele>
        <time>2013-04-25T21:27:23Z</time>
      </trkpt>
      <trkpt lat="59.9845028948" lon="15.8278247807">
        <ele>100</ele>
        <time>2013-04-25T21:27:24Z</time>
      </trkpt>
      <trkpt lat="59.9846157152" lon="15.8278115373">
        <ele>100</ele>
        <time>2013-04-25T21:27:25Z</time>
      </trkpt>
      <trkpt lat="59.9846242648" lon="15.8277889062">
        <ele>100</ele>
        <time>2013-04-25T21:27:26Z</time>
      </trkpt>
      <trkpt lat="59.9846280366" lon="15.8277887385">
        <ele>100</ele>
        <time>2013-04-25T21:27:27Z</time>
      </trkpt>
      <trkpt lat="59.9846297968" lon="15.8277890738">
        <ele>100</ele>
        <time>2013-04-25T21:27:28Z</time>
      </trkpt>
      <trkpt lat="59.9846290424" lon="15.8277965337">
        <ele>100</ele>
        <time>2013-04-25T21:27:31Z</time>
      </trkpt>
      <trkpt lat="59.9846301321" lon="15.8277971204">
        <ele>100</ele>
        <time>2013-04-25T21:27:32Z</time>
      </trkpt>
      <trkpt lat="59.9846320599" lon="15.8277875651">
        <ele>100</ele>
        <time>2013-04-25T21:27:35Z</time>
      </trkpt>
      <trkpt lat="59.9846319761" lon="15.8277893253">
        <ele>100</ele>
        <time>2013-04-25T21:27:36Z</time>
      </trkpt>
      <trkpt lat="59.9846302997" lon="15.827792678">
        <ele>100</ele>
        <time>2013-04-25T21:27:37Z</time>
      </trkpt>
      <trkpt lat="59.9846336525" lon="15.827783877">
        <ele>100</ele>
        <time>2013-04-25T21:27:40Z</time>
      </trkpt>
      <trkpt lat="59.9846365862" lon="15.8277842123">
        <ele>100</ele>
        <time>2013-04-25T21:27:41Z</time>
      </trkpt>
      <trkpt lat="59.9846365023" lon="15.8277868945">
        <ele>100</ele>
        <time>2013-04-25T21:27:42Z</time>
      </trkpt>
      <trkpt lat="59.9846369214" lon="15.8277873136">
        <ele>100</ele>
        <time>2013-04-25T21:27:43Z</time>
      </trkpt>
      <trkpt lat="59.984634826" lon="15.8277923428">
        <ele>100</ele>
        <time>2013-04-25T21:27:46Z</time>
      </trkpt>
      <trkpt lat="59.98463667" lon="15.827789912">
        <ele>100</ele>
        <time>2013-04-25T21:27:47Z</time>
      </trkpt>
      <trkpt lat="59.9846390169" lon="15.8277873974">
        <ele>100</ele>
        <time>2013-04-25T21:27:48Z</time>
      </trkpt>
      <trkpt lat="59.9846438784" lon="15.8277822845">
        <ele>100</ele>
        <time>2013-04-25T21:27:49Z</time>
      </trkpt>
      <trkpt lat="59.9846453872" lon="15.8277768362">
        <ele>100</ele>
        <time>2013-04-25T21:27:50Z</time>
      </trkpt>
      <trkpt lat="59.9846448004" lon="15.8277748246">
        <ele>100</ele>
        <time>2013-04-25T21:27:51Z</time>
      </trkpt>
      <trkpt lat="59.9846493267" lon="15.8277676161">
        <ele>100</ele>
        <time>2013-04-25T21:27:53Z</time>
      </trkpt>
      <trkpt lat="59.9846496619" lon="15.8277657721">
        <ele>100</ele>
        <time>2013-04-25T21:27:54Z</time>
      </trkpt>
      <trkpt lat="59.9846465606" lon="15.8277706336">
        <ele>100</ele>
        <time>2013-04-25T21:27:55Z</time>
      </trkpt>
      <trkpt lat="59.9846550263" lon="15.8277573902">
        <ele>100</ele>
        <time>2013-04-25T21:27:59Z</time>
      </trkpt>
      <trkpt lat="59.9846576247" lon="15.8277408779">
        <ele>100</ele>
        <time>2013-04-25T21:28:04Z</time>
      </trkpt>
      <trkpt lat="59.9846571218" lon="15.8277312387">
        <ele>100</ele>
        <time>2013-04-25T21:28:05Z</time>
      </trkpt>
      <trkpt lat="59.9846564513" lon="15.827722773">
        <ele>100</ele>
        <time>2013-04-25T21:28:06Z</time>
      </trkpt>
      <trkpt lat="59.9846078362" lon="15.8277044166">
        <ele>100</ele>
        <time>2013-04-25T21:28:12Z</time>
      </trkpt>
      <trkpt lat="59.9846081715" lon="15.8277103677">
        <ele>100</ele>
        <time>2013-04-25T21:28:13Z</time>
      </trkpt>
      <trkpt lat="59.9846078362" lon="15.8277076855">
        <ele>100</ele>
        <time>2013-04-25T21:28:14Z</time>
      </trkpt>
      <trkpt lat="59.984608423" lon="15.8277072664">
        <ele>100</ele>
        <time>2013-04-25T21:28:15Z</time>
      </trkpt>
      <trkpt lat="59.9846085906" lon="15.8277025726">
        <ele>100</ele>
        <time>2013-04-25T21:28:16Z</time>
      </trkpt>
      <trkpt lat="59.9846063275" lon="15.827680612">
        <ele>100</ele>
        <time>2013-04-25T21:28:19Z</time>
      </trkpt>
      <trkpt lat="59.9846057408" lon="15.8276767563">
        <ele>100</ele>
        <time>2013-04-25T21:28:20Z</time>
      </trkpt>
      <trkpt lat="59.9846057408" lon="15.8276763372">
        <ele>100</ele>
        <time>2013-04-25T21:28:21Z</time>
      </trkpt>
      <trkpt lat="59.9846059084" lon="15.8276762534">
        <ele>100</ele>
        <time>2013-04-25T21:28:22Z</time>
      </trkpt>
      <trkpt lat="59.9846059922" lon="15.8276783489">
        <ele>100</ele>
        <time>2013-04-25T21:28:23Z</time>
      </trkpt>
      <trkpt lat="59.984606076" lon="15.8276817854">
        <ele>100</ele>
        <time>2013-04-25T21:28:24Z</time>
      </trkpt>
      <trkpt lat="59.984606076" lon="15.827674577">
        <ele>100</ele>
        <time>2013-04-25T21:28:27Z</time>
      </trkpt>
      <trkpt lat="59.9846064113" lon="15.8276752476">
        <ele>100</ele>
        <time>2013-04-25T21:28:28Z</time>
      </trkpt>
      <trkpt lat="59.9846066628" lon="15.8276810311">
        <ele>100</ele>
        <time>2013-04-25T21:28:29Z</time>
      </trkpt>
      <trkpt lat="59.9846064113" lon="15.8276826236">
        <ele>100</ele>
        <time>2013-04-25T21:28:30Z</time>
      </trkpt>
      <trkpt lat="59.9846064113" lon="15.8276784327">
        <ele>100</ele>
        <time>2013-04-25T21:28:31Z</time>
      </trkpt>
      <trkpt lat="59.9846056569" lon="15.8276720624">
        <ele>100</ele>
        <time>2013-04-25T21:28:32Z</time>
      </trkpt>
      <trkpt lat="59.9846053217" lon="15.827665776">
        <ele>100</ele>
        <time>2013-04-25T21:28:33Z</time>
      </trkpt>
      <trkpt lat="59.9846047349" lon="15.8276517782">
        <ele>100</ele>
        <time>2013-04-25T21:28:35Z</time>
      </trkpt>
      <trkpt lat="59.9846047349" lon="15.8276476711">
        <ele>100</ele>
        <time>2013-04-25T21:28:36Z</time>
      </trkpt>
      <trkpt lat="59.9846047349" lon="15.8276541252">
        <ele>100</ele>
        <time>2013-04-25T21:28:37Z</time>
      </trkpt>
      <trkpt lat="59.9846050702" lon="15.8276517782">
        <ele>100</ele>
        <time>2013-04-25T21:28:38Z</time>
      </trkpt>
      <trkpt lat="59.9846046511" lon="15.8276453242">
        <ele>100</ele>
        <time>2013-04-25T21:28:39Z</time>
      </trkpt>
      <trkpt lat="59.9846053217" lon="15.8276449051">
        <ele>100</ele>
        <time>2013-04-25T21:28:40Z</time>
      </trkpt>
      <trkpt lat="59.9846053217" lon="15.8276452404">
        <ele>100</ele>
        <time>2013-04-25T21:28:41Z</time>
      </trkpt>
      <trkpt lat="59.9846053217" lon="15.8276415523">
        <ele>100</ele>
        <time>2013-04-25T21:28:42Z</time>
      </trkpt>
      <trkpt lat="59.9846052378" lon="15.8276409656">
        <ele>100</ele>
        <time>2013-04-25T21:28:43Z</time>
      </trkpt>
      <trkpt lat="59.9846052378" lon="15.8276409656">
        <ele>100</ele>
        <time>2013-04-25T21:28:44Z</time>
      </trkpt>
      <trkpt lat="59.9846053217" lon="15.8276392892">
        <ele>100</ele>
        <time>2013-04-25T21:28:45Z</time>
      </trkpt>
      <trkpt lat="59.9846052378" lon="15.827621771">
        <ele>100</ele>
        <time>2013-04-25T21:28:50Z</time>
      </trkpt>
      <trkpt lat="59.9846050702" lon="15.8276227769">
        <ele>100</ele>
        <time>2013-04-25T21:28:51Z</time>
      </trkpt>
      <trkpt lat="59.9846049864" lon="15.8276256267">
        <ele>100</ele>
        <time>2013-04-25T21:28:52Z</time>
      </trkpt>
      <trkpt lat="59.9846047349" lon="15.8276216872">
        <ele>100</ele>
        <time>2013-04-25T21:28:55Z</time>
      </trkpt>
      <trkpt lat="59.9846047349" lon="15.8276121318">
        <ele>100</ele>
        <time>2013-04-25T21:29:03Z</time>
      </trkpt>
      <trkpt lat="59.9846049026" lon="15.8276169933">
        <ele>100</ele>
        <time>2013-04-25T21:29:04Z</time>
      </trkpt>
      <trkpt lat="59.9846045673" lon="15.8276224416">
        <ele>100</ele>
        <time>2013-04-25T21:29:05Z</time>
      </trkpt>
      <trkpt lat="59.9846046511" lon="15.82762504">
        <ele>100</ele>
        <time>2013-04-25T21:29:06Z</time>
      </trkpt>
      <trkpt lat="59.9845912401" lon="15.8276109584">
        <ele>98</ele>
        <time>2013-04-25T21:32:45Z</time>
      </trkpt>
      <trkpt lat="59.9845901504" lon="15.8276029117">
        <ele>98</ele>
        <time>2013-04-25T21:32:46Z</time>
      </trkpt>
      <trkpt lat="59.9845905695" lon="15.8276022412">
        <ele>98</ele>
        <time>2013-04-25T21:32:47Z</time>
      </trkpt>
      <trkpt lat="59.9845842831" lon="15.8275861479">
        <ele>98</ele>
        <time>2013-04-25T21:32:49Z</time>
      </trkpt>
      <trkpt lat="59.9845808465" lon="15.8275796939">
        <ele>98</ele>
        <time>2013-04-25T21:32:51Z</time>
      </trkpt>
      <trkpt lat="59.9845808465" lon="15.8275869861">
        <ele>98</ele>
        <time>2013-04-25T21:32:52Z</time>
      </trkpt>
      <trkpt lat="59.9845818523" lon="15.8275917638">
        <ele>98</ele>
        <time>2013-04-25T21:32:53Z</time>
      </trkpt>
      <trkpt lat="59.9845798407" lon="15.827584723">
        <ele>98</ele>
        <time>2013-04-25T21:32:54Z</time>
      </trkpt>
      <trkpt lat="59.9845768232" lon="15.8275815379">
        <ele>98</ele>
        <time>2013-04-25T21:32:55Z</time>
      </trkpt>
      <trkpt lat="59.9845734704" lon="15.8275798615">
        <ele>98</ele>
        <time>2013-04-25T21:32:56Z</time>
      </trkpt>
      <trkpt lat="59.9845693633" lon="15.8275788557">
        <ele>98</ele>
        <time>2013-04-25T21:32:57Z</time>
      </trkpt>
      <trkpt lat="59.9845675193" lon="15.8275741618">
        <ele>98</ele>
        <time>2013-04-25T21:33:00Z</time>
      </trkpt>
      <trkpt lat="59.9845612328" lon="15.8275746647">
        <ele>98</ele>
        <time>2013-04-25T21:33:01Z</time>
      </trkpt>
      <trkpt lat="59.9845605623" lon="15.8275732398">
        <ele>98</ele>
        <time>2013-04-25T21:33:02Z</time>
      </trkpt>
      <trkpt lat="59.9845441338" lon="15.8276419714">
        <ele>98</ele>
        <time>2013-04-25T21:33:03Z</time>
      </trkpt>
      <trkpt lat="59.9845513422" lon="15.8276442345">
        <ele>98</ele>
        <time>2013-04-25T21:33:04Z</time>
      </trkpt>
      <trkpt lat="59.9845509231" lon="15.8276440669">
        <ele>98</ele>
        <time>2013-04-25T21:33:05Z</time>
      </trkpt>
      <trkpt lat="59.9845528509" lon="15.8276444022">
        <ele>98</ele>
        <time>2013-04-25T21:33:06Z</time>
      </trkpt>
      <trkpt lat="59.9845493305" lon="15.827642139">
        <ele>98</ele>
        <time>2013-04-25T21:33:07Z</time>
      </trkpt>
      <trkpt lat="59.9845496658" lon="15.8276414685">
        <ele>98</ele>
        <time>2013-04-25T21:33:10Z</time>
      </trkpt>
      <trkpt lat="59.9845467322" lon="15.8276416361">
        <ele>98</ele>
        <time>2013-04-25T21:33:11Z</time>
      </trkpt>
      <trkpt lat="59.9845416192" lon="15.8276428096">
        <ele>98</ele>
        <time>2013-04-25T21:33:12Z</time>
      </trkpt>
      <trkpt lat="59.9845363386" lon="15.827645408">
        <ele>98</ele>
        <time>2013-04-25T21:33:13Z</time>
      </trkpt>
      <trkpt lat="59.9845409486" lon="15.8276478387">
        <ele>98</ele>
        <time>2013-04-25T21:33:14Z</time>
      </trkpt>
      <trkpt lat="59.9845461454" lon="15.8276625071">
        <ele>98</ele>
        <time>2013-04-25T21:33:17Z</time>
      </trkpt>
      <trkpt lat="59.984545894" lon="15.8276633453">
        <ele>98</ele>
        <time>2013-04-25T21:33:18Z</time>
      </trkpt>
      <trkpt lat="59.9845437147" lon="15.8276645187">
        <ele>98</ele>
        <time>2013-04-25T21:33:19Z</time>
      </trkpt>
      <trkpt lat="59.9845409486" lon="15.8276631776">
        <ele>98</ele>
        <time>2013-04-25T21:33:20Z</time>
      </trkpt>
      <trkpt lat="59.9845334049" lon="15.8276586514">
        <ele>98</ele>
        <time>2013-04-25T21:33:22Z</time>
      </trkpt>
      <trkpt lat="59.9845157191" lon="15.8276502695">
        <ele>98</ele>
        <time>2013-04-25T21:33:26Z</time>
      </trkpt>
      <trkpt lat="59.9845147133" lon="15.8276498504">
        <ele>98</ele>
        <time>2013-04-25T21:33:27Z</time>
      </trkpt>
      <trkpt lat="59.9845170602" lon="15.8276480902">
        <ele>98</ele>
        <time>2013-04-25T21:33:28Z</time>
      </trkpt>
      <trkpt lat="59.9845127016" lon="15.8276511915">
        <ele>98</ele>
        <time>2013-04-25T21:33:29Z</time>
      </trkpt>
      <trkpt lat="59.9845114443" lon="15.8276447374">
        <ele>98</ele>
        <time>2013-04-25T21:33:30Z</time>
      </trkpt>
      <trkpt lat="59.9846137874" lon="15.8277405426">
        <ele>98</ele>
        <time>2013-04-25T21:33:32Z</time>
      </trkpt>
      <trkpt lat="59.9846268632" lon="15.8277494274">
        <ele>98</ele>
        <time>2013-04-25T21:33:34Z</time>
      </trkpt>
      <trkpt lat="59.9846325628" lon="15.827753786">
        <ele>98</ele>
        <time>2013-04-25T21:33:35Z</time>
      </trkpt>
      <trkpt lat="59.9846240133" lon="15.8277505171">
        <ele>98</ele>
        <time>2013-04-25T21:33:37Z</time>
      </trkpt>
      <trkpt lat="59.9846205767" lon="15.8277500141">
        <ele>98</ele>
        <time>2013-04-25T21:33:38Z</time>
      </trkpt>
      <trkpt lat="59.9846191518" lon="15.8277514391">
        <ele>98</ele>
        <time>2013-04-25T21:33:41Z</time>
      </trkpt>
      <trkpt lat="59.9846228398" lon="15.8277558815">
        <ele>98</ele>
        <time>2013-04-25T21:33:42Z</time>
      </trkpt>
      <trkpt lat="59.9846439622" lon="15.8277562167">
        <ele>98</ele>
        <time>2013-04-25T21:33:43Z</time>
      </trkpt>
      <trkpt lat="59.9846530147" lon="15.827759821">
        <ele>98</ele>
        <time>2013-04-25T21:33:44Z</time>
      </trkpt>
      <trkpt lat="59.9846608937" lon="15.827762587">
        <ele>98</ele>
        <time>2013-04-25T21:33:45Z</time>
      </trkpt>
      <trkpt lat="59.9846653361" lon="15.8277676161">
        <ele>98</ele>
        <time>2013-04-25T21:33:46Z</time>
      </trkpt>
      <trkpt lat="59.9846613128" lon="15.827764431">
        <ele>98</ele>
        <time>2013-04-25T21:33:47Z</time>
      </trkpt>
      <trkpt lat="59.9846644141" lon="15.8277666103">
        <ele>98</ele>
        <time>2013-04-25T21:33:49Z</time>
      </trkpt>
      <trkpt lat="59.9846645817" lon="15.8277660236">
        <ele>97</ele>
        <time>2013-04-25T21:33:50Z</time>
      </trkpt>
      <trkpt lat="59.9846638273" lon="15.8277640119">
        <ele>97</ele>
        <time>2013-04-25T21:33:51Z</time>
      </trkpt>
      <trkpt lat="59.9846624862" lon="15.8277632575">
        <ele>97</ele>
        <time>2013-04-25T21:33:52Z</time>
      </trkpt>
      <trkpt lat="59.9846624862" lon="15.8277609944">
        <ele>97</ele>
        <time>2013-04-25T21:33:53Z</time>
      </trkpt>
      <trkpt lat="59.984663995" lon="15.827757474">
        <ele>97</ele>
        <time>2013-04-25T21:33:54Z</time>
      </trkpt>
      <trkpt lat="59.9846589658" lon="15.8277501818">
        <ele>97</ele>
        <time>2013-04-25T21:33:55Z</time>
      </trkpt>
      <trkpt lat="59.9846643303" lon="15.827744985">
        <ele>97</ele>
        <time>2013-04-25T21:33:56Z</time>
      </trkpt>
      <trkpt lat="59.9846794177" lon="15.827749176">
        <ele>97</ele>
        <time>2013-04-25T21:33:58Z</time>
      </trkpt>
      <trkpt lat="59.984702887" lon="15.8277444821">
        <ele>97</ele>
        <time>2013-04-25T21:34:01Z</time>
      </trkpt>
      <trkpt lat="59.9847069941" lon="15.8277443983">
        <ele>97</ele>
        <time>2013-04-25T21:34:02Z</time>
      </trkpt>
      <trkpt lat="59.984711688" lon="15.8277484216">
        <ele>97</ele>
        <time>2013-04-25T21:34:03Z</time>
      </trkpt>
      <trkpt lat="59.9847212434" lon="15.8277632575">
        <ele>97</ele>
        <time>2013-04-25T21:34:06Z</time>
      </trkpt>
      <trkpt lat="59.9847208243" lon="15.8277603239">
        <ele>97</ele>
        <time>2013-04-25T21:34:07Z</time>
      </trkpt>
      <trkpt lat="59.9847142026" lon="15.827748673">
        <ele>97</ele>
        <time>2013-04-25T21:34:10Z</time>
      </trkpt>
      <trkpt lat="59.9847121909" lon="15.8277433924">
        <ele>97</ele>
        <time>2013-04-25T21:34:11Z</time>
      </trkpt>
      <trkpt lat="59.9847095087" lon="15.8277339209">
        <ele>97</ele>
        <time>2013-04-25T21:34:19Z</time>
      </trkpt>
      <trkpt lat="59.9847121909" lon="15.8277350105">
        <ele>97</ele>
        <time>2013-04-25T21:34:22Z</time>
      </trkpt>
      <trkpt lat="59.9847129453" lon="15.8277353458">
        <ele>97</ele>
        <time>2013-04-25T21:34:23Z</time>
      </trkpt>
      <trkpt lat="59.984711688" lon="15.82773434">
        <ele>97</ele>
        <time>2013-04-25T21:34:24Z</time>
      </trkpt>
      <trkpt lat="59.9847148731" lon="15.8277369384">
        <ele>97</ele>
        <time>2013-04-25T21:34:25Z</time>
      </trkpt>
      <trkpt lat="59.984715376" lon="15.8277376089">
        <ele>97</ele>
        <time>2013-04-25T21:34:26Z</time>
      </trkpt>
      <trkpt lat="59.9847164657" lon="15.8277381118">
        <ele>97</ele>
        <time>2013-04-25T21:34:27Z</time>
      </trkpt>
      <trkpt lat="59.9847203214" lon="15.8277402073">
        <ele>97</ele>
        <time>2013-04-25T21:34:29Z</time>
      </trkpt>
      <trkpt lat="59.9847217463" lon="15.8277404588">
        <ele>97</ele>
        <time>2013-04-25T21:34:30Z</time>
      </trkpt>
      <trkpt lat="59.9847215787" lon="15.8277394529">
        <ele>97</ele>
        <time>2013-04-25T21:34:31Z</time>
      </trkpt>
      <trkpt lat="59.984724177" lon="15.8277407102">
        <ele>97</ele>
        <time>2013-04-25T21:34:32Z</time>
      </trkpt>
      <trkpt lat="59.9847247638" lon="15.827740794">
        <ele>97</ele>
        <time>2013-04-25T21:34:33Z</time>
      </trkpt>
      <trkpt lat="59.9847230874" lon="15.8277401235">
        <ele>97</ele>
        <time>2013-04-25T21:34:34Z</time>
      </trkpt>
      <trkpt lat="59.9847219978" lon="15.8277397882">
        <ele>97</ele>
        <time>2013-04-25T21:34:35Z</time>
      </trkpt>
      <trkpt lat="59.9847219139" lon="15.827739872">
        <ele>97</ele>
        <time>2013-04-25T21:34:36Z</time>
      </trkpt>
      <trkpt lat="59.9847227521" lon="15.8277415484">
        <ele>97</ele>
        <time>2013-04-25T21:34:38Z</time>
      </trkpt>
      <trkpt lat="59.984723758" lon="15.8277297299">
        <ele>97</ele>
        <time>2013-04-25T21:34:45Z</time>
      </trkpt>
      <trkpt lat="59.9847267754" lon="15.827731071">
        <ele>97</ele>
        <time>2013-04-25T21:34:46Z</time>
      </trkpt>
      <trkpt lat="59.9847270269" lon="15.8277353458">
        <ele>97</ele>
        <time>2013-04-25T21:34:47Z</time>
      </trkpt>
      <trkpt lat="59.984727446" lon="15.8277397882">
        <ele>97</ele>
        <time>2013-04-25T21:34:48Z</time>
      </trkpt>
      <trkpt lat="59.9847281165" lon="15.827741297">
        <ele>97</ele>
        <time>2013-04-25T21:34:49Z</time>
      </trkpt>
      <trkpt lat="59.9847279489" lon="15.8277362678">
        <ele>97</ele>
        <time>2013-04-25T21:34:50Z</time>
      </trkpt>
      <trkpt lat="59.9847278651" lon="15.8277337532">
        <ele>97</ele>
        <time>2013-04-25T21:34:51Z</time>
      </trkpt>
      <trkpt lat="59.9847278651" lon="15.8277322445">
        <ele>97</ele>
        <time>2013-04-25T21:34:52Z</time>
      </trkpt>
      <trkpt lat="59.9847279489" lon="15.8277298138">
        <ele>97</ele>
        <time>2013-04-25T21:34:53Z</time>
      </trkpt>
      <trkpt lat="59.9847282004" lon="15.8277295623">
        <ele>97</ele>
        <time>2013-04-25T21:34:54Z</time>
      </trkpt>
      <trkpt lat="59.9847282004" lon="15.8277309034">
        <ele>97</ele>
        <time>2013-04-25T21:34:55Z</time>
      </trkpt>
      <trkpt lat="59.9847282004" lon="15.8277328312">
        <ele>97</ele>
        <time>2013-04-25T21:34:56Z</time>
      </trkpt>
      <trkpt lat="59.9847282004" lon="15.8277268801">
        <ele>97</ele>
        <time>2013-04-25T21:34:57Z</time>
      </trkpt>
      <trkpt lat="59.9847257696" lon="15.8277241141">
        <ele>97</ele>
        <time>2013-04-25T21:34:58Z</time>
      </trkpt>
      <trkpt lat="59.9847255182" lon="15.8277262934">
        <ele>97</ele>
        <time>2013-04-25T21:34:59Z</time>
      </trkpt>
      <trkpt lat="59.9847260211" lon="15.8277296461">
        <ele>97</ele>
        <time>2013-04-25T21:35:00Z</time>
      </trkpt>
      <trkpt lat="59.9847260211" lon="15.8277321607">
        <ele>97</ele>
        <time>2013-04-25T21:35:01Z</time>
      </trkpt>
      <trkpt lat="59.9847261049" lon="15.8277338371">
        <ele>97</ele>
        <time>2013-04-25T21:35:02Z</time>
      </trkpt>
      <trkpt lat="59.984726524" lon="15.8277368546">
        <ele>97</ele>
        <time>2013-04-25T21:35:05Z</time>
      </trkpt>
      <trkpt lat="59.9847273622" lon="15.8277434763">
        <ele>97</ele>
        <time>2013-04-25T21:35:06Z</time>
      </trkpt>
      <trkpt lat="59.984727446" lon="15.827743141">
        <ele>97</ele>
        <time>2013-04-25T21:35:07Z</time>
      </trkpt>
      <trkpt lat="59.984727446" lon="15.8277428057">
        <ele>97</ele>
        <time>2013-04-25T21:35:09Z</time>
      </trkpt>
      <trkpt lat="59.9847272784" lon="15.8277396206">
        <ele>97</ele>
        <time>2013-04-25T21:35:10Z</time>
      </trkpt>
      <trkpt lat="59.9847268593" lon="15.8277357649">
        <ele>97</ele>
        <time>2013-04-25T21:35:11Z</time>
      </trkpt>
      <trkpt lat="59.9847268593" lon="15.8277330827">
        <ele>97</ele>
        <time>2013-04-25T21:35:12Z</time>
      </trkpt>
      <trkpt lat="59.9847273622" lon="15.8277356811">
        <ele>97</ele>
        <time>2013-04-25T21:35:13Z</time>
      </trkpt>
      <trkpt lat="59.9847279489" lon="15.8277376089">
        <ele>97</ele>
        <time>2013-04-25T21:35:16Z</time>
      </trkpt>
      <trkpt lat="59.9847289547" lon="15.8277410455">
        <ele>97</ele>
        <time>2013-04-25T21:35:17Z</time>
      </trkpt>
      <trkpt lat="59.9847285356" lon="15.827740794">
        <ele>96</ele>
        <time>2013-04-25T21:35:18Z</time>
      </trkpt>
      <trkpt lat="59.9847287871" lon="15.8277396206">
        <ele>96</ele>
        <time>2013-04-25T21:35:20Z</time>
      </trkpt>
      <trkpt lat="59.9847287871" lon="15.8277412131">
        <ele>95.8</ele>
        <time>2013-04-25T21:35:21Z</time>
      </trkpt>
      <trkpt lat="59.9847288709" lon="15.827740375">
        <ele>96</ele>
        <time>2013-04-25T21:35:22Z</time>
      </trkpt>
      <trkpt lat="59.9847319722" lon="15.8277369384">
        <ele>96</ele>
        <time>2013-04-25T21:35:28Z</time>
      </trkpt>
      <trkpt lat="59.9847318046" lon="15.8277375251">
        <ele>96</ele>
        <time>2013-04-25T21:35:29Z</time>
      </trkpt>
      <trkpt lat="59.9847323075" lon="15.8277381118">
        <ele>96</ele>
        <time>2013-04-25T21:35:30Z</time>
      </trkpt>
      <trkpt lat="59.984732559" lon="15.8277364355">
        <ele>96</ele>
        <time>2013-04-25T21:35:31Z</time>
      </trkpt>
      <trkpt lat="59.9847323913" lon="15.8277359325">
        <ele>96</ele>
        <time>2013-04-25T21:35:32Z</time>
      </trkpt>
      <trkpt lat="59.9847341515" lon="15.8277438115">
        <ele>96</ele>
        <time>2013-04-25T21:35:35Z</time>
      </trkpt>
      <trkpt lat="59.9847340677" lon="15.8277413808">
        <ele>96</ele>
        <time>2013-04-25T21:35:36Z</time>
      </trkpt>
      <trkpt lat="59.9847338162" lon="15.8277345076">
        <ele>96</ele>
        <time>2013-04-25T21:35:39Z</time>
      </trkpt>
      <trkpt lat="59.9847359955" lon="15.8277269639">
        <ele>95.8</ele>
        <time>2013-04-25T21:35:45Z</time>
      </trkpt>
      <trkpt lat="59.9847397674" lon="15.8277278859">
        <ele>96</ele>
        <time>2013-04-25T21:35:46Z</time>
      </trkpt>
      <trkpt lat="59.9845683575" lon="15.82765094">
        <ele>96</ele>
        <time>2013-04-25T21:35:47Z</time>
      </trkpt>
      <trkpt lat="59.9845711235" lon="15.8276193403">
        <ele>96</ele>
        <time>2013-04-25T21:35:49Z</time>
      </trkpt>
      <trkpt lat="59.984570872" lon="15.8276204299">
        <ele>96</ele>
        <time>2013-04-25T21:35:50Z</time>
      </trkpt>
      <trkpt lat="59.9845685251" lon="15.8276278898">
        <ele>96</ele>
        <time>2013-04-25T21:35:51Z</time>
      </trkpt>
      <trkpt lat="59.9845677707" lon="15.8276586514">
        <ele>96</ele>
        <time>2013-04-25T21:35:52Z</time>
      </trkpt>
      <trkpt lat="59.984570872" lon="15.8276670333">
        <ele>96</ele>
        <time>2013-04-25T21:35:56Z</time>
      </trkpt>
      <trkpt lat="59.9845719617" lon="15.8276788518">
        <ele>96</ele>
        <time>2013-04-25T21:35:57Z</time>
      </trkpt>
      <trkpt lat="59.9845679384" lon="15.8276856411">
        <ele>96</ele>
        <time>2013-04-25T21:35:58Z</time>
      </trkpt>
      <trkpt lat="59.9845686089" lon="15.827697292">
        <ele>96</ele>
        <time>2013-04-25T21:35:59Z</time>
      </trkpt>
      <trkpt lat="59.9845736381" lon="15.8277024888">
        <ele>96</ele>
        <time>2013-04-25T21:36:01Z</time>
      </trkpt>
      <trkpt lat="59.9845726322" lon="15.8276910055">
        <ele>96</ele>
        <time>2013-04-25T21:36:02Z</time>
      </trkpt>
      <trkpt lat="59.9845633283" lon="15.8276862279">
        <ele>96</ele>
        <time>2013-04-25T21:36:03Z</time>
      </trkpt>
      <trkpt lat="59.9845624901" lon="15.8276694641">
        <ele>96</ele>
        <time>2013-04-25T21:36:04Z</time>
      </trkpt>
      <trkpt lat="59.9845633283" lon="15.8276659437">
        <ele>96</ele>
        <time>2013-04-25T21:36:05Z</time>
      </trkpt>
      <trkpt lat="59.9845633283" lon="15.8276669495">
        <ele>96</ele>
        <time>2013-04-25T21:36:06Z</time>
      </trkpt>
      <trkpt lat="59.9845631607" lon="15.8276694641">
        <ele>96</ele>
        <time>2013-04-25T21:36:07Z</time>
      </trkpt>
      <trkpt lat="59.9845645856" lon="15.8276744932">
        <ele>96</ele>
        <time>2013-04-25T21:36:08Z</time>
      </trkpt>
      <trkpt lat="59.984564418" lon="15.827675499">
        <ele>96</ele>
        <time>2013-04-25T21:36:09Z</time>
      </trkpt>
      <trkpt lat="59.9845642503" lon="15.8276822045">
        <ele>96</ele>
        <time>2013-04-25T21:36:10Z</time>
      </trkpt>
      <trkpt lat="59.9845647532" lon="15.8276879042">
        <ele>96</ele>
        <time>2013-04-25T21:36:11Z</time>
      </trkpt>
      <trkpt lat="59.98456534" lon="15.8276879042">
        <ele>96</ele>
        <time>2013-04-25T21:36:12Z</time>
      </trkpt>
      <trkpt lat="59.9845687766" lon="15.8276832104">
        <ele>96</ele>
        <time>2013-04-25T21:36:13Z</time>
      </trkpt>
      <trkpt lat="59.9845702015" lon="15.8276754152">
        <ele>96</ele>
        <time>2013-04-25T21:36:14Z</time>
      </trkpt>
      <trkpt lat="59.9845696986" lon="15.8276723139">
        <ele>96</ele>
        <time>2013-04-25T21:36:15Z</time>
      </trkpt>
      <trkpt lat="59.9845676031" lon="15.827675499">
        <ele>96</ele>
        <time>2013-04-25T21:36:16Z</time>
      </trkpt>
      <trkpt lat="59.9845666811" lon="15.8276848868">
        <ele>96</ele>
        <time>2013-04-25T21:36:17Z</time>
      </trkpt>
      <trkpt lat="59.984564418" lon="15.8276729845">
        <ele>95.8</ele>
        <time>2013-04-25T21:36:22Z</time>
      </trkpt>
      <trkpt lat="59.9845636636" lon="15.827671811">
        <ele>96</ele>
        <time>2013-04-25T21:36:23Z</time>
      </trkpt>
      <trkpt lat="59.9845641665" lon="15.8276700508">
        <ele>96</ele>
        <time>2013-04-25T21:36:24Z</time>
      </trkpt>
      <trkpt lat="59.9845636636" lon="15.8276647702">
        <ele>96</ele>
        <time>2013-04-25T21:36:25Z</time>
      </trkpt>
      <trkpt lat="59.984564418" lon="15.8276678715">
        <ele>96</ele>
        <time>2013-04-25T21:36:26Z</time>
      </trkpt>
      <trkpt lat="59.9845647532" lon="15.8276656084">
        <ele>96</ele>
        <time>2013-04-25T21:36:27Z</time>
      </trkpt>
      <trkpt lat="59.9845654238" lon="15.8276688773">
        <ele>96</ele>
        <time>2013-04-25T21:36:29Z</time>
      </trkpt>
      <trkpt lat="59.9845659267" lon="15.8276791032">
        <ele>96</ele>
        <time>2013-04-25T21:36:30Z</time>
      </trkpt>
      <trkpt lat="59.9845649209" lon="15.827690335">
        <ele>95.8</ele>
        <time>2013-04-25T21:36:31Z</time>
      </trkpt>
      <trkpt lat="59.9845643342" lon="15.8276999742">
        <ele>96</ele>
        <time>2013-04-25T21:36:32Z</time>
      </trkpt>
      <trkpt lat="59.9845633283" lon="15.8277039975">
        <ele>95.8</ele>
        <time>2013-04-25T21:36:33Z</time>
      </trkpt>
      <trkpt lat="59.9845626578" lon="15.8277055062">
        <ele>95.8</ele>
        <time>2013-04-25T21:36:34Z</time>
      </trkpt>
      <trkpt lat="59.9845626578" lon="15.8277124632">
        <ele>96</ele>
        <time>2013-04-25T21:36:35Z</time>
      </trkpt>
      <trkpt lat="59.984563496" lon="15.8277275506">
        <ele>95.8</ele>
        <time>2013-04-25T21:36:37Z</time>
      </trkpt>
      <trkpt lat="59.9845637474" lon="15.8277356811">
        <ele>96</ele>
        <time>2013-04-25T21:36:38Z</time>
      </trkpt>
      <trkpt lat="59.984564418" lon="15.8277378604">
        <ele>96</ele>
        <time>2013-04-25T21:36:39Z</time>
      </trkpt>
      <trkpt lat="59.9845636636" lon="15.8277328312">
        <ele>95.8</ele>
        <time>2013-04-25T21:36:40Z</time>
      </trkpt>
      <trkpt lat="59.9845641665" lon="15.8277306519">
        <ele>96</ele>
        <time>2013-04-25T21:36:41Z</time>
      </trkpt>
      <trkpt lat="59.9845655914" lon="15.8277490921">
        <ele>96</ele>
        <time>2013-04-25T21:36:48Z</time>
      </trkpt>
      <trkpt lat="59.9845655076" lon="15.8277485054">
        <ele>96</ele>
        <time>2013-04-25T21:36:49Z</time>
      </trkpt>
      <trkpt lat="59.9845652562" lon="15.8277444821">
        <ele>96</ele>
        <time>2013-04-25T21:36:51Z</time>
      </trkpt>
      <trkpt lat="59.9845655914" lon="15.8277405426">
        <ele>96</ele>
        <time>2013-04-25T21:36:52Z</time>
      </trkpt>
      <trkpt lat="59.9845648371" lon="15.8277396206">
        <ele>96</ele>
        <time>2013-04-25T21:36:53Z</time>
      </trkpt>
      <trkpt lat="59.9845656753" lon="15.8277473319">
        <ele>96</ele>
        <time>2013-04-25T21:36:56Z</time>
      </trkpt>
      <trkpt lat="59.9845665973" lon="15.8277502656">
        <ele>96</ele>
        <time>2013-04-25T21:36:57Z</time>
      </trkpt>
      <trkpt lat="59.9845672678" lon="15.8277566358">
        <ele>96</ele>
        <time>2013-04-25T21:36:58Z</time>
      </trkpt>
      <trkpt lat="59.9845676869" lon="15.8277573064">
        <ele>96</ele>
        <time>2013-04-25T21:36:59Z</time>
      </trkpt>
      <trkpt lat="59.9845665134" lon="15.8277215995">
        <ele>95.8</ele>
        <time>2013-04-25T21:37:06Z</time>
      </trkpt>
      <trkpt lat="59.9845667649" lon="15.827718582">
        <ele>96</ele>
        <time>2013-04-25T21:37:07Z</time>
      </trkpt>
      <trkpt lat="59.9845666811" lon="15.8277143911">
        <ele>96</ele>
        <time>2013-04-25T21:37:08Z</time>
      </trkpt>
      <trkpt lat="59.9845665973" lon="15.827708859">
        <ele>96</ele>
        <time>2013-04-25T21:37:09Z</time>
      </trkpt>
      <trkpt lat="59.9845667649" lon="15.8277068473">
        <ele>96</ele>
        <time>2013-04-25T21:37:10Z</time>
      </trkpt>
      <trkpt lat="59.9845673516" lon="15.8277105354">
        <ele>96</ele>
        <time>2013-04-25T21:37:11Z</time>
      </trkpt>
      <trkpt lat="59.9845679384" lon="15.8277132176">
        <ele>94.8</ele>
        <time>2013-04-25T21:37:12Z</time>
      </trkpt>
      <trkpt lat="59.9845684413" lon="15.8277173247">
        <ele>94.8</ele>
        <time>2013-04-25T21:37:13Z</time>
      </trkpt>
      <trkpt lat="59.9845684413" lon="15.8277180791">
        <ele>94.8</ele>
        <time>2013-04-25T21:37:14Z</time>
      </trkpt>
      <trkpt lat="59.9845691118" lon="15.8277197555">
        <ele>94.8</ele>
        <time>2013-04-25T21:37:15Z</time>
      </trkpt>
      <trkpt lat="59.9845698662" lon="15.8277220186">
        <ele>94.8</ele>
        <time>2013-04-25T21:37:16Z</time>
      </trkpt>
      <trkpt lat="59.984571375" lon="15.8277288079">
        <ele>94.8</ele>
        <time>2013-04-25T21:37:17Z</time>
      </trkpt>
      <trkpt lat="59.9845742248" lon="15.8277596533">
        <ele>94.8</ele>
        <time>2013-04-25T21:37:21Z</time>
      </trkpt>
      <trkpt lat="59.9845744763" lon="15.827763509">
        <ele>94.8</ele>
        <time>2013-04-25T21:37:22Z</time>
      </trkpt>
      <trkpt lat="59.9845749792" lon="15.8277661912">
        <ele>94.8</ele>
        <time>2013-04-25T21:37:23Z</time>
      </trkpt>
      <trkpt lat="59.9845753144" lon="15.8277663589">
        <ele>94.8</ele>
        <time>2013-04-25T21:37:24Z</time>
      </trkpt>
      <trkpt lat="59.9845752306" lon="15.8277659398">
        <ele>94.8</ele>
        <time>2013-04-25T21:37:25Z</time>
      </trkpt>
      <trkpt lat="59.9845755659" lon="15.8277615812">
        <ele>94.8</ele>
        <time>2013-04-25T21:37:26Z</time>
      </trkpt>
      <trkpt lat="59.9845752306" lon="15.8277563006">
        <ele>94.8</ele>
        <time>2013-04-25T21:37:27Z</time>
      </trkpt>
      <trkpt lat="59.9845748115" lon="15.827736184">
        <ele>94.8</ele>
        <time>2013-04-25T21:37:31Z</time>
      </trkpt>
      <trkpt lat="59.9845740572" lon="15.8277240302">
        <ele>94.8</ele>
        <time>2013-04-25T21:37:32Z</time>
      </trkpt>
      <trkpt lat="59.9845729675" lon="15.8277052548">
        <ele>94.8</ele>
        <time>2013-04-25T21:37:34Z</time>
      </trkpt>
      <trkpt lat="59.9845733028" lon="15.827704668">
        <ele>94.8</ele>
        <time>2013-04-25T21:37:35Z</time>
      </trkpt>
      <trkpt lat="59.9845601432" lon="15.8276264649">
        <ele>94.8</ele>
        <time>2013-04-25T21:37:38Z</time>
      </trkpt>
      <trkpt lat="59.9845572095" lon="15.8275930211">
        <ele>94.8</ele>
        <time>2013-04-25T21:37:40Z</time>
      </trkpt>
      <trkpt lat="59.9845553655" lon="15.8275749162">
        <ele>94.8</ele>
        <time>2013-04-25T21:37:45Z</time>
      </trkpt>
      <trkpt lat="59.9845557846" lon="15.8275760058">
        <ele>94.8</ele>
        <time>2013-04-25T21:37:46Z</time>
      </trkpt>
      <trkpt lat="59.9845562037" lon="15.8275781851">
        <ele>94.8</ele>
        <time>2013-04-25T21:37:47Z</time>
      </trkpt>
      <trkpt lat="59.9845560361" lon="15.8275857288">
        <ele>94.8</ele>
        <time>2013-04-25T21:37:49Z</time>
      </trkpt>
      <trkpt lat="59.9845562875" lon="15.8275753353">
        <ele>94.8</ele>
        <time>2013-04-25T21:37:52Z</time>
      </trkpt>
      <trkpt lat="59.9845567904" lon="15.8275799453">
        <ele>94.8</ele>
        <time>2013-04-25T21:37:53Z</time>
      </trkpt>
      <trkpt lat="59.9845570419" lon="15.8275785204">
        <ele>94.8</ele>
        <time>2013-04-25T21:37:56Z</time>
      </trkpt>
      <trkpt lat="59.9845569581" lon="15.8275741618">
        <ele>94.8</ele>
        <time>2013-04-25T21:37:57Z</time>
      </trkpt>
      <trkpt lat="59.9845566228" lon="15.8275655285">
        <ele>94.8</ele>
        <time>2013-04-25T21:37:58Z</time>
      </trkpt>
      <trkpt lat="59.9845566228" lon="15.8275588229">
        <ele>94.8</ele>
        <time>2013-04-25T21:37:59Z</time>
      </trkpt>
      <trkpt lat="59.9845563713" lon="15.8275516983">
        <ele>94.8</ele>
        <time>2013-04-25T21:38:00Z</time>
      </trkpt>
      <trkpt lat="59.9845568743" lon="15.8275486808">
        <ele>94.8</ele>
        <time>2013-04-25T21:38:04Z</time>
      </trkpt>
      <trkpt lat="59.9845567066" lon="15.8275454119">
        <ele>94.8</ele>
        <time>2013-04-25T21:38:05Z</time>
      </trkpt>
      <trkpt lat="59.9845571257" lon="15.8275456633">
        <ele>94.8</ele>
        <time>2013-04-25T21:38:07Z</time>
      </trkpt>
      <trkpt lat="59.9845573772" lon="15.8275330067">
        <ele>94.8</ele>
        <time>2013-04-25T21:38:10Z</time>
      </trkpt>
      <trkpt lat="59.9845573772" lon="15.827529151">
        <ele>94.8</ele>
        <time>2013-04-25T21:38:11Z</time>
      </trkpt>
      <trkpt lat="59.9845572095" lon="15.8275268879">
        <ele>94.8</ele>
        <time>2013-04-25T21:38:12Z</time>
      </trkpt>
      <trkpt lat="59.9845582992" lon="15.8275236189">
        <ele>94.8</ele>
        <time>2013-04-25T21:38:15Z</time>
      </trkpt>
      <trkpt lat="59.9845584668" lon="15.8275168296">
        <ele>94.8</ele>
        <time>2013-04-25T21:38:16Z</time>
      </trkpt>
      <trkpt lat="59.9845578801" lon="15.8275168296">
        <ele>94.8</ele>
        <time>2013-04-25T21:38:17Z</time>
      </trkpt>
      <trkpt lat="59.9845590536" lon="15.8275227807">
        <ele>94.8</ele>
        <time>2013-04-25T21:38:18Z</time>
      </trkpt>
      <trkpt lat="59.9845595565" lon="15.8275253791">
        <ele>94.8</ele>
        <time>2013-04-25T21:38:21Z</time>
      </trkpt>
      <trkpt lat="59.9845629092" lon="15.8275293186">
        <ele>94.8</ele>
        <time>2013-04-25T21:38:22Z</time>
      </trkpt>
      <trkpt lat="59.984562993" lon="15.8275272232">
        <ele>94.8</ele>
        <time>2013-04-25T21:38:23Z</time>
      </trkpt>
      <trkpt lat="59.9845637474" lon="15.8275318332">
        <ele>94.8</ele>
        <time>2013-04-25T21:38:26Z</time>
      </trkpt>
      <trkpt lat="59.9845691957" lon="15.8275344316">
        <ele>94.8</ele>
        <time>2013-04-25T21:38:27Z</time>
      </trkpt>
      <trkpt lat="59.9845744763" lon="15.8275335096">
        <ele>94.8</ele>
        <time>2013-04-25T21:38:28Z</time>
      </trkpt>
      <trkpt lat="59.9845752306" lon="15.8275287319">
        <ele>94.8</ele>
        <time>2013-04-25T21:38:29Z</time>
      </trkpt>
      <trkpt lat="59.9845772423" lon="15.8275363594">
        <ele>94.8</ele>
        <time>2013-04-25T21:38:31Z</time>
      </trkpt>
      <trkpt lat="59.9845765717" lon="15.8275335096">
        <ele>94.8</ele>
        <time>2013-04-25T21:38:32Z</time>
      </trkpt>
      <trkpt lat="59.9845726322" lon="15.8275272232">
        <ele>94.8</ele>
        <time>2013-04-25T21:38:34Z</time>
      </trkpt>
      <trkpt lat="59.9845745601" lon="15.8275290672">
        <ele>94.8</ele>
        <time>2013-04-25T21:38:35Z</time>
      </trkpt>
      <trkpt lat="59.9845740572" lon="15.8275325876">
        <ele>95</ele>
        <time>2013-04-25T21:38:36Z</time>
      </trkpt>
      <trkpt lat="59.9845707882" lon="15.8275357727">
        <ele>94.8</ele>
        <time>2013-04-25T21:38:37Z</time>
      </trkpt>
      <trkpt lat="59.9845676869" lon="15.8275363594">
        <ele>94.8</ele>
        <time>2013-04-25T21:38:38Z</time>
      </trkpt>
      <trkpt lat="59.9845650047" lon="15.8275340963">
        <ele>94.8</ele>
        <time>2013-04-25T21:38:40Z</time>
      </trkpt>
      <trkpt lat="59.9845678546" lon="15.8275428135">
        <ele>93.8</ele>
        <time>2013-04-25T21:38:41Z</time>
      </trkpt>
      <trkpt lat="59.9845673516" lon="15.8275404666">
        <ele>93.8</ele>
        <time>2013-04-25T21:38:42Z</time>
      </trkpt>
      <trkpt lat="59.9845652562" lon="15.8275362756">
        <ele>93.8</ele>
        <time>2013-04-25T21:38:43Z</time>
      </trkpt>
      <trkpt lat="59.9845679384" lon="15.8275401313">
        <ele>93.8</ele>
        <time>2013-04-25T21:38:45Z</time>
      </trkpt>
      <trkpt lat="59.9845674355" lon="15.8275364432">
        <ele>93.8</ele>
        <time>2013-04-25T21:38:46Z</time>
      </trkpt>
      <trkpt lat="59.9845666811" lon="15.8275299054">
        <ele>93.8</ele>
        <time>2013-04-25T21:38:50Z</time>
      </trkpt>
      <trkpt lat="59.9845655076" lon="15.8275279775">
        <ele>93.8</ele>
        <time>2013-04-25T21:38:51Z</time>
      </trkpt>
      <trkpt lat="59.984566262" lon="15.8275257144">
        <ele>93.8</ele>
        <time>2013-04-25T21:38:52Z</time>
      </trkpt>
      <trkpt lat="59.9845695309" lon="15.8275251277">
        <ele>93.8</ele>
        <time>2013-04-25T21:38:56Z</time>
      </trkpt>
      <trkpt lat="59.9845693633" lon="15.8275241219">
        <ele>93.8</ele>
        <time>2013-04-25T21:38:57Z</time>
      </trkpt>
      <trkpt lat="59.9845660105" lon="15.8275228646">
        <ele>93.8</ele>
        <time>2013-04-25T21:38:58Z</time>
      </trkpt>
      <trkpt lat="59.9845676869" lon="15.8275206015">
        <ele>93.8</ele>
        <time>2013-04-25T21:38:59Z</time>
      </trkpt>
      <trkpt lat="59.9845624063" lon="15.8275032509">
        <ele>93.8</ele>
        <time>2013-04-25T21:39:04Z</time>
      </trkpt>
      <trkpt lat="59.9845619872" lon="15.8275040053">
        <ele>93.8</ele>
        <time>2013-04-25T21:39:05Z</time>
      </trkpt>
      <trkpt lat="59.9845572934" lon="15.8275005687">
        <ele>93.8</ele>
        <time>2013-04-25T21:39:06Z</time>
      </trkpt>
      <trkpt lat="59.9845151324" lon="15.8275677916">
        <ele>93.8</ele>
        <time>2013-04-25T21:39:07Z</time>
      </trkpt>
      <trkpt lat="59.9845209159" lon="15.8275723178">
        <ele>93.8</ele>
        <time>2013-04-25T21:39:08Z</time>
      </trkpt>
      <trkpt lat="59.9845277891" lon="15.8275805321">
        <ele>93.8</ele>
        <time>2013-04-25T21:39:11Z</time>
      </trkpt>
      <trkpt lat="59.984532902" lon="15.8275840525">
        <ele>93.8</ele>
        <time>2013-04-25T21:39:12Z</time>
      </trkpt>
      <trkpt lat="59.9845291302" lon="15.8275813702">
        <ele>93.8</ele>
        <time>2013-04-25T21:39:13Z</time>
      </trkpt>
      <trkpt lat="59.9844940938" lon="15.8275657799">
        <ele>93.8</ele>
        <time>2013-04-25T21:39:14Z</time>
      </trkpt>
      <trkpt lat="59.9844686128" lon="15.8275499381">
        <ele>93.8</ele>
        <time>2013-04-25T21:39:15Z</time>
      </trkpt>
      <trkpt lat="59.9844411202" lon="15.8275308274">
        <ele>93.8</ele>
        <time>2013-04-25T21:39:16Z</time>
      </trkpt>
      <trkpt lat="59.9844006356" lon="15.8275169134">
        <ele>93.8</ele>
        <time>2013-04-25T21:39:19Z</time>
      </trkpt>
      <trkpt lat="59.9844250269" lon="15.8275383711">
        <ele>93.8</ele>
        <time>2013-04-25T21:39:22Z</time>
      </trkpt>
      <trkpt lat="59.984450927" lon="15.8275443222">
        <ele>93.8</ele>
        <time>2013-04-25T21:39:23Z</time>
      </trkpt>
      <trkpt lat="59.9844588898" lon="15.827545831">
        <ele>93.8</ele>
        <time>2013-04-25T21:39:24Z</time>
      </trkpt>
      <trkpt lat="59.9844645895" lon="15.8275360242">
        <ele>93.8</ele>
        <time>2013-04-25T21:39:26Z</time>
      </trkpt>
      <trkpt lat="59.9844638351" lon="15.8275365271">
        <ele>93.8</ele>
        <time>2013-04-25T21:39:27Z</time>
      </trkpt>
      <trkpt lat="59.9844680261" lon="15.8275454119">
        <ele>93.8</ele>
        <time>2013-04-25T21:39:29Z</time>
      </trkpt>
      <trkpt lat="59.9845285434" lon="15.8275931887">
        <ele>93.8</ele>
        <time>2013-04-25T21:39:30Z</time>
      </trkpt>
      <trkpt lat="59.9845334049" lon="15.8276084438">
        <ele>93.8</ele>
        <time>2013-04-25T21:39:31Z</time>
      </trkpt>
      <trkpt lat="59.9845418707" lon="15.8276251238">
        <ele>93.8</ele>
        <time>2013-04-25T21:39:32Z</time>
      </trkpt>
      <trkpt lat="59.9845430441" lon="15.8276311588">
        <ele>93.8</ele>
        <time>2013-04-25T21:39:33Z</time>
      </trkpt>
      <trkpt lat="59.9845458101" lon="15.827633841">
        <ele>93.8</ele>
        <time>2013-04-25T21:39:34Z</time>
      </trkpt>
      <trkpt lat="59.9845470674" lon="15.8276298176">
        <ele>93.8</ele>
        <time>2013-04-25T21:39:35Z</time>
      </trkpt>
      <trkpt lat="59.9845458101" lon="15.827628728">
        <ele>93.8</ele>
        <time>2013-04-25T21:39:36Z</time>
      </trkpt>
      <trkpt lat="59.9845443852" lon="15.8276235312">
        <ele>93.8</ele>
        <time>2013-04-25T21:39:37Z</time>
      </trkpt>
      <trkpt lat="59.9845437147" lon="15.8276188374">
        <ele>93.8</ele>
        <time>2013-04-25T21:39:38Z</time>
      </trkpt>
      <trkpt lat="59.9845490791" lon="15.8276293147">
        <ele>93.8</ele>
        <time>2013-04-25T21:39:40Z</time>
      </trkpt>
      <trkpt lat="59.9845508393" lon="15.8276309073">
        <ele>93.8</ele>
        <time>2013-04-25T21:39:41Z</time>
      </trkpt>
      <trkpt lat="59.9845509231" lon="15.8276348468">
        <ele>93.8</ele>
        <time>2013-04-25T21:39:42Z</time>
      </trkpt>
      <trkpt lat="59.9845494144" lon="15.8276361041">
        <ele>93.8</ele>
        <time>2013-04-25T21:39:43Z</time>
      </trkpt>
      <trkpt lat="59.9845490791" lon="15.8276416361">
        <ele>93.8</ele>
        <time>2013-04-25T21:39:45Z</time>
      </trkpt>
      <trkpt lat="59.984547738" lon="15.8276342601">
        <ele>93.8</ele>
        <time>2013-04-25T21:39:46Z</time>
      </trkpt>
      <trkpt lat="59.9845459778" lon="15.8276283089">
        <ele>93.8</ele>
        <time>2013-04-25T21:39:47Z</time>
      </trkpt>
      <trkpt lat="59.9845447205" lon="15.8276216872">
        <ele>93.8</ele>
        <time>2013-04-25T21:39:48Z</time>
      </trkpt>
      <trkpt lat="59.9845446367" lon="15.8276148979">
        <ele>93.8</ele>
        <time>2013-04-25T21:39:49Z</time>
      </trkpt>
      <trkpt lat="59.9845434632" lon="15.8276163228">
        <ele>93.8</ele>
        <time>2013-04-25T21:39:50Z</time>
      </trkpt>
      <trkpt lat="59.9845438823" lon="15.8276169933">
        <ele>93.8</ele>
        <time>2013-04-25T21:39:51Z</time>
      </trkpt>
      <trkpt lat="59.9845441338" lon="15.8276144788">
        <ele>93.8</ele>
        <time>2013-04-25T21:39:52Z</time>
      </trkpt>
      <trkpt lat="59.9845438823" lon="15.8276144788">
        <ele>93.8</ele>
        <time>2013-04-25T21:39:53Z</time>
      </trkpt>
      <trkpt lat="59.9845403619" lon="15.8276095334">
        <ele>93.8</ele>
        <time>2013-04-25T21:39:54Z</time>
      </trkpt>
      <trkpt lat="59.9845418707" lon="15.827604169">
        <ele>92.8</ele>
        <time>2013-04-25T21:39:58Z</time>
      </trkpt>
      <trkpt lat="59.9845416192" lon="15.8276070189">
        <ele>92.8</ele>
        <time>2013-04-25T21:39:59Z</time>
      </trkpt>
      <trkpt lat="59.9845381826" lon="15.8275737427">
        <ele>92.8</ele>
        <time>2013-04-25T21:40:04Z</time>
      </trkpt>
      <trkpt lat="59.9845374282" lon="15.827573156">
        <ele>92.8</ele>
        <time>2013-04-25T21:40:05Z</time>
      </trkpt>
      <trkpt lat="59.9845362548" lon="15.8275694679">
        <ele>92.8</ele>
        <time>2013-04-25T21:40:06Z</time>
      </trkpt>
      <trkpt lat="59.9845349137" lon="15.8275627624">
        <ele>92.8</ele>
        <time>2013-04-25T21:40:07Z</time>
      </trkpt>
      <trkpt lat="59.9845360033" lon="15.8275606669">
        <ele>92.8</ele>
        <time>2013-04-25T21:40:08Z</time>
      </trkpt>
      <trkpt lat="59.9845375959" lon="15.8275587391">
        <ele>92.8</ele>
        <time>2013-04-25T21:40:12Z</time>
      </trkpt>
      <trkpt lat="59.9845390208" lon="15.8275664505">
        <ele>92.8</ele>
        <time>2013-04-25T21:40:13Z</time>
      </trkpt>
      <trkpt lat="59.9845416192" lon="15.8275700547">
        <ele>92.8</ele>
        <time>2013-04-25T21:40:14Z</time>
      </trkpt>
      <trkpt lat="59.9845424574" lon="15.8275718149">
        <ele>92.8</ele>
        <time>2013-04-25T21:40:16Z</time>
      </trkpt>
      <trkpt lat="59.9845427088" lon="15.8275697194">
        <ele>92.8</ele>
        <time>2013-04-25T21:40:17Z</time>
      </trkpt>
      <trkpt lat="59.9845414516" lon="15.8275609184">
        <ele>92.8</ele>
        <time>2013-04-25T21:40:21Z</time>
      </trkpt>
      <trkpt lat="59.9845414516" lon="15.8275544643">
        <ele>92.8</ele>
        <time>2013-04-25T21:40:22Z</time>
      </trkpt>
      <trkpt lat="59.9845348299" lon="15.8275608346">
        <ele>92.8</ele>
        <time>2013-04-25T21:40:23Z</time>
      </trkpt>
      <trkpt lat="59.9845221732" lon="15.8275548834">
        <ele>92.8</ele>
        <time>2013-04-25T21:40:24Z</time>
      </trkpt>
      <trkpt lat="59.9845193233" lon="15.8275579847">
        <ele>92.8</ele>
        <time>2013-04-25T21:40:25Z</time>
      </trkpt>
      <trkpt lat="59.9845223408" lon="15.8275647741">
        <ele>92.8</ele>
        <time>2013-04-25T21:40:26Z</time>
      </trkpt>
      <trkpt lat="59.9845242687" lon="15.8275755867">
        <ele>92.8</ele>
        <time>2013-04-25T21:40:27Z</time>
      </trkpt>
      <trkpt lat="59.9845247716" lon="15.8275860641">
        <ele>92.8</ele>
        <time>2013-04-25T21:40:28Z</time>
      </trkpt>
      <trkpt lat="59.9845220055" lon="15.8275959548">
        <ele>92.8</ele>
        <time>2013-04-25T21:40:29Z</time>
      </trkpt>
      <trkpt lat="59.9845198262" lon="15.8275992237">
        <ele>92.8</ele>
        <time>2013-04-25T21:40:30Z</time>
      </trkpt>
      <trkpt lat="59.9845215864" lon="15.8275978826">
        <ele>92.8</ele>
        <time>2013-04-25T21:40:31Z</time>
      </trkpt>
      <trkpt lat="59.9845202453" lon="15.8275922667">
        <ele>92.8</ele>
        <time>2013-04-25T21:40:32Z</time>
      </trkpt>
      <trkpt lat="59.9845249392" lon="15.8275929373">
        <ele>92.8</ele>
        <time>2013-04-25T21:40:33Z</time>
      </trkpt>
      <trkpt lat="59.9845275376" lon="15.8275969606">
        <ele>92.8</ele>
        <time>2013-04-25T21:40:34Z</time>
      </trkpt>
      <trkpt lat="59.984522257" lon="15.8275913447">
        <ele>92.8</ele>
        <time>2013-04-25T21:40:35Z</time>
      </trkpt>
      <trkpt lat="59.984517647" lon="15.8275850583">
        <ele>92.8</ele>
        <time>2013-04-25T21:40:36Z</time>
      </trkpt>
      <trkpt lat="59.9845158029" lon="15.8275803644">
        <ele>92.8</ele>
        <time>2013-04-25T21:40:37Z</time>
      </trkpt>
      <trkpt lat="59.9845188204" lon="15.8275767602">
        <ele>92.8</ele>
        <time>2013-04-25T21:40:38Z</time>
      </trkpt>
      <trkpt lat="59.9845146295" lon="15.8275795262">
        <ele>92.8</ele>
        <time>2013-04-25T21:40:40Z</time>
      </trkpt>
      <trkpt lat="59.9845111929" lon="15.8275729045">
        <ele>92.8</ele>
        <time>2013-04-25T21:40:41Z</time>
      </trkpt>
      <trkpt lat="59.9845158029" lon="15.8275767602">
        <ele>92.8</ele>
        <time>2013-04-25T21:40:42Z</time>
      </trkpt>
      <trkpt lat="59.984511612" lon="15.8275770955">
        <ele>92.8</ele>
        <time>2013-04-25T21:40:43Z</time>
      </trkpt>
      <trkpt lat="59.9844654277" lon="15.8275397122">
        <ele>92.8</ele>
        <time>2013-04-25T21:40:46Z</time>
      </trkpt>
      <trkpt lat="59.984445814" lon="15.8275304921">
        <ele>92.8</ele>
        <time>2013-04-25T21:40:47Z</time>
      </trkpt>
      <trkpt lat="59.9844242726" lon="15.8275140636">
        <ele>92.8</ele>
        <time>2013-04-25T21:40:48Z</time>
      </trkpt>
      <trkpt lat="59.9844079278" lon="15.827505514">
        <ele>92.8</ele>
        <time>2013-04-25T21:40:49Z</time>
      </trkpt>
      <trkpt lat="59.9844256137" lon="15.827524038">
        <ele>92.8</ele>
        <time>2013-04-25T21:40:50Z</time>
      </trkpt>
      <trkpt lat="59.9844180699" lon="15.8275237028">
        <ele>92.8</ele>
        <time>2013-04-25T21:40:51Z</time>
      </trkpt>
      <trkpt lat="59.9844214227" lon="15.8275250439">
        <ele>92.8</ele>
        <time>2013-04-25T21:40:52Z</time>
      </trkpt>
      <trkpt lat="59.9844222609" lon="15.8275259659">
        <ele>92.8</ele>
        <time>2013-04-25T21:40:53Z</time>
      </trkpt>
      <trkpt lat="59.9844227638" lon="15.8275158238">
        <ele>92.8</ele>
        <time>2013-04-25T21:40:55Z</time>
      </trkpt>
      <trkpt lat="59.9844209198" lon="15.8275148179">
        <ele>92.8</ele>
        <time>2013-04-25T21:40:56Z</time>
      </trkpt>
      <trkpt lat="59.984419411" lon="15.8275092859">
        <ele>92.8</ele>
        <time>2013-04-25T21:41:00Z</time>
      </trkpt>
      <trkpt lat="59.9844214227" lon="15.8275061846">
        <ele>92.8</ele>
        <time>2013-04-25T21:41:04Z</time>
      </trkpt>
      <trkpt lat="59.9844211712" lon="15.827507861">
        <ele>92.8</ele>
        <time>2013-04-25T21:41:05Z</time>
      </trkpt>
      <trkpt lat="59.9844215065" lon="15.8275080286">
        <ele>92.8</ele>
        <time>2013-04-25T21:41:06Z</time>
      </trkpt>
      <trkpt lat="59.9844214227" lon="15.8275076095">
        <ele>92.8</ele>
        <time>2013-04-25T21:41:07Z</time>
      </trkpt>
      <trkpt lat="59.9844215903" lon="15.8275019936">
        <ele>92.8</ele>
        <time>2013-04-25T21:41:09Z</time>
      </trkpt>
      <trkpt lat="59.9844220094" lon="15.827507861">
        <ele>92.8</ele>
        <time>2013-04-25T21:41:10Z</time>
      </trkpt>
      <trkpt lat="59.9844220933" lon="15.8275093697">
        <ele>92.8</ele>
        <time>2013-04-25T21:41:11Z</time>
      </trkpt>
      <trkpt lat="59.9844225962" lon="15.8275065199">
        <ele>92.8</ele>
        <time>2013-04-25T21:41:13Z</time>
      </trkpt>
      <trkpt lat="59.9844222609" lon="15.8275082801">
        <ele>92.8</ele>
        <time>2013-04-25T21:41:14Z</time>
      </trkpt>
      <trkpt lat="59.9844231829" lon="15.8275178354">
        <ele>92.8</ele>
        <time>2013-04-25T21:41:16Z</time>
      </trkpt>
      <trkpt lat="59.984423602" lon="15.8275260497">
        <ele>92.8</ele>
        <time>2013-04-25T21:41:17Z</time>
      </trkpt>
      <trkpt lat="59.9844243564" lon="15.8275335934">
        <ele>91.8</ele>
        <time>2013-04-25T21:41:25Z</time>
      </trkpt>
      <trkpt lat="59.9844239373" lon="15.8275288157">
        <ele>91.8</ele>
        <time>2013-04-25T21:41:26Z</time>
      </trkpt>
      <trkpt lat="59.9844243564" lon="15.8275258821">
        <ele>91.8</ele>
        <time>2013-04-25T21:41:27Z</time>
      </trkpt>
      <trkpt lat="59.9844243564" lon="15.8275225293">
        <ele>91.8</ele>
        <time>2013-04-25T21:41:28Z</time>
      </trkpt>
      <trkpt lat="59.9844248593" lon="15.8275250439">
        <ele>91.8</ele>
        <time>2013-04-25T21:41:29Z</time>
      </trkpt>
      <trkpt lat="59.9844253622" lon="15.8275284804">
        <ele>91.8</ele>
        <time>2013-04-25T21:41:31Z</time>
      </trkpt>
      <trkpt lat="59.9844250269" lon="15.8275218587">
        <ele>91.8</ele>
        <time>2013-04-25T21:41:32Z</time>
      </trkpt>
      <trkpt lat="59.9844247755" lon="15.8275111299">
        <ele>91.8</ele>
        <time>2013-04-25T21:41:35Z</time>
      </trkpt>
      <trkpt lat="59.9844250269" lon="15.8275121357">
        <ele>91.8</ele>
        <time>2013-04-25T21:41:36Z</time>
      </trkpt>
      <trkpt lat="59.9844248593" lon="15.8275107946">
        <ele>91.8</ele>
        <time>2013-04-25T21:41:37Z</time>
      </trkpt>
      <trkpt lat="59.9844249431" lon="15.8275096212">
        <ele>91.8</ele>
        <time>2013-04-25T21:41:40Z</time>
      </trkpt>
      <trkpt lat="59.9844249431" lon="15.8275095373">
        <ele>91.8</ele>
        <time>2013-04-25T21:41:41Z</time>
      </trkpt>
      <trkpt lat="59.9844251107" lon="15.8275151532">
        <ele>91.8</ele>
        <time>2013-04-25T21:41:45Z</time>
      </trkpt>
      <trkpt lat="59.9844246916" lon="15.8275080286">
        <ele>91.8</ele>
        <time>2013-04-25T21:41:46Z</time>
      </trkpt>
      <trkpt lat="59.984424524" lon="15.8275090344">
        <ele>91.8</ele>
        <time>2013-04-25T21:41:47Z</time>
      </trkpt>
      <trkpt lat="59.9844250269" lon="15.8275150694">
        <ele>91.8</ele>
        <time>2013-04-25T21:41:48Z</time>
      </trkpt>
      <trkpt lat="59.9844259489" lon="15.8275160752">
        <ele>91.8</ele>
        <time>2013-04-25T21:41:53Z</time>
      </trkpt>
      <trkpt lat="59.9844267033" lon="15.827516662">
        <ele>91.8</ele>
        <time>2013-04-25T21:41:58Z</time>
      </trkpt>
      <trkpt lat="59.9844268709" lon="15.8275164943">
        <ele>91.8</ele>
        <time>2013-04-25T21:41:59Z</time>
      </trkpt>
      <trkpt lat="59.9844272062" lon="15.8275168296">
        <ele>91.8</ele>
        <time>2013-04-25T21:42:00Z</time>
      </trkpt>
      <trkpt lat="59.9844275415" lon="15.8275178354">
        <ele>91.8</ele>
        <time>2013-04-25T21:42:01Z</time>
      </trkpt>
      <trkpt lat="59.984427793" lon="15.8275175001">
        <ele>91.8</ele>
        <time>2013-04-25T21:42:03Z</time>
      </trkpt>
      <trkpt lat="59.9844281282" lon="15.8275193442">
        <ele>91.8</ele>
        <time>2013-04-25T21:42:04Z</time>
      </trkpt>
      <trkpt lat="59.9844283797" lon="15.8275195956">
        <ele>91.8</ele>
        <time>2013-04-25T21:42:05Z</time>
      </trkpt>
      <trkpt lat="59.9844280444" lon="15.8275158238">
        <ele>91.8</ele>
        <time>2013-04-25T21:42:06Z</time>
      </trkpt>
      <trkpt lat="59.9844282959" lon="15.8275192603">
        <ele>91.8</ele>
        <time>2013-04-25T21:42:09Z</time>
      </trkpt>
      <trkpt lat="59.9844286311" lon="15.8275193442">
        <ele>91.8</ele>
        <time>2013-04-25T21:42:10Z</time>
      </trkpt>
      <trkpt lat="59.9844286311" lon="15.8275195956">
        <ele>91.8</ele>
        <time>2013-04-25T21:42:11Z</time>
      </trkpt>
      <trkpt lat="59.984428715" lon="15.8275192603">
        <ele>91.8</ele>
        <time>2013-04-25T21:42:12Z</time>
      </trkpt>
      <trkpt lat="59.9844286311" lon="15.8275164105">
        <ele>91.8</ele>
        <time>2013-04-25T21:42:13Z</time>
      </trkpt>
      <trkpt lat="59.9844283797" lon="15.8275126386">
        <ele>91.8</ele>
        <time>2013-04-25T21:42:14Z</time>
      </trkpt>
      <trkpt lat="59.9844285473" lon="15.8275135607">
        <ele>91.8</ele>
        <time>2013-04-25T21:42:15Z</time>
      </trkpt>
      <trkpt lat="59.984428715" lon="15.8275167458">
        <ele>91.8</ele>
        <time>2013-04-25T21:42:16Z</time>
      </trkpt>
      <trkpt lat="59.9844294693" lon="15.8275225293">
        <ele>91.8</ele>
        <time>2013-04-25T21:42:17Z</time>
      </trkpt>
      <trkpt lat="59.9844298046" lon="15.8275202662">
        <ele>91.8</ele>
        <time>2013-04-25T21:42:21Z</time>
      </trkpt>
      <trkpt lat="59.9844298046" lon="15.8275195118">
        <ele>91.8</ele>
        <time>2013-04-25T21:42:22Z</time>
      </trkpt>
      <trkpt lat="59.984429637" lon="15.8275159076">
        <ele>91.8</ele>
        <time>2013-04-25T21:42:23Z</time>
      </trkpt>
      <trkpt lat="59.9844287988" lon="15.8275107946">
        <ele>91.8</ele>
        <time>2013-04-25T21:42:24Z</time>
      </trkpt>
      <trkpt lat="59.9844317324" lon="15.8275049273">
        <ele>91.8</ele>
        <time>2013-04-25T21:42:25Z</time>
      </trkpt>
      <trkpt lat="59.9844313972" lon="15.8275014907">
        <ele>91.8</ele>
        <time>2013-04-25T21:42:26Z</time>
      </trkpt>
      <trkpt lat="59.9844317324" lon="15.8275037538">
        <ele>91.8</ele>
        <time>2013-04-25T21:42:27Z</time>
      </trkpt>
      <trkpt lat="59.9844318163" lon="15.8275024965">
        <ele>91.8</ele>
        <time>2013-04-25T21:42:28Z</time>
      </trkpt>
      <trkpt lat="59.9844320677" lon="15.8275030833">
        <ele>91.8</ele>
        <time>2013-04-25T21:42:29Z</time>
      </trkpt>
      <trkpt lat="59.9844315648" lon="15.8275017422">
        <ele>91.8</ele>
        <time>2013-04-25T21:42:30Z</time>
      </trkpt>
      <trkpt lat="59.9844293017" lon="15.8274973836">
        <ele>91.8</ele>
        <time>2013-04-25T21:42:31Z</time>
      </trkpt>
      <trkpt lat="59.9844283797" lon="15.8274972998">
        <ele>91.8</ele>
        <time>2013-04-25T21:42:32Z</time>
      </trkpt>
      <trkpt lat="59.9844286311" lon="15.8274967968">
        <ele>91.8</ele>
        <time>2013-04-25T21:42:33Z</time>
      </trkpt>
      <trkpt lat="59.9844286311" lon="15.8274962939">
        <ele>91.8</ele>
        <time>2013-04-25T21:42:34Z</time>
      </trkpt>
      <trkpt lat="59.9844286311" lon="15.8274973836">
        <ele>91.8</ele>
        <time>2013-04-25T21:42:35Z</time>
      </trkpt>
      <trkpt lat="59.9844287988" lon="15.827498557">
        <ele>91.8</ele>
        <time>2013-04-25T21:42:36Z</time>
      </trkpt>
      <trkpt lat="59.9844294693" lon="15.8274984732">
        <ele>91.8</ele>
        <time>2013-04-25T21:42:37Z</time>
      </trkpt>
      <trkpt lat="59.9844298046" lon="15.8274984732">
        <ele>91.8</ele>
        <time>2013-04-25T21:42:38Z</time>
      </trkpt>
      <trkpt lat="59.9844300561" lon="15.8274986409">
        <ele>91.8</ele>
        <time>2013-04-25T21:42:39Z</time>
      </trkpt>
      <trkpt lat="59.9844303075" lon="15.8274983894">
        <ele>91.8</ele>
        <time>2013-04-25T21:42:40Z</time>
      </trkpt>
      <trkpt lat="59.9844308104" lon="15.8274988085">
        <ele>91.8</ele>
        <time>2013-04-25T21:42:41Z</time>
      </trkpt>
      <trkpt lat="59.9844309781" lon="15.8274988085">
        <ele>91.8</ele>
        <time>2013-04-25T21:42:42Z</time>
      </trkpt>
      <trkpt lat="59.9844322354" lon="15.82749906">
        <ele>91.8</ele>
        <time>2013-04-25T21:42:45Z</time>
      </trkpt>
      <trkpt lat="59.9844326545" lon="15.8274992276">
        <ele>91.8</ele>
        <time>2013-04-25T21:42:46Z</time>
      </trkpt>
      <trkpt lat="59.9844330736" lon="15.8274993952">
        <ele>91.8</ele>
        <time>2013-04-25T21:42:47Z</time>
      </trkpt>
      <trkpt lat="59.9844338279" lon="15.82749906">
        <ele>91.8</ele>
        <time>2013-04-25T21:42:49Z</time>
      </trkpt>
      <trkpt lat="59.984434247" lon="15.8274988923">
        <ele>91.8</ele>
        <time>2013-04-25T21:42:50Z</time>
      </trkpt>
      <trkpt lat="59.9844346661" lon="15.8274988923">
        <ele>91.8</ele>
        <time>2013-04-25T21:42:51Z</time>
      </trkpt>
      <trkpt lat="59.9844349176" lon="15.8275007363">
        <ele>91.8</ele>
        <time>2013-04-25T21:42:52Z</time>
      </trkpt>
      <trkpt lat="59.9844354205" lon="15.8275003172">
        <ele>91.8</ele>
        <time>2013-04-25T21:42:53Z</time>
      </trkpt>
      <trkpt lat="59.9844355043" lon="15.8275008202">
        <ele>91.8</ele>
        <time>2013-04-25T21:42:54Z</time>
      </trkpt>
      <trkpt lat="59.9844366778" lon="15.8274978027">
        <ele>91.8</ele>
        <time>2013-04-25T21:42:56Z</time>
      </trkpt>
      <trkpt lat="59.9844363425" lon="15.8274988923">
        <ele>91.8</ele>
        <time>2013-04-25T21:42:57Z</time>
      </trkpt>
      <trkpt lat="59.9844366778" lon="15.8275031671">
        <ele>91.8</ele>
        <time>2013-04-25T21:42:58Z</time>
      </trkpt>
      <trkpt lat="59.9844315648" lon="15.8275028318">
        <ele>90.8</ele>
        <time>2013-04-25T21:43:00Z</time>
      </trkpt>
      <trkpt lat="59.9844279606" lon="15.8275046758">
        <ele>90.8</ele>
        <time>2013-04-25T21:43:01Z</time>
      </trkpt>
      <trkpt lat="59.9844269548" lon="15.8275058493">
        <ele>90.8</ele>
        <time>2013-04-25T21:43:02Z</time>
      </trkpt>
      <trkpt lat="59.9844255298" lon="15.8275094535">
        <ele>90.8</ele>
        <time>2013-04-25T21:43:03Z</time>
      </trkpt>
      <trkpt lat="59.9844258651" lon="15.8275102917">
        <ele>90.8</ele>
        <time>2013-04-25T21:43:04Z</time>
      </trkpt>
      <trkpt lat="59.9844273739" lon="15.8275138959">
        <ele>90.8</ele>
        <time>2013-04-25T21:43:05Z</time>
      </trkpt>
      <trkpt lat="59.9844268709" lon="15.8275305759">
        <ele>90.8</ele>
        <time>2013-04-25T21:43:12Z</time>
      </trkpt>
      <trkpt lat="59.9844279606" lon="15.8275190089">
        <ele>90.8</ele>
        <time>2013-04-25T21:43:16Z</time>
      </trkpt>
      <trkpt lat="59.9844251107" lon="15.8275178354">
        <ele>90.8</ele>
        <time>2013-04-25T21:43:17Z</time>
      </trkpt>
      <trkpt lat="59.9844241049" lon="15.8275138959">
        <ele>90.8</ele>
        <time>2013-04-25T21:43:21Z</time>
      </trkpt>
      <trkpt lat="59.9844235182" lon="15.8275150694">
        <ele>90.8</ele>
        <time>2013-04-25T21:43:22Z</time>
      </trkpt>
      <trkpt lat="59.9844233505" lon="15.8275155723">
        <ele>90.8</ele>
        <time>2013-04-25T21:43:23Z</time>
      </trkpt>
      <trkpt lat="59.9844270386" lon="15.8275224455">
        <ele>90.8</ele>
        <time>2013-04-25T21:43:25Z</time>
      </trkpt>
      <trkpt lat="59.9844303913" lon="15.8275227807">
        <ele>90.8</ele>
        <time>2013-04-25T21:43:26Z</time>
      </trkpt>
      <trkpt lat="59.9844294693" lon="15.8275169134">
        <ele>90.8</ele>
        <time>2013-04-25T21:43:28Z</time>
      </trkpt>
      <trkpt lat="59.9844300561" lon="15.8275192603">
        <ele>90.8</ele>
        <time>2013-04-25T21:43:30Z</time>
      </trkpt>
      <trkpt lat="59.9844288826" lon="15.8275172487">
        <ele>90.8</ele>
        <time>2013-04-25T21:43:31Z</time>
      </trkpt>
      <trkpt lat="59.9844286311" lon="15.8275123034">
        <ele>90.8</ele>
        <time>2013-04-25T21:43:34Z</time>
      </trkpt>
      <trkpt lat="59.9844289664" lon="15.8275123872">
        <ele>90.8</ele>
        <time>2013-04-25T21:43:35Z</time>
      </trkpt>
      <trkpt lat="59.9844270386" lon="15.8275164943">
        <ele>90.8</ele>
        <time>2013-04-25T21:43:37Z</time>
      </trkpt>
      <trkpt lat="59.9844284635" lon="15.8275092859">
        <ele>90.8</ele>
        <time>2013-04-25T21:43:40Z</time>
      </trkpt>
      <trkpt lat="59.9844267033" lon="15.827504592">
        <ele>90.8</ele>
        <time>2013-04-25T21:43:41Z</time>
      </trkpt>
      <trkpt lat="59.9844266195" lon="15.8274993114">
        <ele>90.8</ele>
        <time>2013-04-25T21:43:42Z</time>
      </trkpt>
      <trkpt lat="59.9844222609" lon="15.8274989761">
        <ele>90.8</ele>
        <time>2013-04-25T21:43:44Z</time>
      </trkpt>
      <trkpt lat="59.9844209198" lon="15.8274941985">
        <ele>90.8</ele>
        <time>2013-04-25T21:43:45Z</time>
      </trkpt>
      <trkpt lat="59.9844196625" lon="15.8274969645">
        <ele>90.8</ele>
        <time>2013-04-25T21:43:46Z</time>
      </trkpt>
      <trkpt lat="59.98460331" lon="15.82759168">
        <ele>90.8</ele>
        <time>2013-04-25T21:43:47Z</time>
      </trkpt>
      <trkpt lat="59.9846079201" lon="15.8275968768">
        <ele>90.8</ele>
        <time>2013-04-25T21:43:49Z</time>
      </trkpt>
      <trkpt lat="59.9846085068" lon="15.8275950328">
        <ele>90.8</ele>
        <time>2013-04-25T21:43:50Z</time>
      </trkpt>
      <trkpt lat="59.9846108537" lon="15.8275931049">
        <ele>90.8</ele>
        <time>2013-04-25T21:43:51Z</time>
      </trkpt>
      <trkpt lat="59.9846131168" lon="15.8275941107">
        <ele>90.8</ele>
        <time>2013-04-25T21:43:52Z</time>
      </trkpt>
      <trkpt lat="59.9846127816" lon="15.8276028279">
        <ele>90.8</ele>
        <time>2013-04-25T21:43:53Z</time>
      </trkpt>
      <trkpt lat="59.9846119434" lon="15.8276091143">
        <ele>90.8</ele>
        <time>2013-04-25T21:43:54Z</time>
      </trkpt>
      <trkpt lat="59.9846118595" lon="15.8276154846">
        <ele>90.8</ele>
        <time>2013-04-25T21:43:55Z</time>
      </trkpt>
      <trkpt lat="59.9846142065" lon="15.8276139759">
        <ele>90.8</ele>
        <time>2013-04-25T21:43:56Z</time>
      </trkpt>
      <trkpt lat="59.9846155476" lon="15.82761297">
        <ele>90.8</ele>
        <time>2013-04-25T21:43:58Z</time>
      </trkpt>
      <trkpt lat="59.9846206605" lon="15.8276091982">
        <ele>90.8</ele>
        <time>2013-04-25T21:44:00Z</time>
      </trkpt>
      <trkpt lat="59.9846226722" lon="15.8276104555">
        <ele>90.8</ele>
        <time>2013-04-25T21:44:01Z</time>
      </trkpt>
      <trkpt lat="59.9846162181" lon="15.8276203461">
        <ele>90.8</ele>
        <time>2013-04-25T21:44:04Z</time>
      </trkpt>
      <trkpt lat="59.9846151285" lon="15.8276221901">
        <ele>90.8</ele>
        <time>2013-04-25T21:44:05Z</time>
      </trkpt>
      <trkpt lat="59.9846159667" lon="15.8276214357">
        <ele>90.8</ele>
        <time>2013-04-25T21:44:06Z</time>
      </trkpt>
      <trkpt lat="59.9846156314" lon="15.8275686298">
        <ele>90.8</ele>
        <time>2013-04-25T21:44:07Z</time>
      </trkpt>
      <trkpt lat="59.9846150447" lon="15.8275598288">
        <ele>90.8</ele>
        <time>2013-04-25T21:44:08Z</time>
      </trkpt>
      <trkpt lat="59.984616302" lon="15.8275589067">
        <ele>90.8</ele>
        <time>2013-04-25T21:44:09Z</time>
      </trkpt>
      <trkpt lat="59.9846169725" lon="15.8275625948">
        <ele>90.8</ele>
        <time>2013-04-25T21:44:10Z</time>
      </trkpt>
      <trkpt lat="59.9846163858" lon="15.8275595773">
        <ele>90.8</ele>
        <time>2013-04-25T21:44:11Z</time>
      </trkpt>
      <trkpt lat="59.9846152961" lon="15.827564355">
        <ele>90.8</ele>
        <time>2013-04-25T21:44:12Z</time>
      </trkpt>
      <trkpt lat="59.9846145418" lon="15.8275715634">
        <ele>90.8</ele>
        <time>2013-04-25T21:44:13Z</time>
      </trkpt>
      <trkpt lat="59.984614877" lon="15.8275761735">
        <ele>90.8</ele>
        <time>2013-04-25T21:44:14Z</time>
      </trkpt>
      <trkpt lat="59.9846137036" lon="15.827577766">
        <ele>90.8</ele>
        <time>2013-04-25T21:44:15Z</time>
      </trkpt>
      <trkpt lat="59.984610267" lon="15.827576844">
        <ele>90.8</ele>
        <time>2013-04-25T21:44:16Z</time>
      </trkpt>
      <trkpt lat="59.9846098479" lon="15.8275785204">
        <ele>90.8</ele>
        <time>2013-04-25T21:44:18Z</time>
      </trkpt>
      <trkpt lat="59.9846079201" lon="15.8275817893">
        <ele>90.8</ele>
        <time>2013-04-25T21:44:19Z</time>
      </trkpt>
      <trkpt lat="59.9846156314" lon="15.8275761735">
        <ele>90.8</ele>
        <time>2013-04-25T21:44:22Z</time>
      </trkpt>
      <trkpt lat="59.984615799" lon="15.8275778499">
        <ele>90.8</ele>
        <time>2013-04-25T21:44:23Z</time>
      </trkpt>
      <trkpt lat="59.9846187327" lon="15.827576844">
        <ele>90.8</ele>
        <time>2013-04-25T21:44:24Z</time>
      </trkpt>
      <trkpt lat="59.984620912" lon="15.827578688">
        <ele>90.8</ele>
        <time>2013-04-25T21:44:28Z</time>
      </trkpt>
      <trkpt lat="59.9846220016" lon="15.8275784366">
        <ele>90.8</ele>
        <time>2013-04-25T21:44:30Z</time>
      </trkpt>
      <trkpt lat="59.9846224207" lon="15.827577766">
        <ele>90.8</ele>
        <time>2013-04-25T21:44:31Z</time>
      </trkpt>
      <trkpt lat="59.9846230075" lon="15.8275765926">
        <ele>90.8</ele>
        <time>2013-04-25T21:44:32Z</time>
      </trkpt>
      <trkpt lat="59.9846233428" lon="15.827578688">
        <ele>90.8</ele>
        <time>2013-04-25T21:44:33Z</time>
      </trkpt>
      <trkpt lat="59.9846234266" lon="15.8275786042">
        <ele>90.8</ele>
        <time>2013-04-25T21:44:34Z</time>
      </trkpt>
      <trkpt lat="59.9846239295" lon="15.827578688">
        <ele>90.8</ele>
        <time>2013-04-25T21:44:35Z</time>
      </trkpt>
      <trkpt lat="59.9846240971" lon="15.8275837172">
        <ele>90.8</ele>
        <time>2013-04-25T21:44:37Z</time>
      </trkpt>
      <trkpt lat="59.984625103" lon="15.8275814541">
        <ele>90.8</ele>
        <time>2013-04-25T21:44:38Z</time>
      </trkpt>
      <trkpt lat="59.9846247677" lon="15.8275837172">
        <ele>90.8</ele>
        <time>2013-04-25T21:44:39Z</time>
      </trkpt>
      <trkpt lat="59.9846246839" lon="15.8275874052">
        <ele>90.8</ele>
        <time>2013-04-25T21:44:40Z</time>
      </trkpt>
      <trkpt lat="59.984623678" lon="15.8275886625">
        <ele>90.8</ele>
        <time>2013-04-25T21:44:42Z</time>
      </trkpt>
      <trkpt lat="59.9846241809" lon="15.8275883272">
        <ele>90.8</ele>
        <time>2013-04-25T21:44:43Z</time>
      </trkpt>
      <trkpt lat="59.9846240971" lon="15.8275904227">
        <ele>90.8</ele>
        <time>2013-04-25T21:44:44Z</time>
      </trkpt>
      <trkpt lat="59.9846237618" lon="15.8275920153">
        <ele>90.8</ele>
        <time>2013-04-25T21:44:45Z</time>
      </trkpt>
      <trkpt lat="59.9846254382" lon="15.8275949489">
        <ele>90.8</ele>
        <time>2013-04-25T21:44:47Z</time>
      </trkpt>
      <trkpt lat="59.9846294615" lon="15.8275918476">
        <ele>90.8</ele>
        <time>2013-04-25T21:44:50Z</time>
      </trkpt>
      <trkpt lat="59.9846314732" lon="15.8275917638">
        <ele>90.8</ele>
        <time>2013-04-25T21:44:51Z</time>
      </trkpt>
      <trkpt lat="59.9846330658" lon="15.8275909256">
        <ele>90.8</ele>
        <time>2013-04-25T21:44:52Z</time>
      </trkpt>
      <trkpt lat="59.9846345745" lon="15.8275934402">
        <ele>90.8</ele>
        <time>2013-04-25T21:44:53Z</time>
      </trkpt>
      <trkpt lat="59.9846359994" lon="15.8275923505">
        <ele>90.8</ele>
        <time>2013-04-25T21:44:54Z</time>
      </trkpt>
      <trkpt lat="59.9846370891" lon="15.8275917638">
        <ele>90.8</ele>
        <time>2013-04-25T21:44:55Z</time>
      </trkpt>
      <trkpt lat="59.9846383464" lon="15.8275917638">
        <ele>90.8</ele>
        <time>2013-04-25T21:44:56Z</time>
      </trkpt>
      <trkpt lat="59.9846370053" lon="15.8275924344">
        <ele>89.8</ele>
        <time>2013-04-25T21:44:57Z</time>
      </trkpt>
      <trkpt lat="59.9846365862" lon="15.8275951166">
        <ele>89.8</ele>
        <time>2013-04-25T21:44:58Z</time>
      </trkpt>
      <trkpt lat="59.9846346583" lon="15.8275980502">
        <ele>89.8</ele>
        <time>2013-04-25T21:44:59Z</time>
      </trkpt>
      <trkpt lat="59.9846354965" lon="15.827597715">
        <ele>89.8</ele>
        <time>2013-04-25T21:45:00Z</time>
      </trkpt>
      <trkpt lat="59.9846356642" lon="15.8275984693">
        <ele>89.8</ele>
        <time>2013-04-25T21:45:01Z</time>
      </trkpt>
      <trkpt lat="59.9846358318" lon="15.8276016545">
        <ele>89.8</ele>
        <time>2013-04-25T21:45:02Z</time>
      </trkpt>
      <trkpt lat="59.9846362509" lon="15.8276029117">
        <ele>89.8</ele>
        <time>2013-04-25T21:45:03Z</time>
      </trkpt>
      <trkpt lat="59.9846368376" lon="15.8276021574">
        <ele>89.8</ele>
        <time>2013-04-25T21:45:04Z</time>
      </trkpt>
      <trkpt lat="59.9846367538" lon="15.8276037499">
        <ele>89.8</ele>
        <time>2013-04-25T21:45:05Z</time>
      </trkpt>
      <trkpt lat="59.9846367538" lon="15.8276063483">
        <ele>89.8</ele>
        <time>2013-04-25T21:45:06Z</time>
      </trkpt>
      <trkpt lat="59.9846370053" lon="15.8276061807">
        <ele>89.8</ele>
        <time>2013-04-25T21:45:07Z</time>
      </trkpt>
      <trkpt lat="59.9846365023" lon="15.8276095334">
        <ele>89.8</ele>
        <time>2013-04-25T21:45:08Z</time>
      </trkpt>
      <trkpt lat="59.9846365862" lon="15.8276101202">
        <ele>89.8</ele>
        <time>2013-04-25T21:45:09Z</time>
      </trkpt>
      <trkpt lat="59.9846371729" lon="15.8276096173">
        <ele>89.8</ele>
        <time>2013-04-25T21:45:10Z</time>
      </trkpt>
      <trkpt lat="59.9846374243" lon="15.8276106231">
        <ele>89.8</ele>
        <time>2013-04-25T21:45:11Z</time>
      </trkpt>
      <trkpt lat="59.9846367538" lon="15.8276097011">
        <ele>89.8</ele>
        <time>2013-04-25T21:45:15Z</time>
      </trkpt>
      <trkpt lat="59.9846371729" lon="15.8276088629">
        <ele>89.8</ele>
        <time>2013-04-25T21:45:16Z</time>
      </trkpt>
      <trkpt lat="59.984637592" lon="15.8276091143">
        <ele>89.8</ele>
        <time>2013-04-25T21:45:17Z</time>
      </trkpt>
      <trkpt lat="59.9846374243" lon="15.8276098687">
        <ele>89.8</ele>
        <time>2013-04-25T21:45:18Z</time>
      </trkpt>
      <trkpt lat="59.9846374243" lon="15.8276107907">
        <ele>89.8</ele>
        <time>2013-04-25T21:45:19Z</time>
      </trkpt>
      <trkpt lat="59.9846368376" lon="15.8276070189">
        <ele>89.8</ele>
        <time>2013-04-25T21:45:20Z</time>
      </trkpt>
      <trkpt lat="59.9846372567" lon="15.8276057616">
        <ele>89.8</ele>
        <time>2013-04-25T21:45:21Z</time>
      </trkpt>
      <trkpt lat="59.9846376758" lon="15.8276055939">
        <ele>89.8</ele>
        <time>2013-04-25T21:45:22Z</time>
      </trkpt>
      <trkpt lat="59.984637592" lon="15.8276053425">
        <ele>89.8</ele>
        <time>2013-04-25T21:45:23Z</time>
      </trkpt>
      <trkpt lat="59.9846380949" lon="15.827605091">
        <ele>89.8</ele>
        <time>2013-04-25T21:45:24Z</time>
      </trkpt>
      <trkpt lat="59.9846391845" lon="15.8276062645">
        <ele>89.8</ele>
        <time>2013-04-25T21:45:25Z</time>
      </trkpt>
      <trkpt lat="59.9846396875" lon="15.8276079409">
        <ele>89.8</ele>
        <time>2013-04-25T21:45:26Z</time>
      </trkpt>
      <trkpt lat="59.9846396036" lon="15.82760836">
        <ele>89.8</ele>
        <time>2013-04-25T21:45:27Z</time>
      </trkpt>
      <trkpt lat="59.9846398551" lon="15.8276081923">
        <ele>89.8</ele>
        <time>2013-04-25T21:45:28Z</time>
      </trkpt>
      <trkpt lat="59.9846405257" lon="15.8276090305">
        <ele>89.8</ele>
        <time>2013-04-25T21:45:29Z</time>
      </trkpt>
      <trkpt lat="59.9846407771" lon="15.8276078571">
        <ele>89.8</ele>
        <time>2013-04-25T21:45:33Z</time>
      </trkpt>
      <trkpt lat="59.9846408609" lon="15.8276063483">
        <ele>89.8</ele>
        <time>2013-04-25T21:45:34Z</time>
      </trkpt>
      <trkpt lat="59.9846411962" lon="15.8276033308">
        <ele>89.8</ele>
        <time>2013-04-25T21:45:35Z</time>
      </trkpt>
      <trkpt lat="59.9846411962" lon="15.8276067674">
        <ele>89.8</ele>
        <time>2013-04-25T21:45:36Z</time>
      </trkpt>
      <trkpt lat="59.9846416991" lon="15.8276164904">
        <ele>89.8</ele>
        <time>2013-04-25T21:45:39Z</time>
      </trkpt>
      <trkpt lat="59.9846427049" lon="15.8276140597">
        <ele>89.8</ele>
        <time>2013-04-25T21:45:40Z</time>
      </trkpt>
      <trkpt lat="59.9846434593" lon="15.8276123833">
        <ele>89.8</ele>
        <time>2013-04-25T21:45:41Z</time>
      </trkpt>
      <trkpt lat="59.9846432917" lon="15.827611126">
        <ele>89.8</ele>
        <time>2013-04-25T21:45:42Z</time>
      </trkpt>
      <trkpt lat="59.9846432917" lon="15.8276113775">
        <ele>89.8</ele>
        <time>2013-04-25T21:45:43Z</time>
      </trkpt>
      <trkpt lat="59.9846440461" lon="15.8276114613">
        <ele>89.8</ele>
        <time>2013-04-25T21:45:44Z</time>
      </trkpt>
      <trkpt lat="59.9846441299" lon="15.827597212">
        <ele>89.8</ele>
        <time>2013-04-25T21:45:51Z</time>
      </trkpt>
      <trkpt lat="59.9846446328" lon="15.8276005648">
        <ele>89.8</ele>
        <time>2013-04-25T21:45:52Z</time>
      </trkpt>
      <trkpt lat="59.9846452195" lon="15.827606516">
        <ele>89.8</ele>
        <time>2013-04-25T21:45:53Z</time>
      </trkpt>
      <trkpt lat="59.9846459739" lon="15.8276075218">
        <ele>89.8</ele>
        <time>2013-04-25T21:45:54Z</time>
      </trkpt>
      <trkpt lat="59.9846459739" lon="15.8276105393">
        <ele>89.8</ele>
        <time>2013-04-25T21:45:55Z</time>
      </trkpt>
      <trkpt lat="59.984645471" lon="15.8276090305">
        <ele>89.8</ele>
        <time>2013-04-25T21:45:56Z</time>
      </trkpt>
      <trkpt lat="59.9846452195" lon="15.8276051749">
        <ele>89.8</ele>
        <time>2013-04-25T21:45:59Z</time>
      </trkpt>
      <trkpt lat="59.9846457224" lon="15.8276003972">
        <ele>89.8</ele>
        <time>2013-04-25T21:46:04Z</time>
      </trkpt>
      <trkpt lat="59.9846453872" lon="15.8276025765">
        <ele>89.8</ele>
        <time>2013-04-25T21:46:05Z</time>
      </trkpt>
      <trkpt lat="59.9846458901" lon="15.8276053425">
        <ele>89.8</ele>
        <time>2013-04-25T21:46:06Z</time>
      </trkpt>
      <trkpt lat="59.9846455548" lon="15.8276121318">
        <ele>89.8</ele>
        <time>2013-04-25T21:46:07Z</time>
      </trkpt>
      <trkpt lat="59.9846460577" lon="15.827621771">
        <ele>89.8</ele>
        <time>2013-04-25T21:46:08Z</time>
      </trkpt>
      <trkpt lat="59.9846460577" lon="15.8276293986">
        <ele>89.8</ele>
        <time>2013-04-25T21:46:09Z</time>
      </trkpt>
      <trkpt lat="59.9846457224" lon="15.8276355173">
        <ele>89.8</ele>
        <time>2013-04-25T21:46:10Z</time>
      </trkpt>
      <trkpt lat="59.9846455548" lon="15.827640295">
        <ele>89.8</ele>
        <time>2013-04-25T21:46:11Z</time>
      </trkpt>
      <trkpt lat="59.9846448842" lon="15.8276440669">
        <ele>89.8</ele>
        <time>2013-04-25T21:46:12Z</time>
      </trkpt>
      <trkpt lat="59.9846450519" lon="15.8276520297">
        <ele>89.8</ele>
        <time>2013-04-25T21:46:13Z</time>
      </trkpt>
      <trkpt lat="59.9846455548" lon="15.8276590705">
        <ele>89.8</ele>
        <time>2013-04-25T21:46:14Z</time>
      </trkpt>
      <trkpt lat="59.9846459739" lon="15.8276650216">
        <ele>89.8</ele>
        <time>2013-04-25T21:46:15Z</time>
      </trkpt>
      <trkpt lat="59.9846463092" lon="15.8276656922">
        <ele>89.8</ele>
        <time>2013-04-25T21:46:16Z</time>
      </trkpt>
      <trkpt lat="59.9846465606" lon="15.8276652731">
        <ele>89.8</ele>
        <time>2013-04-25T21:46:17Z</time>
      </trkpt>
      <trkpt lat="59.9846464768" lon="15.8276625909">
        <ele>89.8</ele>
        <time>2013-04-25T21:46:18Z</time>
      </trkpt>
      <trkpt lat="59.9846471474" lon="15.8276629262">
        <ele>89.8</ele>
        <time>2013-04-25T21:46:19Z</time>
      </trkpt>
      <trkpt lat="59.9846476503" lon="15.8276629262">
        <ele>89.8</ele>
        <time>2013-04-25T21:46:20Z</time>
      </trkpt>
      <trkpt lat="59.9846484885" lon="15.8276661951">
        <ele>89.8</ele>
        <time>2013-04-25T21:46:21Z</time>
      </trkpt>
      <trkpt lat="59.9846478179" lon="15.8276659437">
        <ele>89.8</ele>
        <time>2013-04-25T21:46:23Z</time>
      </trkpt>
      <trkpt lat="59.9846477341" lon="15.8276692126">
        <ele>89.8</ele>
        <time>2013-04-25T21:46:24Z</time>
      </trkpt>
      <trkpt lat="59.9846478179" lon="15.827668542">
        <ele>89.8</ele>
        <time>2013-04-25T21:46:25Z</time>
      </trkpt>
      <trkpt lat="59.9846478179" lon="15.8276728168">
        <ele>89.8</ele>
        <time>2013-04-25T21:46:26Z</time>
      </trkpt>
      <trkpt lat="59.9846479855" lon="15.8276738226">
        <ele>89.8</ele>
        <time>2013-04-25T21:46:27Z</time>
      </trkpt>
      <trkpt lat="59.9846478179" lon="15.8276772592">
        <ele>89.8</ele>
        <time>2013-04-25T21:46:28Z</time>
      </trkpt>
      <trkpt lat="59.9846479855" lon="15.8276853897">
        <ele>89.8</ele>
        <time>2013-04-25T21:46:29Z</time>
      </trkpt>
      <trkpt lat="59.9846475665" lon="15.8276892453">
        <ele>89.8</ele>
        <time>2013-04-25T21:46:30Z</time>
      </trkpt>
      <trkpt lat="59.984648237" lon="15.8276964538">
        <ele>89.8</ele>
        <time>2013-04-25T21:46:31Z</time>
      </trkpt>
      <trkpt lat="59.9846486561" lon="15.8277043328">
        <ele>89.8</ele>
        <time>2013-04-25T21:46:32Z</time>
      </trkpt>
      <trkpt lat="59.9846486561" lon="15.8277053386">
        <ele>89.8</ele>
        <time>2013-04-25T21:46:33Z</time>
      </trkpt>
      <trkpt lat="59.9846484885" lon="15.8277045004">
        <ele>89.8</ele>
        <time>2013-04-25T21:46:34Z</time>
      </trkpt>
      <trkpt lat="59.9846486561" lon="15.8277054224">
        <ele>89.8</ele>
        <time>2013-04-25T21:46:35Z</time>
      </trkpt>
      <trkpt lat="59.9846494943" lon="15.8277069312">
        <ele>89.8</ele>
        <time>2013-04-25T21:46:36Z</time>
      </trkpt>
      <trkpt lat="59.9846507516" lon="15.8277102001">
        <ele>88.8</ele>
        <time>2013-04-25T21:46:37Z</time>
      </trkpt>
      <trkpt lat="59.984651003" lon="15.8277081046">
        <ele>88.8</ele>
        <time>2013-04-25T21:46:38Z</time>
      </trkpt>
      <trkpt lat="59.9846505001" lon="15.8277062606">
        <ele>88.8</ele>
        <time>2013-04-25T21:46:39Z</time>
      </trkpt>
      <trkpt lat="59.9846504163" lon="15.8277042489">
        <ele>88.8</ele>
        <time>2013-04-25T21:46:40Z</time>
      </trkpt>
      <trkpt lat="59.9846507516" lon="15.8277038299">
        <ele>88.8</ele>
        <time>2013-04-25T21:46:41Z</time>
      </trkpt>
      <trkpt lat="59.9846510869" lon="15.8277030755">
        <ele>88.8</ele>
        <time>2013-04-25T21:46:42Z</time>
      </trkpt>
      <trkpt lat="59.9846520089" lon="15.8277063444">
        <ele>88.8</ele>
        <time>2013-04-25T21:46:45Z</time>
      </trkpt>
      <trkpt lat="59.984652428" lon="15.8277076855">
        <ele>88.8</ele>
        <time>2013-04-25T21:46:46Z</time>
      </trkpt>
      <trkpt lat="59.9846527632" lon="15.8277084399">
        <ele>88.8</ele>
        <time>2013-04-25T21:46:47Z</time>
      </trkpt>
      <trkpt lat="59.9846535176" lon="15.827710703">
        <ele>88.8</ele>
        <time>2013-04-25T21:46:48Z</time>
      </trkpt>
      <trkpt lat="59.9846535176" lon="15.8277106192">
        <ele>88.8</ele>
        <time>2013-04-25T21:46:49Z</time>
      </trkpt>
      <trkpt lat="59.9846537691" lon="15.8277087752">
        <ele>88.8</ele>
        <time>2013-04-25T21:46:50Z</time>
      </trkpt>
      <trkpt lat="59.9846534338" lon="15.82770098">
        <ele>88.8</ele>
        <time>2013-04-25T21:46:51Z</time>
      </trkpt>
      <trkpt lat="59.9846530147" lon="15.8276911732">
        <ele>88.8</ele>
        <time>2013-04-25T21:46:52Z</time>
      </trkpt>
      <trkpt lat="59.9846520089" lon="15.8276640996">
        <ele>88.8</ele>
        <time>2013-04-25T21:46:56Z</time>
      </trkpt>
      <trkpt lat="59.9846515059" lon="15.8276595734">
        <ele>88.8</ele>
        <time>2013-04-25T21:46:57Z</time>
      </trkpt>
      <trkpt lat="59.9846520089" lon="15.8276586514">
        <ele>88.8</ele>
        <time>2013-04-25T21:46:58Z</time>
      </trkpt>
      <trkpt lat="59.9846522603" lon="15.8276573103">
        <ele>88.8</ele>
        <time>2013-04-25T21:46:59Z</time>
      </trkpt>
      <trkpt lat="59.9846525956" lon="15.8276533708">
        <ele>88.8</ele>
        <time>2013-04-25T21:47:01Z</time>
      </trkpt>
      <trkpt lat="59.98465335" lon="15.827650521">
        <ele>88.8</ele>
        <time>2013-04-25T21:47:05Z</time>
      </trkpt>
      <trkpt lat="59.9846525118" lon="15.8276483417">
        <ele>88.8</ele>
        <time>2013-04-25T21:47:06Z</time>
      </trkpt>
      <trkpt lat="59.9846525956" lon="15.8276487608">
        <ele>88.8</ele>
        <time>2013-04-25T21:47:07Z</time>
      </trkpt>
      <trkpt lat="59.9846522603" lon="15.8276452404">
        <ele>88.8</ele>
        <time>2013-04-25T21:47:10Z</time>
      </trkpt>
      <trkpt lat="59.9846520927" lon="15.8276415523">
        <ele>88.8</ele>
        <time>2013-04-25T21:47:11Z</time>
      </trkpt>
      <trkpt lat="59.9846525118" lon="15.8276399598">
        <ele>88.8</ele>
        <time>2013-04-25T21:47:12Z</time>
      </trkpt>
      <trkpt lat="59.9846522603" lon="15.8276407979">
        <ele>88.8</ele>
        <time>2013-04-25T21:47:13Z</time>
      </trkpt>
      <trkpt lat="59.9846528471" lon="15.8276470006">
        <ele>88.8</ele>
        <time>2013-04-25T21:47:14Z</time>
      </trkpt>
      <trkpt lat="59.9846518412" lon="15.8276317455">
        <ele>88.8</ele>
        <time>2013-04-25T21:47:18Z</time>
      </trkpt>
      <trkpt lat="59.9846517574" lon="15.8276279736">
        <ele>88.8</ele>
        <time>2013-04-25T21:47:19Z</time>
      </trkpt>
      <trkpt lat="59.9846520927" lon="15.8276350144">
        <ele>88.8</ele>
        <time>2013-04-25T21:47:21Z</time>
      </trkpt>
      <trkpt lat="59.9846522603" lon="15.8276362717">
        <ele>88.8</ele>
        <time>2013-04-25T21:47:22Z</time>
      </trkpt>
      <trkpt lat="59.9846525956" lon="15.8276371099">
        <ele>88.8</ele>
        <time>2013-04-25T21:47:23Z</time>
      </trkpt>
      <trkpt lat="59.9846520927" lon="15.827619005">
        <ele>88.8</ele>
        <time>2013-04-25T21:47:26Z</time>
      </trkpt>
      <trkpt lat="59.9846520927" lon="15.8276201785">
        <ele>88.8</ele>
        <time>2013-04-25T21:47:27Z</time>
      </trkpt>
      <trkpt lat="59.9846522603" lon="15.8276222739">
        <ele>88.8</ele>
        <time>2013-04-25T21:47:29Z</time>
      </trkpt>
      <trkpt lat="59.9846523441" lon="15.8276195917">
        <ele>88.8</ele>
        <time>2013-04-25T21:47:30Z</time>
      </trkpt>
      <trkpt lat="59.9846532661" lon="15.8276191726">
        <ele>88.8</ele>
        <time>2013-04-25T21:47:31Z</time>
      </trkpt>
      <trkpt lat="59.9846532661" lon="15.827616239">
        <ele>88.8</ele>
        <time>2013-04-25T21:47:32Z</time>
      </trkpt>
      <trkpt lat="59.9846532661" lon="15.8276096173">
        <ele>88.8</ele>
        <time>2013-04-25T21:47:34Z</time>
      </trkpt>
      <trkpt lat="59.9846531823" lon="15.827606516">
        <ele>88.8</ele>
        <time>2013-04-25T21:47:35Z</time>
      </trkpt>
      <trkpt lat="59.9846531823" lon="15.8276047558">
        <ele>88.8</ele>
        <time>2013-04-25T21:47:36Z</time>
      </trkpt>
      <trkpt lat="59.9846537691" lon="15.8276035823">
        <ele>88.8</ele>
        <time>2013-04-25T21:47:37Z</time>
      </trkpt>
      <trkpt lat="59.9846531823" lon="15.8276040014">
        <ele>88.8</ele>
        <time>2013-04-25T21:47:38Z</time>
      </trkpt>
      <trkpt lat="59.9846526794" lon="15.8276028279">
        <ele>88.8</ele>
        <time>2013-04-25T21:47:41Z</time>
      </trkpt>
      <trkpt lat="59.9846522603" lon="15.827605091">
        <ele>88.8</ele>
        <time>2013-04-25T21:47:42Z</time>
      </trkpt>
      <trkpt lat="59.984652428" lon="15.8276050072">
        <ele>88.8</ele>
        <time>2013-04-25T21:47:43Z</time>
      </trkpt>
      <trkpt lat="59.9846521765" lon="15.8276026603">
        <ele>88.8</ele>
        <time>2013-04-25T21:47:44Z</time>
      </trkpt>
      <trkpt lat="59.9846525956" lon="15.8275983855">
        <ele>88.8</ele>
        <time>2013-04-25T21:47:45Z</time>
      </trkpt>
      <trkpt lat="59.9846525956" lon="15.8275994752">
        <ele>88.8</ele>
        <time>2013-04-25T21:47:46Z</time>
      </trkpt>
      <trkpt lat="59.9846516736" lon="15.827599559">
        <ele>88.8</ele>
        <time>2013-04-25T21:47:47Z</time>
      </trkpt>
      <trkpt lat="59.9846525118" lon="15.8275945298">
        <ele>88.8</ele>
        <time>2013-04-25T21:47:49Z</time>
      </trkpt>
      <trkpt lat="59.9846538529" lon="15.8275886625">
        <ele>88.8</ele>
        <time>2013-04-25T21:47:50Z</time>
      </trkpt>
      <trkpt lat="59.9846540205" lon="15.8275850583">
        <ele>88.8</ele>
        <time>2013-04-25T21:47:51Z</time>
      </trkpt>
      <trkpt lat="59.9846564513" lon="15.8275841363">
        <ele>88.8</ele>
        <time>2013-04-25T21:47:52Z</time>
      </trkpt>
      <trkpt lat="59.9846582953" lon="15.8275830466">
        <ele>88.8</ele>
        <time>2013-04-25T21:47:53Z</time>
      </trkpt>
      <trkpt lat="59.9846587144" lon="15.8275858965">
        <ele>88.8</ele>
        <time>2013-04-25T21:47:54Z</time>
      </trkpt>
      <trkpt lat="59.9846574571" lon="15.8275887463">
        <ele>88.8</ele>
        <time>2013-04-25T21:47:56Z</time>
      </trkpt>
      <trkpt lat="59.9846581277" lon="15.8275888301">
        <ele>88.8</ele>
        <time>2013-04-25T21:47:57Z</time>
      </trkpt>
      <trkpt lat="59.9846574571" lon="15.8275884949">
        <ele>88.8</ele>
        <time>2013-04-25T21:47:58Z</time>
      </trkpt>
      <trkpt lat="59.9846564513" lon="15.8275905065">
        <ele>88.8</ele>
        <time>2013-04-25T21:47:59Z</time>
      </trkpt>
      <trkpt lat="59.9846856203" lon="15.8275396284">
        <ele>88.8</ele>
        <time>2013-04-25T21:48:07Z</time>
      </trkpt>
      <trkpt lat="59.9846624862" lon="15.8275617566">
        <ele>88.8</ele>
        <time>2013-04-25T21:48:14Z</time>
      </trkpt>
      <trkpt lat="59.9846558645" lon="15.8275711443">
        <ele>88.8</ele>
        <time>2013-04-25T21:48:16Z</time>
      </trkpt>
      <trkpt lat="59.984613955" lon="15.8275745809">
        <ele>80.4</ele>
        <time>2013-04-25T22:23:15Z</time>
      </trkpt>
      <trkpt lat="59.984601466" lon="15.8276018221">
        <ele>80.4</ele>
        <time>2013-04-25T22:23:17Z</time>
      </trkpt>
      <trkpt lat="59.9846002087" lon="15.8276056778">
        <ele>80.4</ele>
        <time>2013-04-25T22:23:18Z</time>
      </trkpt>
      <trkpt lat="59.9846152123" lon="15.827593524">
        <ele>80.4</ele>
        <time>2013-04-25T22:23:19Z</time>
      </trkpt>
      <trkpt lat="59.9846264441" lon="15.8275887463">
        <ele>80.4</ele>
        <time>2013-04-25T22:23:21Z</time>
      </trkpt>
      <trkpt lat="59.9846279528" lon="15.8275872376">
        <ele>80.4</ele>
        <time>2013-04-25T22:23:22Z</time>
      </trkpt>
      <trkpt lat="59.9846264441" lon="15.8276046719">
        <ele>80.4</ele>
        <time>2013-04-25T22:23:23Z</time>
      </trkpt>
      <trkpt lat="59.9846262764" lon="15.827620849">
        <ele>80.4</ele>
        <time>2013-04-25T22:23:24Z</time>
      </trkpt>
      <trkpt lat="59.9846251868" lon="15.8276230283">
        <ele>80.4</ele>
        <time>2013-04-25T22:23:25Z</time>
      </trkpt>
      <trkpt lat="59.9846209958" lon="15.8276231959">
        <ele>80.4</ele>
        <time>2013-04-25T22:23:27Z</time>
      </trkpt>
      <trkpt lat="59.9846090935" lon="15.8276497666">
        <ele>80.4</ele>
        <time>2013-04-25T22:23:30Z</time>
      </trkpt>
      <trkpt lat="59.9846119434" lon="15.8276446536">
        <ele>80.4</ele>
        <time>2013-04-25T22:23:35Z</time>
      </trkpt>
      <trkpt lat="59.9845912401" lon="15.8276433963">
        <ele>80.4</ele>
        <time>2013-04-25T22:23:36Z</time>
      </trkpt>
      <trkpt lat="59.9845844507" lon="15.8276444022">
        <ele>80.4</ele>
        <time>2013-04-25T22:23:38Z</time>
      </trkpt>
      <trkpt lat="59.9846002925" lon="15.8276418876">
        <ele>80.4</ele>
        <time>2013-04-25T22:23:39Z</time>
      </trkpt>
      <trkpt lat="59.9846129492" lon="15.8276354335">
        <ele>80.4</ele>
        <time>2013-04-25T22:23:40Z</time>
      </trkpt>
      <trkpt lat="59.9846203253" lon="15.827630572">
        <ele>80.4</ele>
        <time>2013-04-25T22:23:41Z</time>
      </trkpt>
      <trkpt lat="59.9846483208" lon="15.8275888301">
        <ele>80.4</ele>
        <time>2013-04-25T22:23:46Z</time>
      </trkpt>
      <trkpt lat="59.9846505839" lon="15.8275825437">
        <ele>80.4</ele>
        <time>2013-04-25T22:23:47Z</time>
      </trkpt>
      <trkpt lat="59.984650081" lon="15.8275790233">
        <ele>80.4</ele>
        <time>2013-04-25T22:23:48Z</time>
      </trkpt>
      <trkpt lat="59.984651003" lon="15.8275747485">
        <ele>80.4</ele>
        <time>2013-04-25T22:23:49Z</time>
      </trkpt>
      <trkpt lat="59.9846571218" lon="15.8275635168">
        <ele>80.4</ele>
        <time>2013-04-25T22:23:50Z</time>
      </trkpt>
      <trkpt lat="59.9846634082" lon="15.8275699709">
        <ele>80.4</ele>
        <time>2013-04-25T22:23:53Z</time>
      </trkpt>
      <trkpt lat="59.9846411124" lon="15.8276024088">
        <ele>80.4</ele>
        <time>2013-04-25T22:23:56Z</time>
      </trkpt>
      <trkpt lat="59.9846374243" lon="15.8276034147">
        <ele>80.4</ele>
        <time>2013-04-25T22:23:57Z</time>
      </trkpt>
      <trkpt lat="59.9846360832" lon="15.8275954518">
        <ele>80.4</ele>
        <time>2013-04-25T22:23:58Z</time>
      </trkpt>
      <trkpt lat="59.984632479" lon="15.827590758">
        <ele>80.4</ele>
        <time>2013-04-25T22:23:59Z</time>
      </trkpt>
      <trkpt lat="59.984623678" lon="15.827587992">
        <ele>80.4</ele>
        <time>2013-04-25T22:24:00Z</time>
      </trkpt>
      <trkpt lat="59.9846156314" lon="15.8275893331">
        <ele>80.4</ele>
        <time>2013-04-25T22:24:01Z</time>
      </trkpt>
      <trkpt lat="59.9846106861" lon="15.827606013">
        <ele>80.4</ele>
        <time>2013-04-25T22:24:03Z</time>
      </trkpt>
      <trkpt lat="59.9846032262" lon="15.8276152331">
        <ele>80.4</ele>
        <time>2013-04-25T22:24:05Z</time>
      </trkpt>
      <trkpt lat="59.9846043997" lon="15.8276251238">
        <ele>80.4</ele>
        <time>2013-04-25T22:24:06Z</time>
      </trkpt>
      <trkpt lat="59.984609345" lon="15.8276235312">
        <ele>80.4</ele>
        <time>2013-04-25T22:24:07Z</time>
      </trkpt>
      <trkpt lat="59.9846134521" lon="15.8276330866">
        <ele>80.4</ele>
        <time>2013-04-25T22:24:08Z</time>
      </trkpt>
      <trkpt lat="59.9846141227" lon="15.8276385348">
        <ele>80.4</ele>
        <time>2013-04-25T22:24:09Z</time>
      </trkpt>
      <trkpt lat="59.9846131168" lon="15.8276330028">
        <ele>80.4</ele>
        <time>2013-04-25T22:24:10Z</time>
      </trkpt>
      <trkpt lat="59.9846018851" lon="15.8276267163">
        <ele>80.4</ele>
        <time>2013-04-25T22:24:11Z</time>
      </trkpt>
      <trkpt lat="59.9845947605" lon="15.8276213519">
        <ele>80.4</ele>
        <time>2013-04-25T22:24:12Z</time>
      </trkpt>
      <trkpt lat="59.9845912401" lon="15.8276206814">
        <ele>80.4</ele>
        <time>2013-04-25T22:24:13Z</time>
      </trkpt>
      <trkpt lat="59.9845896475" lon="15.8276273031">
        <ele>80.4</ele>
        <time>2013-04-25T22:24:14Z</time>
      </trkpt>
      <trkpt lat="59.9845816009" lon="15.8276397921">
        <ele>80.4</ele>
        <time>2013-04-25T22:24:15Z</time>
      </trkpt>
      <trkpt lat="59.9845720455" lon="15.8276396245">
        <ele>80.4</ele>
        <time>2013-04-25T22:24:21Z</time>
      </trkpt>
      <trkpt lat="59.9845718779" lon="15.8276408818">
        <ele>80.4</ele>
        <time>2013-04-25T22:24:22Z</time>
      </trkpt>
      <trkpt lat="59.9845707044" lon="15.8276385348">
        <ele>80.4</ele>
        <time>2013-04-25T22:24:23Z</time>
      </trkpt>
      <trkpt lat="59.98456995" lon="15.8276229445">
        <ele>80.4</ele>
        <time>2013-04-25T22:24:24Z</time>
      </trkpt>
      <trkpt lat="59.9845714588" lon="15.8276225254">
        <ele>80.4</ele>
        <time>2013-04-25T22:24:25Z</time>
      </trkpt>
      <trkpt lat="59.9845673516" lon="15.82762504">
        <ele>80.4</ele>
        <time>2013-04-25T22:24:26Z</time>
      </trkpt>
      <trkpt lat="59.9845626578" lon="15.8276278898">
        <ele>80.4</ele>
        <time>2013-04-25T22:24:27Z</time>
      </trkpt>
      <trkpt lat="59.9845592212" lon="15.8276373614">
        <ele>80.4</ele>
        <time>2013-04-25T22:24:28Z</time>
      </trkpt>
      <trkpt lat="59.9845648371" lon="15.8276433963">
        <ele>80.4</ele>
        <time>2013-04-25T22:24:29Z</time>
      </trkpt>
      <trkpt lat="59.9846015498" lon="15.8276397921">
        <ele>80.4</ele>
        <time>2013-04-25T22:24:30Z</time>
      </trkpt>
      <trkpt lat="59.9846137874" lon="15.8276359364">
        <ele>80.4</ele>
        <time>2013-04-25T22:24:31Z</time>
      </trkpt>
      <trkpt lat="59.9846239295" lon="15.8276195917">
        <ele>80.4</ele>
        <time>2013-04-25T22:24:32Z</time>
      </trkpt>
      <trkpt lat="59.984629713" lon="15.8276165742">
        <ele>80.4</ele>
        <time>2013-04-25T22:24:33Z</time>
      </trkpt>
      <trkpt lat="59.9846340716" lon="15.8276200108">
        <ele>80.4</ele>
        <time>2013-04-25T22:24:34Z</time>
      </trkpt>
      <trkpt lat="59.9846299645" lon="15.8276205976">
        <ele>80.4</ele>
        <time>2013-04-25T22:24:36Z</time>
      </trkpt>
      <trkpt lat="59.9846050702" lon="15.8276211843">
        <ele>80.4</ele>
        <time>2013-04-25T22:24:37Z</time>
      </trkpt>
      <trkpt lat="59.9846000411" lon="15.8276231959">
        <ele>80.4</ele>
        <time>2013-04-25T22:24:38Z</time>
      </trkpt>
      <trkpt lat="59.9846012983" lon="15.8276243694">
        <ele>80.4</ele>
        <time>2013-04-25T22:24:40Z</time>
      </trkpt>
      <trkpt lat="59.984606998" lon="15.8276307397">
        <ele>80.4</ele>
        <time>2013-04-25T22:24:41Z</time>
      </trkpt>
      <trkpt lat="59.9846490752" lon="15.8276102878">
        <ele>80.4</ele>
        <time>2013-04-25T22:24:42Z</time>
      </trkpt>
      <trkpt lat="59.9846856203" lon="15.8276192565">
        <ele>80.4</ele>
        <time>2013-04-25T22:24:47Z</time>
      </trkpt>
      <trkpt lat="59.9846919905" lon="15.8275909256">
        <ele>80.4</ele>
        <time>2013-04-25T22:24:52Z</time>
      </trkpt>
      <trkpt lat="59.9846669286" lon="15.8276085276">
        <ele>80.4</ele>
        <time>2013-04-25T22:24:54Z</time>
      </trkpt>
      <trkpt lat="59.9846446328" lon="15.8276542928">
        <ele>80.4</ele>
        <time>2013-04-25T22:24:57Z</time>
      </trkpt>
      <trkpt lat="59.9846429564" lon="15.8276704699">
        <ele>80.4</ele>
        <time>2013-04-25T22:24:58Z</time>
      </trkpt>
      <trkpt lat="59.9846062437" lon="15.8276998904">
        <ele>80.4</ele>
        <time>2013-04-25T22:25:03Z</time>
      </trkpt>
      <trkpt lat="59.9846002087" lon="15.8277074341">
        <ele>80.4</ele>
        <time>2013-04-25T22:25:04Z</time>
      </trkpt>
      <trkpt lat="59.9845946766" lon="15.8277140558">
        <ele>80.4</ele>
        <time>2013-04-25T22:25:05Z</time>
      </trkpt>
      <trkpt lat="59.9845923297" lon="15.8277241979">
        <ele>80.4</ele>
        <time>2013-04-25T22:25:06Z</time>
      </trkpt>
      <trkpt lat="59.9845992029" lon="15.8277104516">
        <ele>80.4</ele>
        <time>2013-04-25T22:25:07Z</time>
      </trkpt>
      <trkpt lat="59.9845892284" lon="15.8277325798">
        <ele>80.4</ele>
        <time>2013-04-25T22:25:08Z</time>
      </trkpt>
      <trkpt lat="59.9845733866" lon="15.8277584799">
        <ele>80.4</ele>
        <time>2013-04-25T22:25:09Z</time>
      </trkpt>
      <trkpt lat="59.9845691118" lon="15.827787146">
        <ele>80.4</ele>
        <time>2013-04-25T22:25:10Z</time>
      </trkpt>
      <trkpt lat="59.9845779128" lon="15.8277925942">
        <ele>80.4</ele>
        <time>2013-04-25T22:25:13Z</time>
      </trkpt>
      <trkpt lat="59.9845743924" lon="15.827797791">
        <ele>80.4</ele>
        <time>2013-04-25T22:25:14Z</time>
      </trkpt>
      <trkpt lat="59.9845676869" lon="15.8278013114">
        <ele>80.4</ele>
        <time>2013-04-25T22:25:20Z</time>
      </trkpt>
      <trkpt lat="59.9845717102" lon="15.8277941868">
        <ele>80.4</ele>
        <time>2013-04-25T22:25:21Z</time>
      </trkpt>
      <trkpt lat="59.9845711235" lon="15.8277876489">
        <ele>80.4</ele>
        <time>2013-04-25T22:25:22Z</time>
      </trkpt>
      <trkpt lat="59.9845692795" lon="15.8277863916">
        <ele>80.4</ele>
        <time>2013-04-25T22:25:23Z</time>
      </trkpt>
      <trkpt lat="59.9845707882" lon="15.8277824521">
        <ele>80.4</ele>
        <time>2013-04-25T22:25:24Z</time>
      </trkpt>
      <trkpt lat="59.9846440461" lon="15.8276475035">
        <ele>80.4</ele>
        <time>2013-04-25T22:25:25Z</time>
      </trkpt>
      <trkpt lat="59.9846483208" lon="15.8276419714">
        <ele>80.4</ele>
        <time>2013-04-25T22:25:26Z</time>
      </trkpt>
      <trkpt lat="59.9846525956" lon="15.8276369423">
        <ele>80.4</ele>
        <time>2013-04-25T22:25:27Z</time>
      </trkpt>
      <trkpt lat="59.9846800044" lon="15.8275919314">
        <ele>80.4</ele>
        <time>2013-04-25T22:25:28Z</time>
      </trkpt>
      <trkpt lat="59.9846912362" lon="15.8275808673">
        <ele>80.4</ele>
        <time>2013-04-25T22:25:29Z</time>
      </trkpt>
      <trkpt lat="59.9846954271" lon="15.8275812864">
        <ele>80.4</ele>
        <time>2013-04-25T22:25:30Z</time>
      </trkpt>
      <trkpt lat="59.984702887" lon="15.827583801">
        <ele>80.4</ele>
        <time>2013-04-25T22:25:31Z</time>
      </trkpt>
      <trkpt lat="59.9847050663" lon="15.8275900874">
        <ele>80.4</ele>
        <time>2013-04-25T22:25:32Z</time>
      </trkpt>
      <trkpt lat="59.9846962653" lon="15.827592602">
        <ele>80.4</ele>
        <time>2013-04-25T22:25:33Z</time>
      </trkpt>
      <trkpt lat="59.9846955948" lon="15.8275950328">
        <ele>80.4</ele>
        <time>2013-04-25T22:25:34Z</time>
      </trkpt>
      <trkpt lat="59.9846953433" lon="15.8275954518">
        <ele>80.4</ele>
        <time>2013-04-25T22:25:35Z</time>
      </trkpt>
      <trkpt lat="59.984702887" lon="15.8275784366">
        <ele>80.4</ele>
        <time>2013-04-25T22:25:36Z</time>
      </trkpt>
      <trkpt lat="59.9847017974" lon="15.8275729045">
        <ele>80.4</ele>
        <time>2013-04-25T22:25:37Z</time>
      </trkpt>
      <trkpt lat="59.9846997019" lon="15.8275587391">
        <ele>80.4</ele>
        <time>2013-04-25T22:25:38Z</time>
      </trkpt>
      <trkpt lat="59.9846978579" lon="15.8275279775">
        <ele>80.4</ele>
        <time>2013-04-25T22:25:40Z</time>
      </trkpt>
      <trkpt lat="59.9846993666" lon="15.8275193442">
        <ele>80.4</ele>
        <time>2013-04-25T22:25:41Z</time>
      </trkpt>
      <trkpt lat="59.9847024679" lon="15.8275151532">
        <ele>80.4</ele>
        <time>2013-04-25T22:25:42Z</time>
      </trkpt>
      <trkpt lat="59.9847059883" lon="15.8275142312">
        <ele>80.4</ele>
        <time>2013-04-25T22:25:43Z</time>
      </trkpt>
      <trkpt lat="59.9847074132" lon="15.8275173325">
        <ele>80.4</ele>
        <time>2013-04-25T22:25:44Z</time>
      </trkpt>
      <trkpt lat="59.9847071618" lon="15.8275239542">
        <ele>80.4</ele>
        <time>2013-04-25T22:25:45Z</time>
      </trkpt>
      <trkpt lat="59.9846904818" lon="15.8275448252">
        <ele>80.4</ele>
        <time>2013-04-25T22:25:46Z</time>
      </trkpt>
      <trkpt lat="59.9846823514" lon="15.8275426459">
        <ele>80.4</ele>
        <time>2013-04-25T22:25:47Z</time>
      </trkpt>
      <trkpt lat="59.9846795015" lon="15.8275450766">
        <ele>80.4</ele>
        <time>2013-04-25T22:25:48Z</time>
      </trkpt>
      <trkpt lat="59.9846777413" lon="15.8275449928">
        <ele>80.4</ele>
        <time>2013-04-25T22:25:49Z</time>
      </trkpt>
      <trkpt lat="59.9846653361" lon="15.8275465854">
        <ele>80.4</ele>
        <time>2013-04-25T22:25:50Z</time>
      </trkpt>
      <trkpt lat="59.9846567865" lon="15.8275521174">
        <ele>80.4</ele>
        <time>2013-04-25T22:25:51Z</time>
      </trkpt>
      <trkpt lat="59.9846566189" lon="15.8275481779">
        <ele>80.4</ele>
        <time>2013-04-25T22:25:52Z</time>
      </trkpt>
      <trkpt lat="59.9846584629" lon="15.8275479265">
        <ele>80.4</ele>
        <time>2013-04-25T22:25:53Z</time>
      </trkpt>
      <trkpt lat="59.9846564513" lon="15.8275538776">
        <ele>80.4</ele>
        <time>2013-04-25T22:25:54Z</time>
      </trkpt>
      <trkpt lat="59.9846168049" lon="15.8275868185">
        <ele>80.4</ele>
        <time>2013-04-25T22:25:55Z</time>
      </trkpt>
      <trkpt lat="59.984598197" lon="15.8276211843">
        <ele>80.4</ele>
        <time>2013-04-25T22:25:56Z</time>
      </trkpt>
      <trkpt lat="59.9845839478" lon="15.8276346792">
        <ele>80.4</ele>
        <time>2013-04-25T22:25:57Z</time>
      </trkpt>
      <trkpt lat="59.9845805112" lon="15.8276438992">
        <ele>80.4</ele>
        <time>2013-04-25T22:25:59Z</time>
      </trkpt>
      <trkpt lat="59.9845803436" lon="15.8276416361">
        <ele>80.4</ele>
        <time>2013-04-25T22:26:00Z</time>
      </trkpt>
      <trkpt lat="59.9845729675" lon="15.8276366908">
        <ele>80.4</ele>
        <time>2013-04-25T22:26:05Z</time>
      </trkpt>
      <trkpt lat="59.9845784996" lon="15.8275454957">
        <ele>80.4</ele>
        <time>2013-04-25T22:26:08Z</time>
      </trkpt>
      <trkpt lat="59.984572297" lon="15.8275579009">
        <ele>80.4</ele>
        <time>2013-04-25T22:26:10Z</time>
      </trkpt>
      <trkpt lat="59.984563496" lon="15.8275827952">
        <ele>80.4</ele>
        <time>2013-04-25T22:26:13Z</time>
      </trkpt>
      <trkpt lat="59.9845619872" lon="15.8275854774">
        <ele>80.4</ele>
        <time>2013-04-25T22:26:14Z</time>
      </trkpt>
      <trkpt lat="59.9845524319" lon="15.8276026603">
        <ele>80.4</ele>
        <time>2013-04-25T22:26:15Z</time>
      </trkpt>
      <trkpt lat="59.9845511746" lon="15.8275868185">
        <ele>80.4</ele>
        <time>2013-04-25T22:26:16Z</time>
      </trkpt>
      <trkpt lat="59.9845474027" lon="15.827567121">
        <ele>80.4</ele>
        <time>2013-04-25T22:26:18Z</time>
      </trkpt>
      <trkpt lat="59.9845438823" lon="15.8275735751">
        <ele>80.4</ele>
        <time>2013-04-25T22:26:19Z</time>
      </trkpt>
      <trkpt lat="59.984541703" lon="15.8275792748">
        <ele>80.4</ele>
        <time>2013-04-25T22:26:20Z</time>
      </trkpt>
      <trkpt lat="59.9845410325" lon="15.8275766764">
        <ele>80.4</ele>
        <time>2013-04-25T22:26:21Z</time>
      </trkpt>
      <trkpt lat="59.9845378473" lon="15.827575">
        <ele>80.4</ele>
        <time>2013-04-25T22:26:22Z</time>
      </trkpt>
      <trkpt lat="59.984535249" lon="15.8275719825">
        <ele>80.4</ele>
        <time>2013-04-25T22:26:23Z</time>
      </trkpt>
      <trkpt lat="59.9845368415" lon="15.8275667019">
        <ele>80.4</ele>
        <time>2013-04-25T22:26:24Z</time>
      </trkpt>
      <trkpt lat="59.9845313095" lon="15.8275423944">
        <ele>80.4</ele>
        <time>2013-04-25T22:26:28Z</time>
      </trkpt>
      <trkpt lat="59.984531058" lon="15.8275394607">
        <ele>80.4</ele>
        <time>2013-04-25T22:26:29Z</time>
      </trkpt>
      <trkpt lat="59.9845303874" lon="15.8275347669">
        <ele>80.4</ele>
        <time>2013-04-25T22:26:30Z</time>
      </trkpt>
      <trkpt lat="59.9845804274" lon="15.8275381196">
        <ele>80.4</ele>
        <time>2013-04-25T22:26:31Z</time>
      </trkpt>
      <trkpt lat="59.9846003763" lon="15.8275016584">
        <ele>80.4</ele>
        <time>2013-04-25T22:26:33Z</time>
      </trkpt>
      <trkpt lat="59.9846137036" lon="15.8274451643">
        <ele>80.4</ele>
        <time>2013-04-25T22:26:35Z</time>
      </trkpt>
      <trkpt lat="59.9846237618" lon="15.8274151571">
        <ele>80.4</ele>
        <time>2013-04-25T22:26:36Z</time>
      </trkpt>
      <trkpt lat="59.9846313056" lon="15.8274149895">
        <ele>80.4</ele>
        <time>2013-04-25T22:26:37Z</time>
      </trkpt>
      <trkpt lat="59.9846335687" lon="15.8274128102">
        <ele>80.4</ele>
        <time>2013-04-25T22:26:38Z</time>
      </trkpt>
      <trkpt lat="59.984635748" lon="15.8274067752">
        <ele>80.4</ele>
        <time>2013-04-25T22:26:39Z</time>
      </trkpt>
      <trkpt lat="59.9846379273" lon="15.8274033386">
        <ele>80.4</ele>
        <time>2013-04-25T22:26:40Z</time>
      </trkpt>
      <trkpt lat="59.9846368376" lon="15.8274084516">
        <ele>80.4</ele>
        <time>2013-04-25T22:26:41Z</time>
      </trkpt>
      <trkpt lat="59.9846323952" lon="15.8274128102">
        <ele>80.4</ele>
        <time>2013-04-25T22:26:42Z</time>
      </trkpt>
      <trkpt lat="59.9846197385" lon="15.8274358604">
        <ele>80.4</ele>
        <time>2013-04-25T22:26:43Z</time>
      </trkpt>
      <trkpt lat="59.9846124463" lon="15.8274439909">
        <ele>80.4</ele>
        <time>2013-04-25T22:26:44Z</time>
      </trkpt>
      <trkpt lat="59.9846091773" lon="15.827448098">
        <ele>80.4</ele>
        <time>2013-04-25T22:26:45Z</time>
      </trkpt>
      <trkpt lat="59.9846087582" lon="15.8274528757">
        <ele>80.4</ele>
        <time>2013-04-25T22:26:46Z</time>
      </trkpt>
      <trkpt lat="59.9846082553" lon="15.8274750877">
        <ele>80.4</ele>
        <time>2013-04-25T22:26:47Z</time>
      </trkpt>
      <trkpt lat="59.9846097641" lon="15.8274838887">
        <ele>80.4</ele>
        <time>2013-04-25T22:26:48Z</time>
      </trkpt>
      <trkpt lat="59.9846110214" lon="15.8275226131">
        <ele>80.4</ele>
        <time>2013-04-25T22:26:49Z</time>
      </trkpt>
      <trkpt lat="59.9846046511" lon="15.8275525365">
        <ele>80.4</ele>
        <time>2013-04-25T22:26:50Z</time>
      </trkpt>
      <trkpt lat="59.984584786" lon="15.8275917638">
        <ele>80.4</ele>
        <time>2013-04-25T22:26:52Z</time>
      </trkpt>
      <trkpt lat="59.984573219" lon="15.8276063483">
        <ele>80.4</ele>
        <time>2013-04-25T22:26:53Z</time>
      </trkpt>
      <trkpt lat="59.9845648371" lon="15.8276048396">
        <ele>80.4</ele>
        <time>2013-04-25T22:26:54Z</time>
      </trkpt>
      <trkpt lat="59.9845651723" lon="15.8276115451">
        <ele>80.4</ele>
        <time>2013-04-25T22:26:56Z</time>
      </trkpt>
      <trkpt lat="59.9845581315" lon="15.8276327513">
        <ele>80.4</ele>
        <time>2013-04-25T22:26:57Z</time>
      </trkpt>
      <trkpt lat="59.9845615681" lon="15.8276096173">
        <ele>80.4</ele>
        <time>2013-04-25T22:26:58Z</time>
      </trkpt>
      <trkpt lat="59.984562071" lon="15.8276003972">
        <ele>80.4</ele>
        <time>2013-04-25T22:26:59Z</time>
      </trkpt>
      <trkpt lat="59.9845624063" lon="15.8275789395">
        <ele>80.4</ele>
        <time>2013-04-25T22:27:00Z</time>
      </trkpt>
      <trkpt lat="59.9845613167" lon="15.8275728207">
        <ele>80.4</ele>
        <time>2013-04-25T22:27:01Z</time>
      </trkpt>
      <trkpt lat="59.9845619034" lon="15.8275703061">
        <ele>80.4</ele>
        <time>2013-04-25T22:27:02Z</time>
      </trkpt>
      <trkpt lat="59.9845671002" lon="15.8275786042">
        <ele>80.4</ele>
        <time>2013-04-25T22:27:03Z</time>
      </trkpt>
      <trkpt lat="59.9845788348" lon="15.8275803644">
        <ele>80.4</ele>
        <time>2013-04-25T22:27:05Z</time>
      </trkpt>
      <trkpt lat="59.9845843669" lon="15.8275750838">
        <ele>80.4</ele>
        <time>2013-04-25T22:27:08Z</time>
      </trkpt>
      <trkpt lat="59.9845846184" lon="15.827568043">
        <ele>80.4</ele>
        <time>2013-04-25T22:27:09Z</time>
      </trkpt>
      <trkpt lat="59.9845794216" lon="15.8275860641">
        <ele>80.4</ele>
        <time>2013-04-25T22:27:10Z</time>
      </trkpt>
      <trkpt lat="59.9845815171" lon="15.8275791071">
        <ele>80.4</ele>
        <time>2013-04-25T22:27:11Z</time>
      </trkpt>
      <trkpt lat="59.9845862947" lon="15.827579191">
        <ele>80.4</ele>
        <time>2013-04-25T22:27:13Z</time>
      </trkpt>
      <trkpt lat="59.9845892284" lon="15.8275788557">
        <ele>80.4</ele>
        <time>2013-04-25T22:27:14Z</time>
      </trkpt>
      <trkpt lat="59.9845821038" lon="15.8276331704">
        <ele>80.4</ele>
        <time>2013-04-25T22:27:15Z</time>
      </trkpt>
      <trkpt lat="59.9845904019" lon="15.8276688773">
        <ele>80.4</ele>
        <time>2013-04-25T22:27:17Z</time>
      </trkpt>
      <trkpt lat="59.9845921621" lon="15.8276665304">
        <ele>80.4</ele>
        <time>2013-04-25T22:27:19Z</time>
      </trkpt>
      <trkpt lat="59.9845967721" lon="15.827661166">
        <ele>80.4</ele>
        <time>2013-04-25T22:27:23Z</time>
      </trkpt>
      <trkpt lat="59.984591743" lon="15.827658819">
        <ele>80.4</ele>
        <time>2013-04-25T22:27:26Z</time>
      </trkpt>
      <trkpt lat="59.9845898151" lon="15.8276619203">
        <ele>80.4</ele>
        <time>2013-04-25T22:27:27Z</time>
      </trkpt>
      <trkpt lat="59.9845712073" lon="15.8277017344">
        <ele>80.4</ele>
        <time>2013-04-25T22:27:29Z</time>
      </trkpt>
      <trkpt lat="59.9845628254" lon="15.8276996389">
        <ele>80.4</ele>
        <time>2013-04-25T22:27:30Z</time>
      </trkpt>
      <trkpt lat="59.9845597241" lon="15.8276990522">
        <ele>80.4</ele>
        <time>2013-04-25T22:27:31Z</time>
      </trkpt>
      <trkpt lat="59.9845587183" lon="15.8276936039">
        <ele>80.4</ele>
        <time>2013-04-25T22:27:32Z</time>
      </trkpt>
      <trkpt lat="59.984559305" lon="15.8276902512">
        <ele>80.4</ele>
        <time>2013-04-25T22:27:33Z</time>
      </trkpt>
      <trkpt lat="59.9845615681" lon="15.8276915085">
        <ele>80.4</ele>
        <time>2013-04-25T22:27:34Z</time>
      </trkpt>
      <trkpt lat="59.9845630769" lon="15.8276925981">
        <ele>80.4</ele>
        <time>2013-04-25T22:27:35Z</time>
      </trkpt>
      <trkpt lat="59.9845648371" lon="15.8276902512">
        <ele>80.4</ele>
        <time>2013-04-25T22:27:36Z</time>
      </trkpt>
      <trkpt lat="59.9845448881" lon="15.8277308196">
        <ele>80.4</ele>
        <time>2013-04-25T22:27:37Z</time>
      </trkpt>
      <trkpt lat="59.9845422059" lon="15.827731574">
        <ele>80.4</ele>
        <time>2013-04-25T22:27:38Z</time>
      </trkpt>
      <trkpt lat="59.9845399428" lon="15.8277319092">
        <ele>80.4</ele>
        <time>2013-04-25T22:27:39Z</time>
      </trkpt>
      <trkpt lat="59.9845391046" lon="15.8277381118">
        <ele>80.4</ele>
        <time>2013-04-25T22:27:40Z</time>
      </trkpt>
      <trkpt lat="59.9845400266" lon="15.8277430572">
        <ele>80.4</ele>
        <time>2013-04-25T22:27:41Z</time>
      </trkpt>
      <trkpt lat="59.9845427088" lon="15.8277338371">
        <ele>80.4</ele>
        <time>2013-04-25T22:27:42Z</time>
      </trkpt>
      <trkpt lat="59.9845587183" lon="15.8277215995">
        <ele>80.4</ele>
        <time>2013-04-25T22:27:46Z</time>
      </trkpt>
      <trkpt lat="59.9845604785" lon="15.8277184982">
        <ele>80.4</ele>
        <time>2013-04-25T22:27:47Z</time>
      </trkpt>
      <trkpt lat="59.9845582154" lon="15.8277126309">
        <ele>80.4</ele>
        <time>2013-04-25T22:27:48Z</time>
      </trkpt>
      <trkpt lat="59.9845616519" lon="15.8277069312">
        <ele>80.4</ele>
        <time>2013-04-25T22:27:49Z</time>
      </trkpt>
      <trkpt lat="59.984563496" lon="15.8277015667">
        <ele>80.4</ele>
        <time>2013-04-25T22:27:50Z</time>
      </trkpt>
      <trkpt lat="59.9845605623" lon="15.8276842162">
        <ele>80.4</ele>
        <time>2013-04-25T22:27:51Z</time>
      </trkpt>
      <trkpt lat="59.9845623225" lon="15.8276788518">
        <ele>80.4</ele>
        <time>2013-04-25T22:27:52Z</time>
      </trkpt>
      <trkpt lat="59.9845627416" lon="15.8276775945">
        <ele>80.4</ele>
        <time>2013-04-25T22:27:53Z</time>
      </trkpt>
      <trkpt lat="59.9845613167" lon="15.8276785165">
        <ele>80.4</ele>
        <time>2013-04-25T22:27:54Z</time>
      </trkpt>
      <trkpt lat="59.9845595565" lon="15.8276777621">
        <ele>80.4</ele>
        <time>2013-04-25T22:27:55Z</time>
      </trkpt>
      <trkpt lat="59.9845567904" lon="15.8276806958">
        <ele>80.4</ele>
        <time>2013-04-25T22:27:56Z</time>
      </trkpt>
      <trkpt lat="59.9845603108" lon="15.8276817854">
        <ele>80.4</ele>
        <time>2013-04-25T22:27:57Z</time>
      </trkpt>
      <trkpt lat="59.9845604785" lon="15.8276825398">
        <ele>80.4</ele>
        <time>2013-04-25T22:27:58Z</time>
      </trkpt>
      <trkpt lat="59.984560227" lon="15.8276811987">
        <ele>80.4</ele>
        <time>2013-04-25T22:27:59Z</time>
      </trkpt>
      <trkpt lat="59.984562071" lon="15.8276749961">
        <ele>80.4</ele>
        <time>2013-04-25T22:28:00Z</time>
      </trkpt>
      <trkpt lat="59.9845633283" lon="15.8276704699">
        <ele>80.4</ele>
        <time>2013-04-25T22:28:01Z</time>
      </trkpt>
      <trkpt lat="59.9845627416" lon="15.8276658598">
        <ele>80.4</ele>
        <time>2013-04-25T22:28:02Z</time>
      </trkpt>
      <trkpt lat="59.9845642503" lon="15.8276633453">
        <ele>80.4</ele>
        <time>2013-04-25T22:28:03Z</time>
      </trkpt>
      <trkpt lat="59.9845686927" lon="15.8276582323">
        <ele>80.4</ele>
        <time>2013-04-25T22:28:04Z</time>
      </trkpt>
      <trkpt lat="59.9845696148" lon="15.827656053">
        <ele>80.4</ele>
        <time>2013-04-25T22:28:05Z</time>
      </trkpt>
      <trkpt lat="59.9845705368" lon="15.8276571427">
        <ele>80.4</ele>
        <time>2013-04-25T22:28:06Z</time>
      </trkpt>
      <trkpt lat="59.984571794" lon="15.8276600763">
        <ele>80.4</ele>
        <time>2013-04-25T22:28:07Z</time>
      </trkpt>
      <trkpt lat="59.9845925812" lon="15.8276781812">
        <ele>80.4</ele>
        <time>2013-04-25T22:28:09Z</time>
      </trkpt>
      <trkpt lat="59.9846050702" lon="15.8276785165">
        <ele>80.4</ele>
        <time>2013-04-25T22:28:12Z</time>
      </trkpt>
      <trkpt lat="59.984608423" lon="15.827677343">
        <ele>80.4</ele>
        <time>2013-04-25T22:28:14Z</time>
      </trkpt>
      <trkpt lat="59.9845950957" lon="15.827705171">
        <ele>80.4</ele>
        <time>2013-04-25T22:28:15Z</time>
      </trkpt>
      <trkpt lat="59.9845933355" lon="15.8277052548">
        <ele>80.4</ele>
        <time>2013-04-25T22:28:16Z</time>
      </trkpt>
      <trkpt lat="59.9845939223" lon="15.8276970405">
        <ele>80.4</ele>
        <time>2013-04-25T22:28:17Z</time>
      </trkpt>
      <trkpt lat="59.9845955148" lon="15.8276911732">
        <ele>80.4</ele>
        <time>2013-04-25T22:28:18Z</time>
      </trkpt>
      <trkpt lat="59.9845960177" lon="15.8276871499">
        <ele>80.4</ele>
        <time>2013-04-25T22:28:19Z</time>
      </trkpt>
      <trkpt lat="59.9845952634" lon="15.8276901674">
        <ele>80.4</ele>
        <time>2013-04-25T22:28:20Z</time>
      </trkpt>
      <trkpt lat="59.9845966045" lon="15.827691257">
        <ele>80.4</ele>
        <time>2013-04-25T22:28:21Z</time>
      </trkpt>
      <trkpt lat="59.9845995381" lon="15.8277124632">
        <ele>80.4</ele>
        <time>2013-04-25T22:28:22Z</time>
      </trkpt>
      <trkpt lat="59.9846031424" lon="15.8277095295">
        <ele>80.4</ele>
        <time>2013-04-25T22:28:23Z</time>
      </trkpt>
      <trkpt lat="59.9846030585" lon="15.8277042489">
        <ele>80.4</ele>
        <time>2013-04-25T22:28:24Z</time>
      </trkpt>
      <trkpt lat="59.9846018013" lon="15.8277024049">
        <ele>80.4</ele>
        <time>2013-04-25T22:28:25Z</time>
      </trkpt>
      <trkpt lat="59.984600544" lon="15.8277002256">
        <ele>80.4</ele>
        <time>2013-04-25T22:28:26Z</time>
      </trkpt>
      <trkpt lat="59.9845993705" lon="15.8277013153">
        <ele>80.4</ele>
        <time>2013-04-25T22:28:27Z</time>
      </trkpt>
      <trkpt lat="59.984600544" lon="15.8277003933">
        <ele>80.4</ele>
        <time>2013-04-25T22:28:28Z</time>
      </trkpt>
      <trkpt lat="59.984602388" lon="15.827699136">
        <ele>80.4</ele>
        <time>2013-04-25T22:28:29Z</time>
      </trkpt>
      <trkpt lat="59.9846029747" lon="15.8276941068">
        <ele>80.4</ele>
        <time>2013-04-25T22:28:30Z</time>
      </trkpt>
      <trkpt lat="59.9846023042" lon="15.8276927657">
        <ele>80.4</ele>
        <time>2013-04-25T22:28:31Z</time>
      </trkpt>
      <trkpt lat="59.9845988676" lon="15.8276741579">
        <ele>80.4</ele>
        <time>2013-04-25T22:28:35Z</time>
      </trkpt>
      <trkpt lat="59.9845957663" lon="15.8276803605">
        <ele>80.4</ele>
        <time>2013-04-25T22:28:36Z</time>
      </trkpt>
      <trkpt lat="59.984592665" lon="15.8276829589">
        <ele>80.4</ele>
        <time>2013-04-25T22:28:37Z</time>
      </trkpt>
      <trkpt lat="59.9845714588" lon="15.8276916761">
        <ele>80.4</ele>
        <time>2013-04-25T22:28:38Z</time>
      </trkpt>
      <trkpt lat="59.9845696148" lon="15.8276925143">
        <ele>80.4</ele>
        <time>2013-04-25T22:28:39Z</time>
      </trkpt>
      <trkpt lat="59.9845681898" lon="15.8276887424">
        <ele>80.4</ele>
        <time>2013-04-25T22:28:40Z</time>
      </trkpt>
      <trkpt lat="59.9845702015" lon="15.8276825398">
        <ele>80.4</ele>
        <time>2013-04-25T22:28:41Z</time>
      </trkpt>
      <trkpt lat="59.9845831934" lon="15.8276768401">
        <ele>80.4</ele>
        <time>2013-04-25T22:28:45Z</time>
      </trkpt>
      <trkpt lat="59.9846035615" lon="15.8276731521">
        <ele>80.4</ele>
        <time>2013-04-25T22:28:48Z</time>
      </trkpt>
      <trkpt lat="59.9846100993" lon="15.8276698831">
        <ele>80.4</ele>
        <time>2013-04-25T22:28:50Z</time>
      </trkpt>
      <trkpt lat="59.9846105184" lon="15.8276689611">
        <ele>80.4</ele>
        <time>2013-04-25T22:28:51Z</time>
      </trkpt>
      <trkpt lat="59.9846100993" lon="15.8276683744">
        <ele>80.4</ele>
        <time>2013-04-25T22:28:52Z</time>
      </trkpt>
      <trkpt lat="59.9846098479" lon="15.8276683744">
        <ele>80.4</ele>
        <time>2013-04-25T22:28:53Z</time>
      </trkpt>
      <trkpt lat="59.9846114404" lon="15.8276619203">
        <ele>80.4</ele>
        <time>2013-04-25T22:28:54Z</time>
      </trkpt>
      <trkpt lat="59.9846117757" lon="15.8276598249">
        <ele>80.4</ele>
        <time>2013-04-25T22:28:55Z</time>
      </trkpt>
      <trkpt lat="59.9846170563" lon="15.8276577294">
        <ele>80.4</ele>
        <time>2013-04-25T22:28:57Z</time>
      </trkpt>
      <trkpt lat="59.9846189003" lon="15.8276675362">
        <ele>80.4</ele>
        <time>2013-04-25T22:28:59Z</time>
      </trkpt>
      <trkpt lat="59.9846160505" lon="15.827673655">
        <ele>80.4</ele>
        <time>2013-04-25T22:29:00Z</time>
      </trkpt>
      <trkpt lat="59.9846126977" lon="15.8276780136">
        <ele>80.4</ele>
        <time>2013-04-25T22:29:01Z</time>
      </trkpt>
      <trkpt lat="59.984612111" lon="15.8276822884">
        <ele>80.4</ele>
        <time>2013-04-25T22:29:02Z</time>
      </trkpt>
      <trkpt lat="59.9846118595" lon="15.8276850544">
        <ele>80.4</ele>
        <time>2013-04-25T22:29:03Z</time>
      </trkpt>
      <trkpt lat="59.9846054893" lon="15.8276977949">
        <ele>80.4</ele>
        <time>2013-04-25T22:29:04Z</time>
      </trkpt>
      <trkpt lat="59.984606076" lon="15.8277043328">
        <ele>80.4</ele>
        <time>2013-04-25T22:29:05Z</time>
      </trkpt>
      <trkpt lat="59.9846080039" lon="15.8277056739">
        <ele>80.4</ele>
        <time>2013-04-25T22:29:06Z</time>
      </trkpt>
      <trkpt lat="59.984612111" lon="15.8277007286">
        <ele>80.4</ele>
        <time>2013-04-25T22:29:09Z</time>
      </trkpt>
      <trkpt lat="59.9846129492" lon="15.827697292">
        <ele>80.4</ele>
        <time>2013-04-25T22:29:10Z</time>
      </trkpt>
      <trkpt lat="59.9846115243" lon="15.8276988007">
        <ele>80.4</ele>
        <time>2013-04-25T22:29:11Z</time>
      </trkpt>
      <trkpt lat="59.984611189" lon="15.8276986331">
        <ele>80.4</ele>
        <time>2013-04-25T22:29:12Z</time>
      </trkpt>
      <trkpt lat="59.9846149608" lon="15.8276997227">
        <ele>80.4</ele>
        <time>2013-04-25T22:29:13Z</time>
      </trkpt>
      <trkpt lat="59.9846183136" lon="15.8277007286">
        <ele>80.4</ele>
        <time>2013-04-25T22:29:14Z</time>
      </trkpt>
      <trkpt lat="59.9846261088" lon="15.8276910055">
        <ele>80.4</ele>
        <time>2013-04-25T22:29:15Z</time>
      </trkpt>
      <trkpt lat="59.9846257735" lon="15.8276920114">
        <ele>80.4</ele>
        <time>2013-04-25T22:29:16Z</time>
      </trkpt>
      <trkpt lat="59.9846256897" lon="15.8276970405">
        <ele>80.4</ele>
        <time>2013-04-25T22:29:17Z</time>
      </trkpt>
      <trkpt lat="59.9846261088" lon="15.8277015667">
        <ele>80.4</ele>
        <time>2013-04-25T22:29:18Z</time>
      </trkpt>
      <trkpt lat="59.9846304674" lon="15.8277078532">
        <ele>80.4</ele>
        <time>2013-04-25T22:29:19Z</time>
      </trkpt>
      <trkpt lat="59.9846237618" lon="15.8277081046">
        <ele>80.4</ele>
        <time>2013-04-25T22:29:20Z</time>
      </trkpt>
      <trkpt lat="59.9846229237" lon="15.8277154807">
        <ele>80.4</ele>
        <time>2013-04-25T22:29:21Z</time>
      </trkpt>
      <trkpt lat="59.9846193194" lon="15.8277083561">
        <ele>80.4</ele>
        <time>2013-04-25T22:29:22Z</time>
      </trkpt>
      <trkpt lat="59.9846182298" lon="15.8277083561">
        <ele>80.4</ele>
        <time>2013-04-25T22:29:23Z</time>
      </trkpt>
      <trkpt lat="59.9846217502" lon="15.8277068473">
        <ele>80.4</ele>
        <time>2013-04-25T22:29:24Z</time>
      </trkpt>
      <trkpt lat="59.9846237618" lon="15.8277096134">
        <ele>80.4</ele>
        <time>2013-04-25T22:29:25Z</time>
      </trkpt>
      <trkpt lat="59.9846156314" lon="15.8276938554">
        <ele>80.4</ele>
        <time>2013-04-25T22:29:26Z</time>
      </trkpt>
      <trkpt lat="59.9846158829" lon="15.8276868146">
        <ele>80.4</ele>
        <time>2013-04-25T22:29:27Z</time>
      </trkpt>
      <trkpt lat="59.9846159667" lon="15.8276915923">
        <ele>80.4</ele>
        <time>2013-04-25T22:29:28Z</time>
      </trkpt>
      <trkpt lat="59.9846092612" lon="15.8276813664">
        <ele>80.4</ele>
        <time>2013-04-25T22:29:29Z</time>
      </trkpt>
      <trkpt lat="59.9846056569" lon="15.8276807796">
        <ele>80.4</ele>
        <time>2013-04-25T22:29:30Z</time>
      </trkpt>
      <trkpt lat="59.9845956825" lon="15.827675499">
        <ele>80.4</ele>
        <time>2013-04-25T22:29:31Z</time>
      </trkpt>
      <trkpt lat="59.9845924973" lon="15.8276704699">
        <ele>80.4</ele>
        <time>2013-04-25T22:29:32Z</time>
      </trkpt>
      <trkpt lat="59.984589396" lon="15.8276681229">
        <ele>80.4</ele>
        <time>2013-04-25T22:29:33Z</time>
      </trkpt>
      <trkpt lat="59.9845881388" lon="15.8276646864">
        <ele>80.4</ele>
        <time>2013-04-25T22:29:34Z</time>
      </trkpt>
      <trkpt lat="59.9845889769" lon="15.827666698">
        <ele>80.4</ele>
        <time>2013-04-25T22:29:35Z</time>
      </trkpt>
      <trkpt lat="59.9845895637" lon="15.8276717272">
        <ele>80.4</ele>
        <time>2013-04-25T22:29:36Z</time>
      </trkpt>
      <trkpt lat="59.9845880549" lon="15.8276758343">
        <ele>80.4</ele>
        <time>2013-04-25T22:29:37Z</time>
      </trkpt>
      <trkpt lat="59.9845764879" lon="15.8276695479">
        <ele>80.4</ele>
        <time>2013-04-25T22:29:38Z</time>
      </trkpt>
      <trkpt lat="59.9845680222" lon="15.8276715595">
        <ele>80.4</ele>
        <time>2013-04-25T22:29:39Z</time>
      </trkpt>
      <trkpt lat="59.9845665973" lon="15.8276609983">
        <ele>80.4</ele>
        <time>2013-04-25T22:29:40Z</time>
      </trkpt>
      <trkpt lat="59.9845621549" lon="15.8276694641">
        <ele>80.4</ele>
        <time>2013-04-25T22:29:41Z</time>
      </trkpt>
      <trkpt lat="59.9845623225" lon="15.8276785165">
        <ele>80.4</ele>
        <time>2013-04-25T22:29:42Z</time>
      </trkpt>
      <trkpt lat="59.9845600594" lon="15.8276827913">
        <ele>80.4</ele>
        <time>2013-04-25T22:29:43Z</time>
      </trkpt>
      <trkpt lat="59.9845581315" lon="15.8276794385">
        <ele>80.4</ele>
        <time>2013-04-25T22:29:44Z</time>
      </trkpt>
      <trkpt lat="59.9845569581" lon="15.827677343">
        <ele>80.4</ele>
        <time>2013-04-25T22:29:45Z</time>
      </trkpt>
      <trkpt lat="59.9845567066" lon="15.827677343">
        <ele>80.4</ele>
        <time>2013-04-25T22:29:46Z</time>
      </trkpt>
      <trkpt lat="59.9845668487" lon="15.8276883233">
        <ele>80.4</ele>
        <time>2013-04-25T22:29:47Z</time>
      </trkpt>
      <trkpt lat="59.9845755659" lon="15.827698214">
        <ele>80.4</ele>
        <time>2013-04-25T22:29:50Z</time>
      </trkpt>
      <trkpt lat="59.9845903181" lon="15.8276858926">
        <ele>80.4</ele>
        <time>2013-04-25T22:29:54Z</time>
      </trkpt>
      <trkpt lat="59.9845916592" lon="15.8277013153">
        <ele>80.4</ele>
        <time>2013-04-25T22:29:55Z</time>
      </trkpt>
      <trkpt lat="59.9845987" lon="15.8277038299">
        <ele>80.4</ele>
        <time>2013-04-25T22:29:56Z</time>
      </trkpt>
      <trkpt lat="59.9845964368" lon="15.8277048357">
        <ele>80.4</ele>
        <time>2013-04-25T22:29:58Z</time>
      </trkpt>
      <trkpt lat="59.984583864" lon="15.8276883233">
        <ele>80.4</ele>
        <time>2013-04-25T22:29:59Z</time>
      </trkpt>
      <trkpt lat="59.9845795054" lon="15.8276838809">
        <ele>80.4</ele>
        <time>2013-04-25T22:30:00Z</time>
      </trkpt>
      <trkpt lat="59.9845792539" lon="15.8276854735">
        <ele>80.4</ele>
        <time>2013-04-25T22:30:01Z</time>
      </trkpt>
      <trkpt lat="59.9845800921" lon="15.8276885748">
        <ele>80.4</ele>
        <time>2013-04-25T22:30:02Z</time>
      </trkpt>
      <trkpt lat="59.9845923297" lon="15.8277029917">
        <ele>80.4</ele>
        <time>2013-04-25T22:30:03Z</time>
      </trkpt>
      <trkpt lat="59.9845968559" lon="15.8277142234">
        <ele>80.4</ele>
        <time>2013-04-25T22:30:06Z</time>
      </trkpt>
      <trkpt lat="59.9845971074" lon="15.8277160674">
        <ele>80.4</ele>
        <time>2013-04-25T22:30:07Z</time>
      </trkpt>
      <trkpt lat="59.9845965207" lon="15.8277143072">
        <ele>80.4</ele>
        <time>2013-04-25T22:30:08Z</time>
      </trkpt>
      <trkpt lat="59.9845883064" lon="15.8277111221">
        <ele>80.4</ele>
        <time>2013-04-25T22:30:09Z</time>
      </trkpt>
      <trkpt lat="59.9845846184" lon="15.8277106192">
        <ele>80.4</ele>
        <time>2013-04-25T22:30:10Z</time>
      </trkpt>
      <trkpt lat="59.984582942" lon="15.8277065121">
        <ele>80.4</ele>
        <time>2013-04-25T22:30:11Z</time>
      </trkpt>
      <trkpt lat="59.984580595" lon="15.8277005609">
        <ele>80.4</ele>
        <time>2013-04-25T22:30:12Z</time>
      </trkpt>
      <trkpt lat="59.9845815171" lon="15.827700058">
        <ele>80.4</ele>
        <time>2013-04-25T22:30:13Z</time>
      </trkpt>
      <trkpt lat="59.984582942" lon="15.8276986331">
        <ele>80.4</ele>
        <time>2013-04-25T22:30:16Z</time>
      </trkpt>
      <trkpt lat="59.9845856242" lon="15.8277035784">
        <ele>80.4</ele>
        <time>2013-04-25T22:30:19Z</time>
      </trkpt>
      <trkpt lat="59.9845843669" lon="15.8277065121">
        <ele>80.4</ele>
        <time>2013-04-25T22:30:22Z</time>
      </trkpt>
      <trkpt lat="59.9845853727" lon="15.8277048357">
        <ele>80.4</ele>
        <time>2013-04-25T22:30:23Z</time>
      </trkpt>
      <trkpt lat="59.9845862947" lon="15.8277076855">
        <ele>80.4</ele>
        <time>2013-04-25T22:30:24Z</time>
      </trkpt>
      <trkpt lat="59.9845857918" lon="15.8277127985">
        <ele>80.4</ele>
        <time>2013-04-25T22:30:25Z</time>
      </trkpt>
      <trkpt lat="59.9845854566" lon="15.8277133852">
        <ele>80.4</ele>
        <time>2013-04-25T22:30:26Z</time>
      </trkpt>
      <trkpt lat="59.9845841154" lon="15.8277131338">
        <ele>80.4</ele>
        <time>2013-04-25T22:30:27Z</time>
      </trkpt>
      <trkpt lat="59.9845822714" lon="15.8277150616">
        <ele>80.4</ele>
        <time>2013-04-25T22:30:28Z</time>
      </trkpt>
      <trkpt lat="59.9845901504" lon="15.8276872337">
        <ele>80.4</ele>
        <time>2013-04-25T22:30:29Z</time>
      </trkpt>
      <trkpt lat="59.9845935032" lon="15.8276823722">
        <ele>80.4</ele>
        <time>2013-04-25T22:30:30Z</time>
      </trkpt>
      <trkpt lat="59.9845930841" lon="15.8276876528">
        <ele>80.4</ele>
        <time>2013-04-25T22:30:31Z</time>
      </trkpt>
      <trkpt lat="59.9845927488" lon="15.8276948612">
        <ele>80.4</ele>
        <time>2013-04-25T22:30:32Z</time>
      </trkpt>
      <trkpt lat="59.9845906533" lon="15.8276998904">
        <ele>80.4</ele>
        <time>2013-04-25T22:30:33Z</time>
      </trkpt>
      <trkpt lat="59.9845883902" lon="15.8277048357">
        <ele>80.4</ele>
        <time>2013-04-25T22:30:34Z</time>
      </trkpt>
      <trkpt lat="59.9845872167" lon="15.8277102839">
        <ele>80.4</ele>
        <time>2013-04-25T22:30:35Z</time>
      </trkpt>
      <trkpt lat="59.984587552" lon="15.8277130499">
        <ele>80.4</ele>
        <time>2013-04-25T22:30:36Z</time>
      </trkpt>
      <trkpt lat="59.9845880549" lon="15.8277169894">
        <ele>80.4</ele>
        <time>2013-04-25T22:30:37Z</time>
      </trkpt>
      <trkpt lat="59.9845876358" lon="15.8277196717">
        <ele>80.4</ele>
        <time>2013-04-25T22:30:38Z</time>
      </trkpt>
      <trkpt lat="59.9845878035" lon="15.8277210966">
        <ele>80.4</ele>
        <time>2013-04-25T22:30:39Z</time>
      </trkpt>
      <trkpt lat="59.9845882226" lon="15.8277215995">
        <ele>80.4</ele>
        <time>2013-04-25T22:30:40Z</time>
      </trkpt>
      <trkpt lat="59.9845888093" lon="15.8277240302">
        <ele>80.4</ele>
        <time>2013-04-25T22:30:41Z</time>
      </trkpt>
      <trkpt lat="59.9845898151" lon="15.8277267963">
        <ele>80.4</ele>
        <time>2013-04-25T22:30:42Z</time>
      </trkpt>
      <trkpt lat="59.9845923297" lon="15.8277280536">
        <ele>80.4</ele>
        <time>2013-04-25T22:30:43Z</time>
      </trkpt>
      <trkpt lat="59.984593587" lon="15.8277274668">
        <ele>80.4</ele>
        <time>2013-04-25T22:30:45Z</time>
      </trkpt>
      <trkpt lat="59.9845910724" lon="15.8277286403">
        <ele>80.4</ele>
        <time>2013-04-25T22:30:46Z</time>
      </trkpt>
      <trkpt lat="59.9845910724" lon="15.8277287241">
        <ele>80.4</ele>
        <time>2013-04-25T22:30:47Z</time>
      </trkpt>
      <trkpt lat="59.9845928326" lon="15.8277262934">
        <ele>80.4</ele>
        <time>2013-04-25T22:30:48Z</time>
      </trkpt>
      <trkpt lat="59.9845936708" lon="15.8277270477">
        <ele>80.4</ele>
        <time>2013-04-25T22:30:49Z</time>
      </trkpt>
      <trkpt lat="59.9845948443" lon="15.827730149">
        <ele>80.4</ele>
        <time>2013-04-25T22:30:50Z</time>
      </trkpt>
      <trkpt lat="59.984594509" lon="15.8277321607">
        <ele>80.4</ele>
        <time>2013-04-25T22:30:51Z</time>
      </trkpt>
      <trkpt lat="59.9845925812" lon="15.8277288917">
        <ele>80.4</ele>
        <time>2013-04-25T22:30:52Z</time>
      </trkpt>
      <trkpt lat="59.984591743" lon="15.8277313225">
        <ele>80.4</ele>
        <time>2013-04-25T22:30:53Z</time>
      </trkpt>
      <trkpt lat="59.9845909886" lon="15.8277346753">
        <ele>80.4</ele>
        <time>2013-04-25T22:30:54Z</time>
      </trkpt>
      <trkpt lat="59.9845906533" lon="15.8277378604">
        <ele>80.4</ele>
        <time>2013-04-25T22:30:55Z</time>
      </trkpt>
      <trkpt lat="59.9845913239" lon="15.8277423028">
        <ele>80.4</ele>
        <time>2013-04-25T22:30:56Z</time>
      </trkpt>
      <trkpt lat="59.9845916592" lon="15.8277464937">
        <ele>80.4</ele>
        <time>2013-04-25T22:30:57Z</time>
      </trkpt>
      <trkpt lat="59.984591743" lon="15.8277496789">
        <ele>80.4</ele>
        <time>2013-04-25T22:30:58Z</time>
      </trkpt>
      <trkpt lat="59.9845920783" lon="15.8277518582">
        <ele>80.4</ele>
        <time>2013-04-25T22:30:59Z</time>
      </trkpt>
      <trkpt lat="59.9845909048" lon="15.8277526125">
        <ele>80.4</ele>
        <time>2013-04-25T22:31:00Z</time>
      </trkpt>
      <trkpt lat="59.9845990352" lon="15.8277455717">
        <ele>80.4</ele>
        <time>2013-04-25T22:31:04Z</time>
      </trkpt>
      <trkpt lat="59.9846043997" lon="15.8277091943">
        <ele>80.4</ele>
        <time>2013-04-25T22:31:08Z</time>
      </trkpt>
      <trkpt lat="59.9846064113" lon="15.8277234435">
        <ele>80.4</ele>
        <time>2013-04-25T22:31:11Z</time>
      </trkpt>
      <trkpt lat="59.984606076" lon="15.8277183305">
        <ele>80.4</ele>
        <time>2013-04-25T22:31:17Z</time>
      </trkpt>
      <trkpt lat="59.984605154" lon="15.8277214319">
        <ele>80.4</ele>
        <time>2013-04-25T22:31:18Z</time>
      </trkpt>
      <trkpt lat="59.9846056569" lon="15.8277219348">
        <ele>80.4</ele>
        <time>2013-04-25T22:31:19Z</time>
      </trkpt>
      <trkpt lat="59.9846061599" lon="15.8277221024">
        <ele>80.4</ele>
        <time>2013-04-25T22:31:20Z</time>
      </trkpt>
      <trkpt lat="59.9846059922" lon="15.8277228568">
        <ele>80.4</ele>
        <time>2013-04-25T22:31:21Z</time>
      </trkpt>
      <trkpt lat="59.9846064113" lon="15.8277239464">
        <ele>80.4</ele>
        <time>2013-04-25T22:31:22Z</time>
      </trkpt>
      <trkpt lat="59.9846054893" lon="15.8277265448">
        <ele>80.4</ele>
        <time>2013-04-25T22:31:23Z</time>
      </trkpt>
      <trkpt lat="59.9846031424" lon="15.8277298138">
        <ele>80.4</ele>
        <time>2013-04-25T22:31:24Z</time>
      </trkpt>
      <trkpt lat="59.9846022204" lon="15.8277322445">
        <ele>80.4</ele>
        <time>2013-04-25T22:31:25Z</time>
      </trkpt>
      <trkpt lat="59.9846020527" lon="15.8277345076">
        <ele>80.4</ele>
        <time>2013-04-25T22:31:26Z</time>
      </trkpt>
      <trkpt lat="59.9846021365" lon="15.8277349267">
        <ele>80.4</ele>
        <time>2013-04-25T22:31:27Z</time>
      </trkpt>
      <trkpt lat="59.9846028909" lon="15.8277336694">
        <ele>80.4</ele>
        <time>2013-04-25T22:31:28Z</time>
      </trkpt>
      <trkpt lat="59.9846079201" lon="15.8277267125">
        <ele>80.4</ele>
        <time>2013-04-25T22:31:34Z</time>
      </trkpt>
      <trkpt lat="59.984606998" lon="15.8277293947">
        <ele>80.4</ele>
        <time>2013-04-25T22:31:35Z</time>
      </trkpt>
      <trkpt lat="59.9846050702" lon="15.8277328312">
        <ele>80.4</ele>
        <time>2013-04-25T22:31:36Z</time>
      </trkpt>
      <trkpt lat="59.9846043158" lon="15.8277357649">
        <ele>80.4</ele>
        <time>2013-04-25T22:31:37Z</time>
      </trkpt>
      <trkpt lat="59.9846058246" lon="15.8277350944">
        <ele>80.4</ele>
        <time>2013-04-25T22:31:38Z</time>
      </trkpt>
      <trkpt lat="59.9846024718" lon="15.8277429733">
        <ele>80.4</ele>
        <time>2013-04-25T22:31:42Z</time>
      </trkpt>
      <trkpt lat="59.9846002087" lon="15.8277459908">
        <ele>80.4</ele>
        <time>2013-04-25T22:31:43Z</time>
      </trkpt>
      <trkpt lat="59.9846017174" lon="15.8277443144">
        <ele>80.4</ele>
        <time>2013-04-25T22:31:44Z</time>
      </trkpt>
      <trkpt lat="59.9846026395" lon="15.8277425542">
        <ele>80.4</ele>
        <time>2013-04-25T22:31:45Z</time>
      </trkpt>
      <trkpt lat="59.9846028071" lon="15.8277432248">
        <ele>80.4</ele>
        <time>2013-04-25T22:31:46Z</time>
      </trkpt>
      <trkpt lat="59.9846034776" lon="15.8277442306">
        <ele>80.4</ele>
        <time>2013-04-25T22:31:47Z</time>
      </trkpt>
      <trkpt lat="59.9846027233" lon="15.8277450688">
        <ele>80.4</ele>
        <time>2013-04-25T22:31:48Z</time>
      </trkpt>
      <trkpt lat="59.9846024718" lon="15.8277452365">
        <ele>80.4</ele>
        <time>2013-04-25T22:31:49Z</time>
      </trkpt>
      <trkpt lat="59.9846032262" lon="15.8277436439">
        <ele>80.4</ele>
        <time>2013-04-25T22:31:50Z</time>
      </trkpt>
      <trkpt lat="59.9846039806" lon="15.8277433924">
        <ele>80.4</ele>
        <time>2013-04-25T22:31:51Z</time>
      </trkpt>
      <trkpt lat="59.9846045673" lon="15.8277433086">
        <ele>80.4</ele>
        <time>2013-04-25T22:31:52Z</time>
      </trkpt>
      <trkpt lat="59.9846044835" lon="15.8277445659">
        <ele>80.4</ele>
        <time>2013-04-25T22:31:53Z</time>
      </trkpt>
      <trkpt lat="59.9846035615" lon="15.8277461585">
        <ele>80.4</ele>
        <time>2013-04-25T22:31:54Z</time>
      </trkpt>
      <trkpt lat="59.9846028909" lon="15.827746829">
        <ele>80.4</ele>
        <time>2013-04-25T22:31:55Z</time>
      </trkpt>
      <trkpt lat="59.9846028909" lon="15.8277526964">
        <ele>80.4</ele>
        <time>2013-04-25T22:32:00Z</time>
      </trkpt>
      <trkpt lat="59.9846027233" lon="15.8277560491">
        <ele>80.4</ele>
        <time>2013-04-25T22:32:01Z</time>
      </trkpt>
      <trkpt lat="59.9846020527" lon="15.8277610783">
        <ele>80.4</ele>
        <time>2013-04-25T22:32:02Z</time>
      </trkpt>
      <trkpt lat="59.9846011307" lon="15.8277637605">
        <ele>80.4</ele>
        <time>2013-04-25T22:32:03Z</time>
      </trkpt>
      <trkpt lat="59.984600544" lon="15.8277657721">
        <ele>80.4</ele>
        <time>2013-04-25T22:32:04Z</time>
      </trkpt>
      <trkpt lat="59.9845992867" lon="15.827766275">
        <ele>80.4</ele>
        <time>2013-04-25T22:32:05Z</time>
      </trkpt>
      <trkpt lat="59.9845980294" lon="15.8277639281">
        <ele>80.4</ele>
        <time>2013-04-25T22:32:06Z</time>
      </trkpt>
      <trkpt lat="59.9845971912" lon="15.8277623355">
        <ele>80.4</ele>
        <time>2013-04-25T22:32:07Z</time>
      </trkpt>
      <trkpt lat="59.9845977779" lon="15.8277639281">
        <ele>80.4</ele>
        <time>2013-04-25T22:32:08Z</time>
      </trkpt>
      <trkpt lat="59.9845992029" lon="15.8277594019">
        <ele>80.4</ele>
        <time>2013-04-25T22:32:09Z</time>
      </trkpt>
      <trkpt lat="59.9846027233" lon="15.8277497627">
        <ele>80.4</ele>
        <time>2013-04-25T22:32:11Z</time>
      </trkpt>
      <trkpt lat="59.9846017174" lon="15.8277478348">
        <ele>80.4</ele>
        <time>2013-04-25T22:32:12Z</time>
      </trkpt>
      <trkpt lat="59.9846012145" lon="15.8277447335">
        <ele>80.4</ele>
        <time>2013-04-25T22:32:13Z</time>
      </trkpt>
      <trkpt lat="59.984600544" lon="15.8277409617">
        <ele>80.4</ele>
        <time>2013-04-25T22:32:14Z</time>
      </trkpt>
      <trkpt lat="59.984601466" lon="15.8277409617">
        <ele>80.4</ele>
        <time>2013-04-25T22:32:15Z</time>
      </trkpt>
      <trkpt lat="59.9846018013" lon="15.8277371898">
        <ele>80.4</ele>
        <time>2013-04-25T22:32:16Z</time>
      </trkpt>
      <trkpt lat="59.9846037291" lon="15.8277327474">
        <ele>80.4</ele>
        <time>2013-04-25T22:32:17Z</time>
      </trkpt>
      <trkpt lat="59.9846031424" lon="15.8277258743">
        <ele>80.4</ele>
        <time>2013-04-25T22:32:18Z</time>
      </trkpt>
      <trkpt lat="59.9845992867" lon="15.8277331665">
        <ele>80.4</ele>
        <time>2013-04-25T22:32:22Z</time>
      </trkpt>
      <trkpt lat="59.9846003763" lon="15.8277294785">
        <ele>80.4</ele>
        <time>2013-04-25T22:32:23Z</time>
      </trkpt>
      <trkpt lat="59.9846145418" lon="15.8275795262">
        <ele>80.4</ele>
        <time>2013-04-25T22:32:24Z</time>
      </trkpt>
      <trkpt lat="59.9846143741" lon="15.8275823761">
        <ele>80.4</ele>
        <time>2013-04-25T22:32:27Z</time>
      </trkpt>
      <trkpt lat="59.9846142903" lon="15.827592602">
        <ele>80.4</ele>
        <time>2013-04-25T22:32:32Z</time>
      </trkpt>
      <trkpt lat="59.9846149608" lon="15.827588914">
        <ele>80.4</ele>
        <time>2013-04-25T22:32:33Z</time>
      </trkpt>
      <trkpt lat="59.9846152961" lon="15.8275826275">
        <ele>80.4</ele>
        <time>2013-04-25T22:32:34Z</time>
      </trkpt>
      <trkpt lat="59.9846146256" lon="15.8275791071">
        <ele>80.4</ele>
        <time>2013-04-25T22:32:35Z</time>
      </trkpt>
      <trkpt lat="59.9846142065" lon="15.8275802806">
        <ele>80.4</ele>
        <time>2013-04-25T22:32:36Z</time>
      </trkpt>
      <trkpt lat="59.9846144579" lon="15.8275752515">
        <ele>80.4</ele>
        <time>2013-04-25T22:32:37Z</time>
      </trkpt>
      <trkpt lat="59.9846149608" lon="15.8275721502">
        <ele>80.4</ele>
        <time>2013-04-25T22:32:38Z</time>
      </trkpt>
      <trkpt lat="59.9846156314" lon="15.8275725693">
        <ele>80.4</ele>
        <time>2013-04-25T22:32:39Z</time>
      </trkpt>
      <trkpt lat="59.984615799" lon="15.8275733236">
        <ele>80.4</ele>
        <time>2013-04-25T22:32:40Z</time>
      </trkpt>
      <trkpt lat="59.9846164696" lon="15.8275704738">
        <ele>80.4</ele>
        <time>2013-04-25T22:32:41Z</time>
      </trkpt>
      <trkpt lat="59.9846166372" lon="15.827569887">
        <ele>80.4</ele>
        <time>2013-04-25T22:32:42Z</time>
      </trkpt>
      <trkpt lat="59.9846169725" lon="15.8275690489">
        <ele>80.4</ele>
        <time>2013-04-25T22:32:43Z</time>
      </trkpt>
      <trkpt lat="59.9846173916" lon="15.8275667857">
        <ele>80.4</ele>
        <time>2013-04-25T22:32:44Z</time>
      </trkpt>
      <trkpt lat="59.9846188165" lon="15.8275586553">
        <ele>80.4</ele>
        <time>2013-04-25T22:32:45Z</time>
      </trkpt>
      <trkpt lat="59.9846203253" lon="15.8275505248">
        <ele>80.4</ele>
        <time>2013-04-25T22:32:47Z</time>
      </trkpt>
      <trkpt lat="59.98461999" lon="15.827552285">
        <ele>80.4</ele>
        <time>2013-04-25T22:32:48Z</time>
      </trkpt>
      <trkpt lat="59.984622756" lon="15.827556476">
        <ele>80.4</ele>
        <time>2013-04-25T22:32:54Z</time>
      </trkpt>
      <trkpt lat="59.9846235942" lon="15.8275523689">
        <ele>80.4</ele>
        <time>2013-04-25T22:32:55Z</time>
      </trkpt>
      <trkpt lat="59.9846258573" lon="15.8275419753">
        <ele>80.4</ele>
        <time>2013-04-25T22:32:58Z</time>
      </trkpt>
      <trkpt lat="59.984626025" lon="15.8275457472">
        <ele>80.4</ele>
        <time>2013-04-25T22:32:59Z</time>
      </trkpt>
      <trkpt lat="59.9846257735" lon="15.82755371">
        <ele>80.4</ele>
        <time>2013-04-25T22:33:00Z</time>
      </trkpt>
      <trkpt lat="59.984626025" lon="15.8275548834">
        <ele>80.4</ele>
        <time>2013-04-25T22:33:01Z</time>
      </trkpt>
      <trkpt lat="59.9846265279" lon="15.8275527041">
        <ele>80.4</ele>
        <time>2013-04-25T22:33:02Z</time>
      </trkpt>
      <trkpt lat="59.9846267793" lon="15.8275538776">
        <ele>80.4</ele>
        <time>2013-04-25T22:33:03Z</time>
      </trkpt>
      <trkpt lat="59.9846262764" lon="15.827555554">
        <ele>80.4</ele>
        <time>2013-04-25T22:33:04Z</time>
      </trkpt>
      <trkpt lat="59.9846252706" lon="15.8275588229">
        <ele>80.4</ele>
        <time>2013-04-25T22:33:05Z</time>
      </trkpt>
      <trkpt lat="59.9846229237" lon="15.8275646064">
        <ele>80.4</ele>
        <time>2013-04-25T22:33:06Z</time>
      </trkpt>
      <trkpt lat="59.9846207444" lon="15.8275682107">
        <ele>80.4</ele>
        <time>2013-04-25T22:33:07Z</time>
      </trkpt>
      <trkpt lat="59.984620912" lon="15.8275706414">
        <ele>80.4</ele>
        <time>2013-04-25T22:33:08Z</time>
      </trkpt>
      <trkpt lat="59.9846221693" lon="15.8275700547">
        <ele>80.4</ele>
        <time>2013-04-25T22:33:09Z</time>
      </trkpt>
      <trkpt lat="59.9846230075" lon="15.8275682945">
        <ele>80.4</ele>
        <time>2013-04-25T22:33:10Z</time>
      </trkpt>
      <trkpt lat="59.9846221693" lon="15.827575922">
        <ele>80.4</ele>
        <time>2013-04-25T22:33:11Z</time>
      </trkpt>
      <trkpt lat="59.9846220016" lon="15.827577766">
        <ele>80.4</ele>
        <time>2013-04-25T22:33:12Z</time>
      </trkpt>
      <trkpt lat="59.9846220855" lon="15.827581035">
        <ele>80.4</ele>
        <time>2013-04-25T22:33:13Z</time>
      </trkpt>
      <trkpt lat="59.9846226722" lon="15.8275816217">
        <ele>80.4</ele>
        <time>2013-04-25T22:33:14Z</time>
      </trkpt>
      <trkpt lat="59.9846223369" lon="15.8275822923">
        <ele>80.4</ele>
        <time>2013-04-25T22:33:15Z</time>
      </trkpt>
      <trkpt lat="59.9846174754" lon="15.8275547996">
        <ele>80.4</ele>
        <time>2013-04-25T22:33:16Z</time>
      </trkpt>
      <trkpt lat="59.9846132006" lon="15.8275624271">
        <ele>80.4</ele>
        <time>2013-04-25T22:33:18Z</time>
      </trkpt>
      <trkpt lat="59.9846116919" lon="15.8275595773">
        <ele>80.4</ele>
        <time>2013-04-25T22:33:19Z</time>
      </trkpt>
      <trkpt lat="59.9846125301" lon="15.8275567275">
        <ele>80.4</ele>
        <time>2013-04-25T22:33:20Z</time>
      </trkpt>
      <trkpt lat="59.9846131168" lon="15.8275543805">
        <ele>80.4</ele>
        <time>2013-04-25T22:33:21Z</time>
      </trkpt>
      <trkpt lat="59.9846132006" lon="15.8275526203">
        <ele>80.4</ele>
        <time>2013-04-25T22:33:22Z</time>
      </trkpt>
      <trkpt lat="59.9846128654" lon="15.8275536261">
        <ele>80.4</ele>
        <time>2013-04-25T22:33:23Z</time>
      </trkpt>
      <trkpt lat="59.984613033" lon="15.8275581524">
        <ele>80.4</ele>
        <time>2013-04-25T22:33:24Z</time>
      </trkpt>
      <trkpt lat="59.9846132006" lon="15.8275659475">
        <ele>80.4</ele>
        <time>2013-04-25T22:33:25Z</time>
      </trkpt>
      <trkpt lat="59.9846126139" lon="15.827569887">
        <ele>80.4</ele>
        <time>2013-04-25T22:33:26Z</time>
      </trkpt>
      <trkpt lat="59.9846127816" lon="15.8275685459">
        <ele>80.4</ele>
        <time>2013-04-25T22:33:27Z</time>
      </trkpt>
      <trkpt lat="59.9846131168" lon="15.8275672887">
        <ele>80.4</ele>
        <time>2013-04-25T22:33:28Z</time>
      </trkpt>
      <trkpt lat="59.9846136197" lon="15.8275646903">
        <ele>80.4</ele>
        <time>2013-04-25T22:33:29Z</time>
      </trkpt>
      <trkpt lat="59.9846143741" lon="15.8275624271">
        <ele>80.4</ele>
        <time>2013-04-25T22:33:30Z</time>
      </trkpt>
      <trkpt lat="59.9846145418" lon="15.8275623433">
        <ele>80.4</ele>
        <time>2013-04-25T22:33:31Z</time>
      </trkpt>
      <trkpt lat="59.9846137874" lon="15.8275656961">
        <ele>80.4</ele>
        <time>2013-04-25T22:33:32Z</time>
      </trkpt>
      <trkpt lat="59.9846137036" lon="15.8275675401">
        <ele>80.4</ele>
        <time>2013-04-25T22:33:33Z</time>
      </trkpt>
      <trkpt lat="59.984613955" lon="15.8275676239">
        <ele>80.4</ele>
        <time>2013-04-25T22:33:34Z</time>
      </trkpt>
      <trkpt lat="59.9846126139" lon="15.8275714796">
        <ele>80.4</ele>
        <time>2013-04-25T22:33:35Z</time>
      </trkpt>
      <trkpt lat="59.9846109375" lon="15.8275760058">
        <ele>80.4</ele>
        <time>2013-04-25T22:33:36Z</time>
      </trkpt>
      <trkpt lat="59.9846094288" lon="15.8275729883">
        <ele>80.4</ele>
        <time>2013-04-25T22:33:42Z</time>
      </trkpt>
      <trkpt lat="59.9846119434" lon="15.8275498543">
        <ele>80.4</ele>
        <time>2013-04-25T22:33:49Z</time>
      </trkpt>
      <trkpt lat="59.9846120272" lon="15.8275502734">
        <ele>80.4</ele>
        <time>2013-04-25T22:33:50Z</time>
      </trkpt>
      <trkpt lat="59.9846116081" lon="15.8275533747">
        <ele>80.4</ele>
        <time>2013-04-25T22:33:52Z</time>
      </trkpt>
      <trkpt lat="59.9846108537" lon="15.8275510278">
        <ele>80.4</ele>
        <time>2013-04-25T22:33:53Z</time>
      </trkpt>
      <trkpt lat="59.9846086744" lon="15.8275618404">
        <ele>80.4</ele>
        <time>2013-04-25T22:33:56Z</time>
      </trkpt>
      <trkpt lat="59.9846083391" lon="15.8275663666">
        <ele>80.4</ele>
        <time>2013-04-25T22:33:57Z</time>
      </trkpt>
      <trkpt lat="59.9845990352" lon="15.8276212681">
        <ele>80.4</ele>
        <time>2013-04-25T22:33:58Z</time>
      </trkpt>
      <trkpt lat="59.9846001249" lon="15.8276345953">
        <ele>80.4</ele>
        <time>2013-04-25T22:33:59Z</time>
      </trkpt>
      <trkpt lat="59.9846019689" lon="15.8276594896">
        <ele>80.4</ele>
        <time>2013-04-25T22:34:05Z</time>
      </trkpt>
      <trkpt lat="59.9846010469" lon="15.8276496828">
        <ele>80.4</ele>
        <time>2013-04-25T22:34:09Z</time>
      </trkpt>
      <trkpt lat="59.9846006278" lon="15.8276485093">
        <ele>80.4</ele>
        <time>2013-04-25T22:34:10Z</time>
      </trkpt>
      <trkpt lat="59.9846002087" lon="15.82764633">
        <ele>80.4</ele>
        <time>2013-04-25T22:34:11Z</time>
      </trkpt>
      <trkpt lat="59.9846028909" lon="15.8276738226">
        <ele>80.4</ele>
        <time>2013-04-25T22:34:15Z</time>
      </trkpt>
      <trkpt lat="59.9846030585" lon="15.8276735712">
        <ele>80.4</ele>
        <time>2013-04-25T22:34:18Z</time>
      </trkpt>
      <trkpt lat="59.9846038129" lon="15.8276775107">
        <ele>80.4</ele>
        <time>2013-04-25T22:34:19Z</time>
      </trkpt>
      <trkpt lat="59.9846047349" lon="15.8276818693">
        <ele>80.4</ele>
        <time>2013-04-25T22:34:20Z</time>
      </trkpt>
      <trkpt lat="59.9846050702" lon="15.8276842162">
        <ele>80.4</ele>
        <time>2013-04-25T22:34:21Z</time>
      </trkpt>
      <trkpt lat="59.9846054055" lon="15.8276858088">
        <ele>80.4</ele>
        <time>2013-04-25T22:34:22Z</time>
      </trkpt>
      <trkpt lat="59.9846050702" lon="15.8276868146">
        <ele>80.4</ele>
        <time>2013-04-25T22:34:25Z</time>
      </trkpt>
      <trkpt lat="59.9846047349" lon="15.8276869822">
        <ele>80.4</ele>
        <time>2013-04-25T22:34:26Z</time>
      </trkpt>
      <trkpt lat="59.9846046511" lon="15.8276865631">
        <ele>80.4</ele>
        <time>2013-04-25T22:34:27Z</time>
      </trkpt>
      <trkpt lat="59.9846049026" lon="15.8276836295">
        <ele>80.4</ele>
        <time>2013-04-25T22:34:30Z</time>
      </trkpt>
      <trkpt lat="59.9846047349" lon="15.8276822884">
        <ele>80.4</ele>
        <time>2013-04-25T22:34:31Z</time>
      </trkpt>
      <trkpt lat="59.9846045673" lon="15.8276814502">
        <ele>80.4</ele>
        <time>2013-04-25T22:34:32Z</time>
      </trkpt>
      <trkpt lat="59.9846041482" lon="15.8276819531">
        <ele>80.4</ele>
        <time>2013-04-25T22:34:33Z</time>
      </trkpt>
      <trkpt lat="59.9846050702" lon="15.8276847191">
        <ele>80.4</ele>
        <time>2013-04-25T22:34:39Z</time>
      </trkpt>
      <trkpt lat="59.9846059922" lon="15.8276867308">
        <ele>80.4</ele>
        <time>2013-04-25T22:34:40Z</time>
      </trkpt>
      <trkpt lat="59.9846056569" lon="15.8276857249">
        <ele>80.4</ele>
        <time>2013-04-25T22:34:41Z</time>
      </trkpt>
      <trkpt lat="59.9846047349" lon="15.8276829589">
        <ele>80.4</ele>
        <time>2013-04-25T22:34:42Z</time>
      </trkpt>
      <trkpt lat="59.9846048187" lon="15.8276777621">
        <ele>80.4</ele>
        <time>2013-04-25T22:34:43Z</time>
      </trkpt>
      <trkpt lat="59.9845976103" lon="15.8276661951">
        <ele>80.4</ele>
        <time>2013-04-25T22:34:44Z</time>
      </trkpt>
      <trkpt lat="59.9845938385" lon="15.8276061807">
        <ele>80.4</ele>
        <time>2013-04-25T22:34:47Z</time>
      </trkpt>
      <trkpt lat="59.9845959339" lon="15.8275816217">
        <ele>80.4</ele>
        <time>2013-04-25T22:34:48Z</time>
      </trkpt>
      <trkpt lat="59.9845987838" lon="15.827582879">
        <ele>80.4</ele>
        <time>2013-04-25T22:34:49Z</time>
      </trkpt>
      <trkpt lat="59.9845989514" lon="15.8275773469">
        <ele>80.4</ele>
        <time>2013-04-25T22:34:50Z</time>
      </trkpt>
      <trkpt lat="59.9845983647" lon="15.8275690489">
        <ele>80.4</ele>
        <time>2013-04-25T22:34:51Z</time>
      </trkpt>
      <trkpt lat="59.9846024718" lon="15.8275664505">
        <ele>80.4</ele>
        <time>2013-04-25T22:34:52Z</time>
      </trkpt>
      <trkpt lat="59.9846035615" lon="15.8275587391">
        <ele>79.4</ele>
        <time>2013-04-25T22:34:53Z</time>
      </trkpt>
      <trkpt lat="59.9846050702" lon="15.8275770955">
        <ele>79.4</ele>
        <time>2013-04-25T22:34:57Z</time>
      </trkpt>
      <trkpt lat="59.9846013822" lon="15.8275693003">
        <ele>79.4</ele>
        <time>2013-04-25T22:34:59Z</time>
      </trkpt>
      <trkpt lat="59.9846017174" lon="15.8275744971">
        <ele>79.4</ele>
        <time>2013-04-25T22:35:00Z</time>
      </trkpt>
      <trkpt lat="59.9846120272" lon="15.8276293986">
        <ele>79.4</ele>
        <time>2013-04-25T22:35:03Z</time>
      </trkpt>
      <trkpt lat="59.9846100993" lon="15.827601403">
        <ele>79.4</ele>
        <time>2013-04-25T22:35:04Z</time>
      </trkpt>
      <trkpt lat="59.9846088421" lon="15.8275816217">
        <ele>79.4</ele>
        <time>2013-04-25T22:35:05Z</time>
      </trkpt>
      <trkpt lat="59.984608423" lon="15.8275677916">
        <ele>79.4</ele>
        <time>2013-04-25T22:35:06Z</time>
      </trkpt>
      <trkpt lat="59.9846069142" lon="15.8275563922">
        <ele>79.4</ele>
        <time>2013-04-25T22:35:07Z</time>
      </trkpt>
      <trkpt lat="59.9846004602" lon="15.827534683">
        <ele>79.4</ele>
        <time>2013-04-25T22:35:11Z</time>
      </trkpt>
      <trkpt lat="59.9845990352" lon="15.8275400475">
        <ele>79.4</ele>
        <time>2013-04-25T22:35:12Z</time>
      </trkpt>
      <trkpt lat="59.984597275" lon="15.8275478426">
        <ele>79.4</ele>
        <time>2013-04-25T22:35:13Z</time>
      </trkpt>
      <trkpt lat="59.9845950957" lon="15.8275523689">
        <ele>79.4</ele>
        <time>2013-04-25T22:35:14Z</time>
      </trkpt>
      <trkpt lat="59.9845913239" lon="15.8275494352">
        <ele>79.4</ele>
        <time>2013-04-25T22:35:15Z</time>
      </trkpt>
      <trkpt lat="59.9845906533" lon="15.8275588229">
        <ele>79.4</ele>
        <time>2013-04-25T22:35:17Z</time>
      </trkpt>
      <trkpt lat="59.9845913239" lon="15.827565277">
        <ele>79.4</ele>
        <time>2013-04-25T22:35:18Z</time>
      </trkpt>
      <trkpt lat="59.9845836125" lon="15.8275563922">
        <ele>79.4</ele>
        <time>2013-04-25T22:35:23Z</time>
      </trkpt>
      <trkpt lat="59.984583864" lon="15.8275525365">
        <ele>79.4</ele>
        <time>2013-04-25T22:35:25Z</time>
      </trkpt>
      <trkpt lat="59.9845841154" lon="15.8275527041">
        <ele>79.4</ele>
        <time>2013-04-25T22:35:26Z</time>
      </trkpt>
      <trkpt lat="59.9845843669" lon="15.8275699709">
        <ele>79.4</ele>
        <time>2013-04-25T22:35:29Z</time>
      </trkpt>
      <trkpt lat="59.9845831096" lon="15.8275693841">
        <ele>79.4</ele>
        <time>2013-04-25T22:35:30Z</time>
      </trkpt>
      <trkpt lat="59.9845826905" lon="15.8275646064">
        <ele>79.4</ele>
        <time>2013-04-25T22:35:31Z</time>
      </trkpt>
      <trkpt lat="59.9846066628" lon="15.8276742417">
        <ele>79.4</ele>
        <time>2013-04-25T22:35:32Z</time>
      </trkpt>
      <trkpt lat="59.9846049864" lon="15.8276663627">
        <ele>79.4</ele>
        <time>2013-04-25T22:35:33Z</time>
      </trkpt>
      <trkpt lat="59.9846039806" lon="15.8276640158">
        <ele>79.4</ele>
        <time>2013-04-25T22:35:34Z</time>
      </trkpt>
      <trkpt lat="59.9846038967" lon="15.8276679553">
        <ele>79.4</ele>
        <time>2013-04-25T22:35:35Z</time>
      </trkpt>
      <trkpt lat="59.9846160505" lon="15.8276961185">
        <ele>79.4</ele>
        <time>2013-04-25T22:35:36Z</time>
      </trkpt>
      <trkpt lat="59.9846166372" lon="15.8277013991">
        <ele>79.4</ele>
        <time>2013-04-25T22:35:37Z</time>
      </trkpt>
      <trkpt lat="59.9846149608" lon="15.8277065121">
        <ele>79.4</ele>
        <time>2013-04-25T22:35:38Z</time>
      </trkpt>
      <trkpt lat="59.9846144579" lon="15.8277131338">
        <ele>79.4</ele>
        <time>2013-04-25T22:35:39Z</time>
      </trkpt>
      <trkpt lat="59.9846137874" lon="15.8277156483">
        <ele>79.4</ele>
        <time>2013-04-25T22:35:40Z</time>
      </trkpt>
      <trkpt lat="59.9846116081" lon="15.8277164027">
        <ele>79.4</ele>
        <time>2013-04-25T22:35:41Z</time>
      </trkpt>
      <trkpt lat="59.9846090935" lon="15.8277141396">
        <ele>79.4</ele>
        <time>2013-04-25T22:35:42Z</time>
      </trkpt>
      <trkpt lat="59.9846104346" lon="15.8277169894">
        <ele>79.4</ele>
        <time>2013-04-25T22:35:43Z</time>
      </trkpt>
      <trkpt lat="59.9846213311" lon="15.8277613297">
        <ele>79.4</ele>
        <time>2013-04-25T22:35:44Z</time>
      </trkpt>
      <trkpt lat="59.9846209958" lon="15.8277654368">
        <ele>79.4</ele>
        <time>2013-04-25T22:35:45Z</time>
      </trkpt>
      <trkpt lat="59.9846193194" lon="15.8277624194">
        <ele>79.4</ele>
        <time>2013-04-25T22:35:46Z</time>
      </trkpt>
      <trkpt lat="59.9846185651" lon="15.8277586475">
        <ele>79.4</ele>
        <time>2013-04-25T22:35:47Z</time>
      </trkpt>
      <trkpt lat="59.9846183136" lon="15.8277591504">
        <ele>79.4</ele>
        <time>2013-04-25T22:35:48Z</time>
      </trkpt>
      <trkpt lat="59.984618146" lon="15.8277572226">
        <ele>79.4</ele>
        <time>2013-04-25T22:35:49Z</time>
      </trkpt>
      <trkpt lat="59.9846183136" lon="15.8277584799">
        <ele>79.4</ele>
        <time>2013-04-25T22:35:50Z</time>
      </trkpt>
      <trkpt lat="59.9846189842" lon="15.8277630061">
        <ele>79.4</ele>
        <time>2013-04-25T22:35:51Z</time>
      </trkpt>
      <trkpt lat="59.9846191518" lon="15.827768622">
        <ele>79.4</ele>
        <time>2013-04-25T22:35:52Z</time>
      </trkpt>
      <trkpt lat="59.9846185651" lon="15.827775076">
        <ele>79.4</ele>
        <time>2013-04-25T22:35:53Z</time>
      </trkpt>
      <trkpt lat="59.9846194871" lon="15.8277803566">
        <ele>79.4</ele>
        <time>2013-04-25T22:35:54Z</time>
      </trkpt>
      <trkpt lat="59.9846200738" lon="15.8277816139">
        <ele>79.4</ele>
        <time>2013-04-25T22:35:55Z</time>
      </trkpt>
      <trkpt lat="59.9846200738" lon="15.827785302">
        <ele>79.4</ele>
        <time>2013-04-25T22:35:56Z</time>
      </trkpt>
      <trkpt lat="59.984631557" lon="15.8277091105">
        <ele>79.4</ele>
        <time>2013-04-25T22:35:59Z</time>
      </trkpt>
      <trkpt lat="59.984634826" lon="15.8276939392">
        <ele>79.4</ele>
        <time>2013-04-25T22:36:00Z</time>
      </trkpt>
      <trkpt lat="59.9846372567" lon="15.8276863117">
        <ele>79.4</ele>
        <time>2013-04-25T22:36:01Z</time>
      </trkpt>
      <trkpt lat="59.9846407771" lon="15.8276812825">
        <ele>79.4</ele>
        <time>2013-04-25T22:36:02Z</time>
      </trkpt>
      <trkpt lat="59.9846430402" lon="15.8276739065">
        <ele>79.4</ele>
        <time>2013-04-25T22:36:03Z</time>
      </trkpt>
      <trkpt lat="59.9846442137" lon="15.8276675362">
        <ele>79.4</ele>
        <time>2013-04-25T22:36:04Z</time>
      </trkpt>
      <trkpt lat="59.9846448004" lon="15.8276626747">
        <ele>79.4</ele>
        <time>2013-04-25T22:36:05Z</time>
      </trkpt>
      <trkpt lat="59.9846447166" lon="15.8276591543">
        <ele>79.4</ele>
        <time>2013-04-25T22:36:06Z</time>
      </trkpt>
      <trkpt lat="59.9846446328" lon="15.8276589029">
        <ele>79.4</ele>
        <time>2013-04-25T22:36:07Z</time>
      </trkpt>
      <trkpt lat="59.9846452195" lon="15.8276619203">
        <ele>79.4</ele>
        <time>2013-04-25T22:36:08Z</time>
      </trkpt>
      <trkpt lat="59.9846495781" lon="15.8276846353">
        <ele>79.4</ele>
        <time>2013-04-25T22:36:14Z</time>
      </trkpt>
      <trkpt lat="59.9846463092" lon="15.827701902">
        <ele>79.4</ele>
        <time>2013-04-25T22:36:15Z</time>
      </trkpt>
      <trkpt lat="59.9846427888" lon="15.827685222">
        <ele>79.4</ele>
        <time>2013-04-25T22:36:21Z</time>
      </trkpt>
      <trkpt lat="59.9846449681" lon="15.8276782651">
        <ele>79.4</ele>
        <time>2013-04-25T22:36:22Z</time>
      </trkpt>
      <trkpt lat="59.9846479017" lon="15.8276697155">
        <ele>79.4</ele>
        <time>2013-04-25T22:36:23Z</time>
      </trkpt>
      <trkpt lat="59.9846510869" lon="15.8276616689">
        <ele>79.4</ele>
        <time>2013-04-25T22:36:24Z</time>
      </trkpt>
      <trkpt lat="59.9846535176" lon="15.8276577294">
        <ele>79.4</ele>
        <time>2013-04-25T22:36:25Z</time>
      </trkpt>
      <trkpt lat="59.9846531823" lon="15.8276626747">
        <ele>79.4</ele>
        <time>2013-04-25T22:36:26Z</time>
      </trkpt>
      <trkpt lat="59.9846498296" lon="15.8276886586">
        <ele>79.4</ele>
        <time>2013-04-25T22:36:27Z</time>
      </trkpt>
      <trkpt lat="59.9846488237" lon="15.8276977111">
        <ele>79.4</ele>
        <time>2013-04-25T22:36:28Z</time>
      </trkpt>
      <trkpt lat="59.9846469797" lon="15.8277013991">
        <ele>79.4</ele>
        <time>2013-04-25T22:36:29Z</time>
      </trkpt>
      <trkpt lat="59.9846459739" lon="15.8276995551">
        <ele>79.4</ele>
        <time>2013-04-25T22:36:30Z</time>
      </trkpt>
      <trkpt lat="59.9846478179" lon="15.8276451565">
        <ele>79.4</ele>
        <time>2013-04-25T22:36:31Z</time>
      </trkpt>
      <trkpt lat="59.9846480694" lon="15.8276321646">
        <ele>79.4</ele>
        <time>2013-04-25T22:36:32Z</time>
      </trkpt>
      <trkpt lat="59.9846484046" lon="15.8276209328">
        <ele>79.4</ele>
        <time>2013-04-25T22:36:33Z</time>
      </trkpt>
      <trkpt lat="59.9846493267" lon="15.8276113775">
        <ele>79.4</ele>
        <time>2013-04-25T22:36:34Z</time>
      </trkpt>
      <trkpt lat="59.9846497457" lon="15.8276202623">
        <ele>79.4</ele>
        <time>2013-04-25T22:36:39Z</time>
      </trkpt>
      <trkpt lat="59.9846435431" lon="15.82762965">
        <ele>79.4</ele>
        <time>2013-04-25T22:36:40Z</time>
      </trkpt>
      <trkpt lat="59.9846426211" lon="15.8276353497">
        <ele>79.4</ele>
        <time>2013-04-25T22:36:41Z</time>
      </trkpt>
      <trkpt lat="59.9846414477" lon="15.8276309073">
        <ele>79.4</ele>
        <time>2013-04-25T22:36:46Z</time>
      </trkpt>
      <trkpt lat="59.9846434593" lon="15.8276263811">
        <ele>79.4</ele>
        <time>2013-04-25T22:36:47Z</time>
      </trkpt>
      <trkpt lat="59.9846440461" lon="15.8276214357">
        <ele>79.4</ele>
        <time>2013-04-25T22:36:48Z</time>
      </trkpt>
      <trkpt lat="59.9846440461" lon="15.8276228607">
        <ele>79.4</ele>
        <time>2013-04-25T22:36:49Z</time>
      </trkpt>
      <trkpt lat="59.9846438784" lon="15.8276286442">
        <ele>79.4</ele>
        <time>2013-04-25T22:36:50Z</time>
      </trkpt>
      <trkpt lat="59.9846441299" lon="15.8276300691">
        <ele>79.4</ele>
        <time>2013-04-25T22:36:51Z</time>
      </trkpt>
      <trkpt lat="59.9846447166" lon="15.827634763">
        <ele>79.4</ele>
        <time>2013-04-25T22:36:52Z</time>
      </trkpt>
      <trkpt lat="59.9846446328" lon="15.8276389539">
        <ele>79.4</ele>
        <time>2013-04-25T22:36:53Z</time>
      </trkpt>
      <trkpt lat="59.9846440461" lon="15.8276418038">
        <ele>79.4</ele>
        <time>2013-04-25T22:36:54Z</time>
      </trkpt>
      <trkpt lat="59.9846448842" lon="15.8276359364">
        <ele>79.4</ele>
        <time>2013-04-25T22:36:55Z</time>
      </trkpt>
      <trkpt lat="59.984646393" lon="15.8276303206">
        <ele>79.4</ele>
        <time>2013-04-25T22:36:56Z</time>
      </trkpt>
      <trkpt lat="59.9846478179" lon="15.8276261296">
        <ele>79.4</ele>
        <time>2013-04-25T22:36:57Z</time>
      </trkpt>
      <trkpt lat="59.9846484046" lon="15.8276212681">
        <ele>79.4</ele>
        <time>2013-04-25T22:36:58Z</time>
      </trkpt>
      <trkpt lat="59.9846484885" lon="15.8276159037">
        <ele>79.4</ele>
        <time>2013-04-25T22:36:59Z</time>
      </trkpt>
      <trkpt lat="59.9846474826" lon="15.8276166581">
        <ele>79.4</ele>
        <time>2013-04-25T22:37:00Z</time>
      </trkpt>
      <trkpt lat="59.9846468959" lon="15.8276122157">
        <ele>79.4</ele>
        <time>2013-04-25T22:37:01Z</time>
      </trkpt>
      <trkpt lat="59.984649159" lon="15.8276024926">
        <ele>79.4</ele>
        <time>2013-04-25T22:37:02Z</time>
      </trkpt>
      <trkpt lat="59.9846499972" lon="15.8275987208">
        <ele>79.4</ele>
        <time>2013-04-25T22:37:03Z</time>
      </trkpt>
      <trkpt lat="59.984650081" lon="15.8276021574">
        <ele>79.4</ele>
        <time>2013-04-25T22:37:04Z</time>
      </trkpt>
      <trkpt lat="59.9846499134" lon="15.8276079409">
        <ele>79.4</ele>
        <time>2013-04-25T22:37:05Z</time>
      </trkpt>
      <trkpt lat="59.9846501648" lon="15.8276122157">
        <ele>79.4</ele>
        <time>2013-04-25T22:37:06Z</time>
      </trkpt>
      <trkpt lat="59.9846494943" lon="15.8276165742">
        <ele>79.4</ele>
        <time>2013-04-25T22:37:07Z</time>
      </trkpt>
      <trkpt lat="59.9846483208" lon="15.8276135568">
        <ele>79.4</ele>
        <time>2013-04-25T22:37:08Z</time>
      </trkpt>
      <trkpt lat="59.9846473988" lon="15.8276114613">
        <ele>79.4</ele>
        <time>2013-04-25T22:37:09Z</time>
      </trkpt>
      <trkpt lat="59.9846462253" lon="15.8276141435">
        <ele>79.4</ele>
        <time>2013-04-25T22:37:10Z</time>
      </trkpt>
      <trkpt lat="59.9846380111" lon="15.8276506048">
        <ele>79.4</ele>
        <time>2013-04-25T22:37:11Z</time>
      </trkpt>
      <trkpt lat="59.9846382625" lon="15.8276499342">
        <ele>79.4</ele>
        <time>2013-04-25T22:37:12Z</time>
      </trkpt>
      <trkpt lat="59.9846396036" lon="15.8276448213">
        <ele>79.4</ele>
        <time>2013-04-25T22:37:13Z</time>
      </trkpt>
      <trkpt lat="59.9846434593" lon="15.8276124671">
        <ele>79.4</ele>
        <time>2013-04-25T22:37:14Z</time>
      </trkpt>
      <trkpt lat="59.9846455548" lon="15.8276070189">
        <ele>79.4</ele>
        <time>2013-04-25T22:37:15Z</time>
      </trkpt>
      <trkpt lat="59.984643627" lon="15.8276114613">
        <ele>79.4</ele>
        <time>2013-04-25T22:37:16Z</time>
      </trkpt>
      <trkpt lat="59.9846427049" lon="15.827616239">
        <ele>79.4</ele>
        <time>2013-04-25T22:37:17Z</time>
      </trkpt>
      <trkpt lat="59.9846423697" lon="15.8276195079">
        <ele>79.4</ele>
        <time>2013-04-25T22:37:18Z</time>
      </trkpt>
      <trkpt lat="59.9846430402" lon="15.8276202623">
        <ele>79.4</ele>
        <time>2013-04-25T22:37:19Z</time>
      </trkpt>
      <trkpt lat="59.984643627" lon="15.8276201785">
        <ele>79.4</ele>
        <time>2013-04-25T22:37:20Z</time>
      </trkpt>
      <trkpt lat="59.9846432917" lon="15.8276202623">
        <ele>79.4</ele>
        <time>2013-04-25T22:37:21Z</time>
      </trkpt>
      <trkpt lat="59.9846428726" lon="15.8276205976">
        <ele>79.4</ele>
        <time>2013-04-25T22:37:22Z</time>
      </trkpt>
      <trkpt lat="59.9846424535" lon="15.8276196755">
        <ele>79.4</ele>
        <time>2013-04-25T22:37:23Z</time>
      </trkpt>
      <trkpt lat="59.9846414477" lon="15.8276218548">
        <ele>79.4</ele>
        <time>2013-04-25T22:37:24Z</time>
      </trkpt>
      <trkpt lat="59.9846395198" lon="15.8276257105">
        <ele>79.4</ele>
        <time>2013-04-25T22:37:25Z</time>
      </trkpt>
      <trkpt lat="59.9846296292" lon="15.8276645187">
        <ele>79.4</ele>
        <time>2013-04-25T22:37:28Z</time>
      </trkpt>
      <trkpt lat="59.9846301321" lon="15.8276555501">
        <ele>79.4</ele>
        <time>2013-04-25T22:37:31Z</time>
      </trkpt>
      <trkpt lat="59.9846285395" lon="15.8276608307">
        <ele>79.4</ele>
        <time>2013-04-25T22:37:36Z</time>
      </trkpt>
      <trkpt lat="59.9846285395" lon="15.8276582323">
        <ele>79.4</ele>
        <time>2013-04-25T22:37:37Z</time>
      </trkpt>
      <trkpt lat="59.9846293777" lon="15.8276537899">
        <ele>79.4</ele>
        <time>2013-04-25T22:37:38Z</time>
      </trkpt>
      <trkpt lat="59.9846310541" lon="15.827650018">
        <ele>79.4</ele>
        <time>2013-04-25T22:37:39Z</time>
      </trkpt>
      <trkpt lat="59.9846318085" lon="15.8276524488">
        <ele>79.4</ele>
        <time>2013-04-25T22:37:42Z</time>
      </trkpt>
      <trkpt lat="59.9846308026" lon="15.8276730683">
        <ele>79.4</ele>
        <time>2013-04-25T22:37:43Z</time>
      </trkpt>
      <trkpt lat="59.9846297968" lon="15.8276788518">
        <ele>79.4</ele>
        <time>2013-04-25T22:37:44Z</time>
      </trkpt>
      <trkpt lat="59.9846299645" lon="15.8276782651">
        <ele>79.4</ele>
        <time>2013-04-25T22:37:45Z</time>
      </trkpt>
      <trkpt lat="59.9846298806" lon="15.8276777621">
        <ele>79.4</ele>
        <time>2013-04-25T22:37:46Z</time>
      </trkpt>
      <trkpt lat="59.9846294615" lon="15.8276811149">
        <ele>79.4</ele>
        <time>2013-04-25T22:37:47Z</time>
      </trkpt>
      <trkpt lat="59.9846287072" lon="15.8276842162">
        <ele>79.4</ele>
        <time>2013-04-25T22:37:48Z</time>
      </trkpt>
      <trkpt lat="59.9846284557" lon="15.8276855573">
        <ele>79.4</ele>
        <time>2013-04-25T22:37:49Z</time>
      </trkpt>
      <trkpt lat="59.9846277852" lon="15.8276905026">
        <ele>79.4</ele>
        <time>2013-04-25T22:37:55Z</time>
      </trkpt>
      <trkpt lat="59.9846261088" lon="15.8277017344">
        <ele>79.4</ele>
        <time>2013-04-25T22:37:58Z</time>
      </trkpt>
      <trkpt lat="59.9846253544" lon="15.8277045004">
        <ele>79.4</ele>
        <time>2013-04-25T22:37:59Z</time>
      </trkpt>
      <trkpt lat="59.984625522" lon="15.8277076017">
        <ele>79.4</ele>
        <time>2013-04-25T22:38:00Z</time>
      </trkpt>
      <trkpt lat="59.9846272822" lon="15.8277117927">
        <ele>79.4</ele>
        <time>2013-04-25T22:38:01Z</time>
      </trkpt>
      <trkpt lat="59.9846276175" lon="15.827724617">
        <ele>79.4</ele>
        <time>2013-04-25T22:38:03Z</time>
      </trkpt>
      <trkpt lat="59.9846264441" lon="15.8277345076">
        <ele>79.4</ele>
        <time>2013-04-25T22:38:04Z</time>
      </trkpt>
      <trkpt lat="59.9846257735" lon="15.8277423866">
        <ele>79.4</ele>
        <time>2013-04-25T22:38:05Z</time>
      </trkpt>
      <trkpt lat="59.9846235942" lon="15.8277508523">
        <ele>79.4</ele>
        <time>2013-04-25T22:38:06Z</time>
      </trkpt>
      <trkpt lat="59.9846226722" lon="15.8277543727">
        <ele>79.4</ele>
        <time>2013-04-25T22:38:07Z</time>
      </trkpt>
      <trkpt lat="59.984622756" lon="15.8277567197">
        <ele>79.4</ele>
        <time>2013-04-25T22:38:08Z</time>
      </trkpt>
      <trkpt lat="59.9846221693" lon="15.8277542051">
        <ele>79.4</ele>
        <time>2013-04-25T22:38:09Z</time>
      </trkpt>
      <trkpt lat="59.9846217502" lon="15.8277524449">
        <ele>79.4</ele>
        <time>2013-04-25T22:38:10Z</time>
      </trkpt>
      <trkpt lat="59.9846210796" lon="15.8277490921">
        <ele>79.4</ele>
        <time>2013-04-25T22:38:12Z</time>
      </trkpt>
      <trkpt lat="59.9846212473" lon="15.8277466614">
        <ele>79.4</ele>
        <time>2013-04-25T22:38:13Z</time>
      </trkpt>
      <trkpt lat="59.9846189003" lon="15.8277608268">
        <ele>79.4</ele>
        <time>2013-04-25T22:38:19Z</time>
      </trkpt>
      <trkpt lat="59.984619068" lon="15.8277614135">
        <ele>79.4</ele>
        <time>2013-04-25T22:38:23Z</time>
      </trkpt>
      <trkpt lat="59.9846194871" lon="15.8277651016">
        <ele>79.4</ele>
        <time>2013-04-25T22:38:24Z</time>
      </trkpt>
      <trkpt lat="59.9846196547" lon="15.8277687058">
        <ele>79.4</ele>
        <time>2013-04-25T22:38:25Z</time>
      </trkpt>
      <trkpt lat="59.9846198224" lon="15.8277710527">
        <ele>79.4</ele>
        <time>2013-04-25T22:38:26Z</time>
      </trkpt>
      <trkpt lat="59.9846197385" lon="15.8277715556">
        <ele>79.4</ele>
        <time>2013-04-25T22:38:27Z</time>
      </trkpt>
      <trkpt lat="59.9846200738" lon="15.8277691249">
        <ele>79.4</ele>
        <time>2013-04-25T22:38:28Z</time>
      </trkpt>
      <trkpt lat="59.9846202414" lon="15.8277697116">
        <ele>79.4</ele>
        <time>2013-04-25T22:38:29Z</time>
      </trkpt>
      <trkpt lat="59.9846203253" lon="15.8277715556">
        <ele>79.4</ele>
        <time>2013-04-25T22:38:30Z</time>
      </trkpt>
      <trkpt lat="59.9846203253" lon="15.8277718909">
        <ele>79.4</ele>
        <time>2013-04-25T22:38:31Z</time>
      </trkpt>
      <trkpt lat="59.9846204929" lon="15.8277728129">
        <ele>79.4</ele>
        <time>2013-04-25T22:38:32Z</time>
      </trkpt>
      <trkpt lat="59.9846205767" lon="15.8277731482">
        <ele>79.4</ele>
        <time>2013-04-25T22:38:33Z</time>
      </trkpt>
      <trkpt lat="59.9846204929" lon="15.8277713042">
        <ele>79.4</ele>
        <time>2013-04-25T22:38:34Z</time>
      </trkpt>
      <trkpt lat="59.9846206605" lon="15.8277712204">
        <ele>79.4</ele>
        <time>2013-04-25T22:38:35Z</time>
      </trkpt>
      <trkpt lat="59.9846207444" lon="15.8277733997">
        <ele>79.4</ele>
        <time>2013-04-25T22:38:36Z</time>
      </trkpt>
      <trkpt lat="59.9846207444" lon="15.8277765848">
        <ele>79.4</ele>
        <time>2013-04-25T22:38:37Z</time>
      </trkpt>
      <trkpt lat="59.9846206605" lon="15.827780189">
        <ele>79.4</ele>
        <time>2013-04-25T22:38:38Z</time>
      </trkpt>
      <trkpt lat="59.9846205767" lon="15.8277801052">
        <ele>79.4</ele>
        <time>2013-04-25T22:38:39Z</time>
      </trkpt>
      <trkpt lat="59.9846205767" lon="15.8277868945">
        <ele>79.4</ele>
        <time>2013-04-25T22:38:42Z</time>
      </trkpt>
      <trkpt lat="59.9846204929" lon="15.8277828712">
        <ele>79.4</ele>
        <time>2013-04-25T22:38:43Z</time>
      </trkpt>
      <trkpt lat="59.9846208282" lon="15.8277806919">
        <ele>79.4</ele>
        <time>2013-04-25T22:38:46Z</time>
      </trkpt>
      <trkpt lat="59.9846209958" lon="15.827782033">
        <ele>79.4</ele>
        <time>2013-04-25T22:38:47Z</time>
      </trkpt>
      <trkpt lat="59.984620912" lon="15.8277793508">
        <ele>79.4</ele>
        <time>2013-04-25T22:38:48Z</time>
      </trkpt>
      <trkpt lat="59.9846209958" lon="15.8277788479">
        <ele>79.4</ele>
        <time>2013-04-25T22:38:49Z</time>
      </trkpt>
      <trkpt lat="59.9846211635" lon="15.8277789317">
        <ele>79.4</ele>
        <time>2013-04-25T22:38:54Z</time>
      </trkpt>
      <trkpt lat="59.9846210796" lon="15.8277770039">
        <ele>79.4</ele>
        <time>2013-04-25T22:38:55Z</time>
      </trkpt>
      <trkpt lat="59.9846215826" lon="15.8277776744">
        <ele>79.4</ele>
        <time>2013-04-25T22:38:56Z</time>
      </trkpt>
      <trkpt lat="59.9846224207" lon="15.8277810272">
        <ele>79.4</ele>
        <time>2013-04-25T22:38:57Z</time>
      </trkpt>
      <trkpt lat="59.9846228398" lon="15.8277808595">
        <ele>79.4</ele>
        <time>2013-04-25T22:38:58Z</time>
      </trkpt>
      <trkpt lat="59.9846226722" lon="15.8277775068">
        <ele>79.4</ele>
        <time>2013-04-25T22:38:59Z</time>
      </trkpt>
      <trkpt lat="59.9846225046" lon="15.8277743217">
        <ele>79.4</ele>
        <time>2013-04-25T22:39:00Z</time>
      </trkpt>
      <trkpt lat="59.9846230075" lon="15.8277735673">
        <ele>79.4</ele>
        <time>2013-04-25T22:39:01Z</time>
      </trkpt>
      <trkpt lat="59.9846230913" lon="15.8277715556">
        <ele>79.4</ele>
        <time>2013-04-25T22:39:02Z</time>
      </trkpt>
      <trkpt lat="59.9846230913" lon="15.8277719747">
        <ele>79.4</ele>
        <time>2013-04-25T22:39:03Z</time>
      </trkpt>
      <trkpt lat="59.9846230913" lon="15.8277751599">
        <ele>79.4</ele>
        <time>2013-04-25T22:39:04Z</time>
      </trkpt>
      <trkpt lat="59.9846232589" lon="15.8277778421">
        <ele>79.4</ele>
        <time>2013-04-25T22:39:05Z</time>
      </trkpt>
      <trkpt lat="59.9846231751" lon="15.8277772553">
        <ele>79.4</ele>
        <time>2013-04-25T22:39:06Z</time>
      </trkpt>
      <trkpt lat="59.9846230913" lon="15.8277762495">
        <ele>79.4</ele>
        <time>2013-04-25T22:39:07Z</time>
      </trkpt>
      <trkpt lat="59.9846230913" lon="15.8277769201">
        <ele>79.4</ele>
        <time>2013-04-25T22:39:08Z</time>
      </trkpt>
      <trkpt lat="59.9846228398" lon="15.8277795184">
        <ele>79.4</ele>
        <time>2013-04-25T22:39:10Z</time>
      </trkpt>
      <trkpt lat="59.9846230913" lon="15.8277804404">
        <ele>79.4</ele>
        <time>2013-04-25T22:39:11Z</time>
      </trkpt>
      <trkpt lat="59.9846234266" lon="15.8277817816">
        <ele>79.4</ele>
        <time>2013-04-25T22:39:12Z</time>
      </trkpt>
      <trkpt lat="59.9846240971" lon="15.8277859725">
        <ele>79.4</ele>
        <time>2013-04-25T22:39:13Z</time>
      </trkpt>
      <trkpt lat="59.9846241809" lon="15.8277889062">
        <ele>79.4</ele>
        <time>2013-04-25T22:39:14Z</time>
      </trkpt>
      <trkpt lat="59.9846249353" lon="15.8277946897">
        <ele>79.4</ele>
        <time>2013-04-25T22:39:18Z</time>
      </trkpt>
      <trkpt lat="59.9846250191" lon="15.827794522">
        <ele>79.4</ele>
        <time>2013-04-25T22:39:19Z</time>
      </trkpt>
      <trkpt lat="59.9846248515" lon="15.8277942706">
        <ele>79.4</ele>
        <time>2013-04-25T22:39:20Z</time>
      </trkpt>
      <trkpt lat="59.9846246839" lon="15.827794103">
        <ele>79.4</ele>
        <time>2013-04-25T22:39:21Z</time>
      </trkpt>
      <trkpt lat="59.9846247677" lon="15.8277956955">
        <ele>79.4</ele>
        <time>2013-04-25T22:39:22Z</time>
      </trkpt>
      <trkpt lat="59.9846249353" lon="15.8277975395">
        <ele>79.4</ele>
        <time>2013-04-25T22:39:23Z</time>
      </trkpt>
      <trkpt lat="59.984626947" lon="15.827802904">
        <ele>79.4</ele>
        <time>2013-04-25T22:39:24Z</time>
      </trkpt>
      <trkpt lat="59.984627869" lon="15.8278074302">
        <ele>79.4</ele>
        <time>2013-04-25T22:39:25Z</time>
      </trkpt>
      <trkpt lat="59.9846335687" lon="15.8276687097">
        <ele>79.4</ele>
        <time>2013-04-25T22:39:26Z</time>
      </trkpt>
      <trkpt lat="59.9846349098" lon="15.8276823722">
        <ele>79.4</ele>
        <time>2013-04-25T22:39:27Z</time>
      </trkpt>
      <trkpt lat="59.9846350774" lon="15.8276842162">
        <ele>79.4</ele>
        <time>2013-04-25T22:39:28Z</time>
      </trkpt>
      <trkpt lat="59.9846354127" lon="15.8276802767">
        <ele>79.4</ele>
        <time>2013-04-25T22:39:29Z</time>
      </trkpt>
      <trkpt lat="59.9846354965" lon="15.8276811987">
        <ele>79.4</ele>
        <time>2013-04-25T22:39:30Z</time>
      </trkpt>
      <trkpt lat="59.984635748" lon="15.8276818693">
        <ele>79.4</ele>
        <time>2013-04-25T22:39:31Z</time>
      </trkpt>
      <trkpt lat="59.9846359156" lon="15.8276789356">
        <ele>79.4</ele>
        <time>2013-04-25T22:39:32Z</time>
      </trkpt>
      <trkpt lat="59.9846341554" lon="15.82765094">
        <ele>79.4</ele>
        <time>2013-04-25T22:39:34Z</time>
      </trkpt>
      <trkpt lat="59.9846339878" lon="15.8276586514">
        <ele>79.4</ele>
        <time>2013-04-25T22:39:35Z</time>
      </trkpt>
      <trkpt lat="59.9846365862" lon="15.8276581485">
        <ele>79.4</ele>
        <time>2013-04-25T22:39:36Z</time>
      </trkpt>
      <trkpt lat="59.9846388493" lon="15.8276535384">
        <ele>79.4</ele>
        <time>2013-04-25T22:39:37Z</time>
      </trkpt>
      <trkpt lat="59.9846407771" lon="15.8276521973">
        <ele>79.4</ele>
        <time>2013-04-25T22:39:38Z</time>
      </trkpt>
      <trkpt lat="59.9846417829" lon="15.8276584838">
        <ele>79.4</ele>
        <time>2013-04-25T22:39:39Z</time>
      </trkpt>
      <trkpt lat="59.9846377596" lon="15.8276609145">
        <ele>79.4</ele>
        <time>2013-04-25T22:39:40Z</time>
      </trkpt>
      <trkpt lat="59.9846380111" lon="15.827665776">
        <ele>79.4</ele>
        <time>2013-04-25T22:39:41Z</time>
      </trkpt>
      <trkpt lat="59.9846372567" lon="15.8276704699">
        <ele>79.4</ele>
        <time>2013-04-25T22:39:42Z</time>
      </trkpt>
      <trkpt lat="59.9846360832" lon="15.8276719786">
        <ele>79.4</ele>
        <time>2013-04-25T22:39:43Z</time>
      </trkpt>
      <trkpt lat="59.9846271984" lon="15.8276552148">
        <ele>79.4</ele>
        <time>2013-04-25T22:39:44Z</time>
      </trkpt>
      <trkpt lat="59.9846268632" lon="15.8276506048">
        <ele>79.4</ele>
        <time>2013-04-25T22:39:45Z</time>
      </trkpt>
      <trkpt lat="59.9846272822" lon="15.8276478387">
        <ele>79.4</ele>
        <time>2013-04-25T22:39:46Z</time>
      </trkpt>
      <trkpt lat="59.9846283719" lon="15.8276456594">
        <ele>79.4</ele>
        <time>2013-04-25T22:39:47Z</time>
      </trkpt>
      <trkpt lat="59.9846298806" lon="15.8276425581">
        <ele>79.4</ele>
        <time>2013-04-25T22:39:48Z</time>
      </trkpt>
      <trkpt lat="59.9846327305" lon="15.8276391216">
        <ele>79.4</ele>
        <time>2013-04-25T22:39:49Z</time>
      </trkpt>
      <trkpt lat="59.9846399389" lon="15.8276424743">
        <ele>79.4</ele>
        <time>2013-04-25T22:39:50Z</time>
      </trkpt>
      <trkpt lat="59.9846433755" lon="15.827644486">
        <ele>79.4</ele>
        <time>2013-04-25T22:39:51Z</time>
      </trkpt>
      <trkpt lat="59.984645471" lon="15.8276442345">
        <ele>79.4</ele>
        <time>2013-04-25T22:39:52Z</time>
      </trkpt>
      <trkpt lat="59.9846469797" lon="15.8276425581">
        <ele>79.4</ele>
        <time>2013-04-25T22:39:53Z</time>
      </trkpt>
      <trkpt lat="59.984648237" lon="15.8276410494">
        <ele>79.4</ele>
        <time>2013-04-25T22:39:54Z</time>
      </trkpt>
      <trkpt lat="59.9846471474" lon="15.827638451">
        <ele>79.4</ele>
        <time>2013-04-25T22:39:55Z</time>
      </trkpt>
      <trkpt lat="59.9846442975" lon="15.8276370261">
        <ele>79.4</ele>
        <time>2013-04-25T22:39:56Z</time>
      </trkpt>
      <trkpt lat="59.9846437946" lon="15.8276401274">
        <ele>79.4</ele>
        <time>2013-04-25T22:39:57Z</time>
      </trkpt>
      <trkpt lat="59.9846437108" lon="15.8276428934">
        <ele>79.4</ele>
        <time>2013-04-25T22:39:58Z</time>
      </trkpt>
      <trkpt lat="59.9846410286" lon="15.8276428934">
        <ele>79.4</ele>
        <time>2013-04-25T22:39:59Z</time>
      </trkpt>
      <trkpt lat="59.9846379273" lon="15.8276450727">
        <ele>79.4</ele>
        <time>2013-04-25T22:40:00Z</time>
      </trkpt>
      <trkpt lat="59.9846225884" lon="15.8276202623">
        <ele>79.4</ele>
        <time>2013-04-25T22:40:01Z</time>
      </trkpt>
      <trkpt lat="59.9846124463" lon="15.827611126">
        <ele>79.4</ele>
        <time>2013-04-25T22:40:04Z</time>
      </trkpt>
      <trkpt lat="59.9846113566" lon="15.8275989722">
        <ele>79.4</ele>
        <time>2013-04-25T22:40:05Z</time>
      </trkpt>
      <trkpt lat="59.9846110214" lon="15.8275857288">
        <ele>79.4</ele>
        <time>2013-04-25T22:40:07Z</time>
      </trkpt>
      <trkpt lat="59.9846146256" lon="15.8275816217">
        <ele>79.4</ele>
        <time>2013-04-25T22:40:08Z</time>
      </trkpt>
      <trkpt lat="59.9846126139" lon="15.8275712281">
        <ele>79.4</ele>
        <time>2013-04-25T22:40:10Z</time>
      </trkpt>
      <trkpt lat="59.9846123625" lon="15.8275687136">
        <ele>79.4</ele>
        <time>2013-04-25T22:40:11Z</time>
      </trkpt>
      <trkpt lat="59.9846103508" lon="15.8275620081">
        <ele>79.4</ele>
        <time>2013-04-25T22:40:12Z</time>
      </trkpt>
      <trkpt lat="59.9846083391" lon="15.8275554702">
        <ele>79.4</ele>
        <time>2013-04-25T22:40:13Z</time>
      </trkpt>
      <trkpt lat="59.9846039806" lon="15.8275708091">
        <ele>79.4</ele>
        <time>2013-04-25T22:40:14Z</time>
      </trkpt>
      <trkpt lat="59.9846025556" lon="15.827561086">
        <ele>79.4</ele>
        <time>2013-04-25T22:40:15Z</time>
      </trkpt>
      <trkpt lat="59.984602388" lon="15.8275521174">
        <ele>79.4</ele>
        <time>2013-04-25T22:40:16Z</time>
      </trkpt>
      <trkpt lat="59.9846003763" lon="15.827547675">
        <ele>79.4</ele>
        <time>2013-04-25T22:40:17Z</time>
      </trkpt>
      <trkpt lat="59.9845997058" lon="15.8275413048">
        <ele>79.4</ele>
        <time>2013-04-25T22:40:18Z</time>
      </trkpt>
      <trkpt lat="59.9846080877" lon="15.827565277">
        <ele>79.4</ele>
        <time>2013-04-25T22:40:19Z</time>
      </trkpt>
      <trkpt lat="59.9846194871" lon="15.8275727369">
        <ele>79.4</ele>
        <time>2013-04-25T22:40:20Z</time>
      </trkpt>
      <trkpt lat="59.9846316408" lon="15.8275719825">
        <ele>79.4</ele>
        <time>2013-04-25T22:40:21Z</time>
      </trkpt>
      <trkpt lat="59.9846317247" lon="15.8275790233">
        <ele>79.4</ele>
        <time>2013-04-25T22:40:22Z</time>
      </trkpt>
      <trkpt lat="59.984634826" lon="15.8275930211">
        <ele>79.4</ele>
        <time>2013-04-25T22:40:23Z</time>
      </trkpt>
      <trkpt lat="59.9846359994" lon="15.8275952004">
        <ele>79.4</ele>
        <time>2013-04-25T22:40:24Z</time>
      </trkpt>
      <trkpt lat="59.9846376758" lon="15.8276000619">
        <ele>79.4</ele>
        <time>2013-04-25T22:40:25Z</time>
      </trkpt>
      <trkpt lat="59.9846380111" lon="15.8276235312">
        <ele>79.4</ele>
        <time>2013-04-25T22:40:26Z</time>
      </trkpt>
      <trkpt lat="59.9846438784" lon="15.8276427258">
        <ele>79.4</ele>
        <time>2013-04-25T22:40:30Z</time>
      </trkpt>
      <trkpt lat="59.9846432917" lon="15.8276418038">
        <ele>79.4</ele>
        <time>2013-04-25T22:40:31Z</time>
      </trkpt>
      <trkpt lat="59.9846437108" lon="15.8276457433">
        <ele>79.4</ele>
        <time>2013-04-25T22:40:32Z</time>
      </trkpt>
      <trkpt lat="59.9846452195" lon="15.8276977111">
        <ele>79.4</ele>
        <time>2013-04-25T22:40:33Z</time>
      </trkpt>
      <trkpt lat="59.9846464768" lon="15.8277062606">
        <ele>79.4</ele>
        <time>2013-04-25T22:40:34Z</time>
      </trkpt>
      <trkpt lat="59.9846473988" lon="15.8277133014">
        <ele>79.4</ele>
        <time>2013-04-25T22:40:35Z</time>
      </trkpt>
      <trkpt lat="59.9846488237" lon="15.8277180791">
        <ele>79.4</ele>
        <time>2013-04-25T22:40:36Z</time>
      </trkpt>
      <trkpt lat="59.984651003" lon="15.8277220186">
        <ele>79.4</ele>
        <time>2013-04-25T22:40:37Z</time>
      </trkpt>
      <trkpt lat="59.984652428" lon="15.8277259581">
        <ele>79.4</ele>
        <time>2013-04-25T22:40:38Z</time>
      </trkpt>
      <trkpt lat="59.9846502487" lon="15.827724617">
        <ele>79.4</ele>
        <time>2013-04-25T22:40:39Z</time>
      </trkpt>
      <trkpt lat="59.9846480694" lon="15.8277196717">
        <ele>79.4</ele>
        <time>2013-04-25T22:40:40Z</time>
      </trkpt>
      <trkpt lat="59.9846453033" lon="15.8277141396">
        <ele>79.4</ele>
        <time>2013-04-25T22:40:41Z</time>
      </trkpt>
      <trkpt lat="59.9846439622" lon="15.8277113736">
        <ele>79.4</ele>
        <time>2013-04-25T22:40:42Z</time>
      </trkpt>
      <trkpt lat="59.9846453872" lon="15.8277143072">
        <ele>79.4</ele>
        <time>2013-04-25T22:40:43Z</time>
      </trkpt>
      <trkpt lat="59.9846449681" lon="15.8277369384">
        <ele>79.4</ele>
        <time>2013-04-25T22:40:44Z</time>
      </trkpt>
      <trkpt lat="59.984647315" lon="15.8277419675">
        <ele>79.4</ele>
        <time>2013-04-25T22:40:45Z</time>
      </trkpt>
      <trkpt lat="59.9846490752" lon="15.8277446497">
        <ele>79.4</ele>
        <time>2013-04-25T22:40:46Z</time>
      </trkpt>
      <trkpt lat="59.9846521765" lon="15.8277323283">
        <ele>79.4</ele>
        <time>2013-04-25T22:40:49Z</time>
      </trkpt>
      <trkpt lat="59.9846536014" lon="15.8277294785">
        <ele>79.4</ele>
        <time>2013-04-25T22:40:50Z</time>
      </trkpt>
      <trkpt lat="59.9846516736" lon="15.8277083561">
        <ele>79.4</ele>
        <time>2013-04-25T22:40:52Z</time>
      </trkpt>
      <trkpt lat="59.9846554454" lon="15.8277231082">
        <ele>79.4</ele>
        <time>2013-04-25T22:40:57Z</time>
      </trkpt>
      <trkpt lat="59.9846549425" lon="15.827724617">
        <ele>79.4</ele>
        <time>2013-04-25T22:40:58Z</time>
      </trkpt>
      <trkpt lat="59.9846558645" lon="15.8277223539">
        <ele>79.4</ele>
        <time>2013-04-25T22:40:59Z</time>
      </trkpt>
      <trkpt lat="59.9846544396" lon="15.8277172409">
        <ele>79.4</ele>
        <time>2013-04-25T22:41:00Z</time>
      </trkpt>
      <trkpt lat="59.9846540205" lon="15.8277165703">
        <ele>79.4</ele>
        <time>2013-04-25T22:41:01Z</time>
      </trkpt>
      <trkpt lat="59.9846534338" lon="15.8277175762">
        <ele>79.4</ele>
        <time>2013-04-25T22:41:02Z</time>
      </trkpt>
      <trkpt lat="59.9846516736" lon="15.8277155645">
        <ele>79.4</ele>
        <time>2013-04-25T22:41:03Z</time>
      </trkpt>
      <trkpt lat="59.9846359156" lon="15.8276872337">
        <ele>79.4</ele>
        <time>2013-04-25T22:41:04Z</time>
      </trkpt>
      <trkpt lat="59.9846345745" lon="15.8276734874">
        <ele>79.4</ele>
        <time>2013-04-25T22:41:05Z</time>
      </trkpt>
      <trkpt lat="59.9846372567" lon="15.827664854">
        <ele>79.4</ele>
        <time>2013-04-25T22:41:06Z</time>
      </trkpt>
      <trkpt lat="59.9846390169" lon="15.8276574779">
        <ele>79.4</ele>
        <time>2013-04-25T22:41:07Z</time>
      </trkpt>
      <trkpt lat="59.9846396036" lon="15.8276599925">
        <ele>79.4</ele>
        <time>2013-04-25T22:41:08Z</time>
      </trkpt>
      <trkpt lat="59.9846396875" lon="15.8276583161">
        <ele>79.4</ele>
        <time>2013-04-25T22:41:09Z</time>
      </trkpt>
      <trkpt lat="59.9846356642" lon="15.827648174">
        <ele>79.4</ele>
        <time>2013-04-25T22:41:10Z</time>
      </trkpt>
      <trkpt lat="59.9846319761" lon="15.8276266325">
        <ele>79.4</ele>
        <time>2013-04-25T22:41:11Z</time>
      </trkpt>
      <trkpt lat="59.9846327305" lon="15.8276135568">
        <ele>79.4</ele>
        <time>2013-04-25T22:41:12Z</time>
      </trkpt>
      <trkpt lat="59.9846333172" lon="15.8276102878">
        <ele>79.4</ele>
        <time>2013-04-25T22:41:13Z</time>
      </trkpt>
      <trkpt lat="59.9846338201" lon="15.8276130538">
        <ele>79.4</ele>
        <time>2013-04-25T22:41:14Z</time>
      </trkpt>
      <trkpt lat="59.9846339878" lon="15.8276072703">
        <ele>79.4</ele>
        <time>2013-04-25T22:41:15Z</time>
      </trkpt>
      <trkpt lat="59.9846266955" lon="15.8276274707">
        <ele>79.4</ele>
        <time>2013-04-25T22:41:22Z</time>
      </trkpt>
      <trkpt lat="59.9846314732" lon="15.827656053">
        <ele>79.4</ele>
        <time>2013-04-25T22:41:24Z</time>
      </trkpt>
      <trkpt lat="59.984627869" lon="15.8276853058">
        <ele>79.4</ele>
        <time>2013-04-25T22:41:25Z</time>
      </trkpt>
      <trkpt lat="59.9846244324" lon="15.8276944421">
        <ele>79.4</ele>
        <time>2013-04-25T22:41:26Z</time>
      </trkpt>
      <trkpt lat="59.9846234266" lon="15.827704668">
        <ele>79.4</ele>
        <time>2013-04-25T22:41:27Z</time>
      </trkpt>
      <trkpt lat="59.9846210796" lon="15.8277112897">
        <ele>79.4</ele>
        <time>2013-04-25T22:41:28Z</time>
      </trkpt>
      <trkpt lat="59.9846202414" lon="15.827713469">
        <ele>79.4</ele>
        <time>2013-04-25T22:41:29Z</time>
      </trkpt>
      <trkpt lat="59.9846194033" lon="15.827711625">
        <ele>79.4</ele>
        <time>2013-04-25T22:41:30Z</time>
      </trkpt>
      <trkpt lat="59.9846220016" lon="15.8276853058">
        <ele>79.4</ele>
        <time>2013-04-25T22:41:32Z</time>
      </trkpt>
      <trkpt lat="59.9846220855" lon="15.8276785165">
        <ele>79.4</ele>
        <time>2013-04-25T22:41:33Z</time>
      </trkpt>
      <trkpt lat="59.9846221693" lon="15.8276785165">
        <ele>79.4</ele>
        <time>2013-04-25T22:41:34Z</time>
      </trkpt>
      <trkpt lat="59.9846214987" lon="15.827709781">
        <ele>79.4</ele>
        <time>2013-04-25T22:41:35Z</time>
      </trkpt>
      <trkpt lat="59.9846241809" lon="15.8277128823">
        <ele>79.4</ele>
        <time>2013-04-25T22:41:36Z</time>
      </trkpt>
      <trkpt lat="59.9846243486" lon="15.8277147263">
        <ele>79.4</ele>
        <time>2013-04-25T22:41:37Z</time>
      </trkpt>
      <trkpt lat="59.9846233428" lon="15.8277121279">
        <ele>79.4</ele>
        <time>2013-04-25T22:41:38Z</time>
      </trkpt>
      <trkpt lat="59.9846231751" lon="15.8277076017">
        <ele>79.4</ele>
        <time>2013-04-25T22:41:39Z</time>
      </trkpt>
      <trkpt lat="59.9846251868" lon="15.8277081046">
        <ele>79.4</ele>
        <time>2013-04-25T22:41:40Z</time>
      </trkpt>
      <trkpt lat="59.9846248515" lon="15.8277143911">
        <ele>79.4</ele>
        <time>2013-04-25T22:41:41Z</time>
      </trkpt>
    </trkseg>
  </trk>
</gpx>